<?xml version='1.0' encoding='UTF-8'?><gpx version="1.1" creator="JPX - https://github.com/jenetics/jpx" xmlns="http://www.topografix.com/GPX/1/1"><trk><trkseg><trkpt lat="44.5911825" lon="8.5515359"><ele>368.0</ele><time>2026-03-24T09:41:07.813Z</time></trkpt><trkpt lat="44.5912274" lon="8.5514663"><ele>368.0</ele><time>2026-03-24T09:41:09.812Z</time></trkpt><trkpt lat="44.5912683" lon="8.5513547"><ele>368.0</ele><time>2026-03-24T09:41:12.814Z</time></trkpt><trkpt lat="44.5912986" lon="8.5512689"><ele>368.0</ele><time>2026-03-24T09:41:16.814Z</time></trkpt><trkpt lat="44.5913276" lon="8.5511873"><ele>368.0</ele><time>2026-03-24T09:41:19.812Z</time></trkpt><trkpt lat="44.5913591" lon="8.5511085"><ele>368.0</ele><time>2026-03-24T09:41:21.812Z</time></trkpt><trkpt lat="44.5913859" lon="8.5510101"><ele>368.0</ele><time>2026-03-24T09:41:23.813Z</time></trkpt><trkpt lat="44.59141" lon="8.5509045"><ele>369.1666666666667</ele><time>2026-03-24T09:41:25.813Z</time></trkpt><trkpt lat="44.5914363" lon="8.5507955"><ele>370.33333333333337</ele><time>2026-03-24T09:41:27.814Z</time></trkpt><trkpt lat="44.5914726" lon="8.5506844"><ele>371.5</ele><time>2026-03-24T09:41:29.815Z</time></trkpt><trkpt lat="44.5915119" lon="8.5505852"><ele>372.6666666666667</ele><time>2026-03-24T09:41:31.815Z</time></trkpt><trkpt lat="44.591547" lon="8.5504932"><ele>373.8333333333333</ele><time>2026-03-24T09:41:33.814Z</time></trkpt><trkpt lat="44.5915725" lon="8.5504029"><ele>375.0</ele><time>2026-03-24T09:41:35.814Z</time></trkpt><trkpt lat="44.591603" lon="8.5503101"><ele>375.5714285714286</ele><time>2026-03-24T09:41:37.814Z</time></trkpt><trkpt lat="44.5916382" lon="8.5502244"><ele>376.1428571428571</ele><time>2026-03-24T09:41:39.815Z</time></trkpt><trkpt lat="44.5916768" lon="8.5501157"><ele>376.7142857142857</ele><time>2026-03-24T09:41:42.814Z</time></trkpt><trkpt lat="44.5917008" lon="8.5500291"><ele>377.28571428571433</ele><time>2026-03-24T09:41:45.815Z</time></trkpt><trkpt lat="44.5917265" lon="8.5499306"><ele>377.8571428571429</ele><time>2026-03-24T09:41:50.814Z</time></trkpt><trkpt lat="44.5917638" lon="8.5498582"><ele>378.42857142857144</ele><time>2026-03-24T09:41:54.812Z</time></trkpt><trkpt lat="44.5918229" lon="8.5498039"><ele>379.0</ele><time>2026-03-24T09:41:58.814Z</time></trkpt><trkpt lat="44.5918811" lon="8.5497551"><ele>379.0</ele><time>2026-03-24T09:42:04.814Z</time></trkpt><trkpt lat="44.5919442" lon="8.5496767"><ele>379.0</ele><time>2026-03-24T09:42:08.815Z</time></trkpt><trkpt lat="44.5920054" lon="8.5496099"><ele>379.0</ele><time>2026-03-24T09:42:11.815Z</time></trkpt><trkpt lat="44.5920481" lon="8.549525"><ele>379.0</ele><time>2026-03-24T09:42:14.815Z</time></trkpt><trkpt lat="44.5920681" lon="8.5494325"><ele>379.0</ele><time>2026-03-24T09:42:19.811Z</time></trkpt><trkpt lat="44.5920385" lon="8.5493398"><ele>379.0</ele><time>2026-03-24T09:42:21.811Z</time></trkpt><trkpt lat="44.5919347" lon="8.5492621"><ele>378.79999999999995</ele><time>2026-03-24T09:42:23.812Z</time></trkpt><trkpt lat="44.5918611" lon="8.5492202"><ele>378.59999999999997</ele><time>2026-03-24T09:42:24.811Z</time></trkpt><trkpt lat="44.591772" lon="8.5491608"><ele>378.4</ele><time>2026-03-24T09:42:25.814Z</time></trkpt><trkpt lat="44.5916612" lon="8.5490812"><ele>378.2</ele><time>2026-03-24T09:42:26.814Z</time></trkpt><trkpt lat="44.5915542" lon="8.548997"><ele>378.0</ele><time>2026-03-24T09:42:27.812Z</time></trkpt><trkpt lat="44.5914569" lon="8.5489198"><ele>378.0</ele><time>2026-03-24T09:42:28.813Z</time></trkpt><trkpt lat="44.5913657" lon="8.5488432"><ele>378.0</ele><time>2026-03-24T09:42:29.813Z</time></trkpt><trkpt lat="44.5912758" lon="8.548764"><ele>378.0</ele><time>2026-03-24T09:42:30.815Z</time></trkpt><trkpt lat="44.5911825" lon="8.5486796"><ele>378.0</ele><time>2026-03-24T09:42:31.814Z</time></trkpt><trkpt lat="44.5910872" lon="8.5485729"><ele>378.0</ele><time>2026-03-24T09:42:32.815Z</time></trkpt><trkpt lat="44.591007" lon="8.5484535"><ele>378.25</ele><time>2026-03-24T09:42:33.813Z</time></trkpt><trkpt lat="44.5909308" lon="8.5483382"><ele>378.5</ele><time>2026-03-24T09:42:34.812Z</time></trkpt><trkpt lat="44.590843" lon="8.5482354"><ele>378.75</ele><time>2026-03-24T09:42:35.814Z</time></trkpt><trkpt lat="44.5907358" lon="8.5481449"><ele>379.0</ele><time>2026-03-24T09:42:36.814Z</time></trkpt><trkpt lat="44.5906192" lon="8.5480754"><ele>379.0</ele><time>2026-03-24T09:42:37.815Z</time></trkpt><trkpt lat="44.5905025" lon="8.5480313"><ele>379.0</ele><time>2026-03-24T09:42:38.814Z</time></trkpt><trkpt lat="44.5903771" lon="8.5479853"><ele>379.0</ele><time>2026-03-24T09:42:39.813Z</time></trkpt><trkpt lat="44.5902527" lon="8.5479314"><ele>379.0</ele><time>2026-03-24T09:42:40.813Z</time></trkpt><trkpt lat="44.590141" lon="8.5478699"><ele>381.25</ele><time>2026-03-24T09:42:41.813Z</time></trkpt><trkpt lat="44.5900277" lon="8.5477898"><ele>383.5</ele><time>2026-03-24T09:42:42.814Z</time></trkpt><trkpt lat="44.5899306" lon="8.5476771"><ele>385.75</ele><time>2026-03-24T09:42:43.815Z</time></trkpt><trkpt lat="44.5898406" lon="8.5475506"><ele>388.0</ele><time>2026-03-24T09:42:44.816Z</time></trkpt><trkpt lat="44.5897486" lon="8.5474202"><ele>388.0</ele><time>2026-03-24T09:42:45.811Z</time></trkpt><trkpt lat="44.5896581" lon="8.5472889"><ele>388.0</ele><time>2026-03-24T09:42:46.812Z</time></trkpt><trkpt lat="44.5895626" lon="8.5471731"><ele>388.0</ele><time>2026-03-24T09:42:47.813Z</time></trkpt><trkpt lat="44.5894652" lon="8.5470741"><ele>388.0</ele><time>2026-03-24T09:42:48.812Z</time></trkpt><trkpt lat="44.5893691" lon="8.5469866"><ele>387.5</ele><time>2026-03-24T09:42:49.812Z</time></trkpt><trkpt lat="44.5892684" lon="8.5469054"><ele>387.0</ele><time>2026-03-24T09:42:50.812Z</time></trkpt><trkpt lat="44.5891628" lon="8.5468201"><ele>386.5</ele><time>2026-03-24T09:42:51.813Z</time></trkpt><trkpt lat="44.5890507" lon="8.5467265"><ele>386.0</ele><time>2026-03-24T09:42:52.812Z</time></trkpt><trkpt lat="44.5889602" lon="8.5466383"><ele>386.0</ele><time>2026-03-24T09:42:53.813Z</time></trkpt><trkpt lat="44.5888796" lon="8.5465359"><ele>386.0</ele><time>2026-03-24T09:42:54.813Z</time></trkpt><trkpt lat="44.588805" lon="8.5464237"><ele>386.0</ele><time>2026-03-24T09:42:55.813Z</time></trkpt><trkpt lat="44.5887398" lon="8.5463042"><ele>386.0</ele><time>2026-03-24T09:42:56.813Z</time></trkpt><trkpt lat="44.5886849" lon="8.5461744"><ele>386.0</ele><time>2026-03-24T09:42:57.814Z</time></trkpt><trkpt lat="44.5886276" lon="8.5460371"><ele>389.25</ele><time>2026-03-24T09:42:58.813Z</time></trkpt><trkpt lat="44.5885731" lon="8.5459007"><ele>392.5</ele><time>2026-03-24T09:42:59.814Z</time></trkpt><trkpt lat="44.5885181" lon="8.5457631"><ele>395.75</ele><time>2026-03-24T09:43:00.814Z</time></trkpt><trkpt lat="44.588461" lon="8.5456184"><ele>399.0</ele><time>2026-03-24T09:43:01.815Z</time></trkpt><trkpt lat="44.5884105" lon="8.545469"><ele>399.0</ele><time>2026-03-24T09:43:02.813Z</time></trkpt><trkpt lat="44.5883752" lon="8.5453297"><ele>399.0</ele><time>2026-03-24T09:43:03.813Z</time></trkpt><trkpt lat="44.5883554" lon="8.5452006"><ele>399.0</ele><time>2026-03-24T09:43:04.812Z</time></trkpt><trkpt lat="44.5883648" lon="8.5450597"><ele>399.0</ele><time>2026-03-24T09:43:05.813Z</time></trkpt><trkpt lat="44.5883863" lon="8.5449055"><ele>399.0</ele><time>2026-03-24T09:43:06.813Z</time></trkpt><trkpt lat="44.5883987" lon="8.5447597"><ele>399.0</ele><time>2026-03-24T09:43:07.811Z</time></trkpt><trkpt lat="44.588397" lon="8.5446321"><ele>399.0</ele><time>2026-03-24T09:43:08.812Z</time></trkpt><trkpt lat="44.5883756" lon="8.54451"><ele>399.0</ele><time>2026-03-24T09:43:09.813Z</time></trkpt><trkpt lat="44.588345" lon="8.5443997"><ele>399.0</ele><time>2026-03-24T09:43:10.812Z</time></trkpt><trkpt lat="44.588301" lon="8.5442982"><ele>399.0</ele><time>2026-03-24T09:43:11.812Z</time></trkpt><trkpt lat="44.58823" lon="8.5441932"><ele>399.75</ele><time>2026-03-24T09:43:12.813Z</time></trkpt><trkpt lat="44.5881142" lon="8.544091"><ele>400.5</ele><time>2026-03-24T09:43:13.813Z</time></trkpt><trkpt lat="44.5879872" lon="8.5439958"><ele>401.25</ele><time>2026-03-24T09:43:14.815Z</time></trkpt><trkpt lat="44.5878612" lon="8.5439064"><ele>402.0</ele><time>2026-03-24T09:43:15.812Z</time></trkpt><trkpt lat="44.5877513" lon="8.5438004"><ele>400.6</ele><time>2026-03-24T09:43:16.812Z</time></trkpt><trkpt lat="44.5876571" lon="8.5436849"><ele>399.20000000000005</ele><time>2026-03-24T09:43:17.812Z</time></trkpt><trkpt lat="44.5875717" lon="8.5435869"><ele>397.8</ele><time>2026-03-24T09:43:18.812Z</time></trkpt><trkpt lat="44.5874812" lon="8.5435153"><ele>396.4</ele><time>2026-03-24T09:43:19.813Z</time></trkpt><trkpt lat="44.5873839" lon="8.5434801"><ele>395.0</ele><time>2026-03-24T09:43:20.812Z</time></trkpt><trkpt lat="44.5872633" lon="8.5434917"><ele>395.0</ele><time>2026-03-24T09:43:21.813Z</time></trkpt><trkpt lat="44.5871442" lon="8.5434695"><ele>395.0</ele><time>2026-03-24T09:43:22.812Z</time></trkpt><trkpt lat="44.5870297" lon="8.5434058"><ele>395.0</ele><time>2026-03-24T09:43:23.812Z</time></trkpt><trkpt lat="44.5869323" lon="8.5433173"><ele>395.0</ele><time>2026-03-24T09:43:24.812Z</time></trkpt><trkpt lat="44.5868479" lon="8.5432451"><ele>396.8</ele><time>2026-03-24T09:43:25.814Z</time></trkpt><trkpt lat="44.5867654" lon="8.5432107"><ele>398.6</ele><time>2026-03-24T09:43:26.813Z</time></trkpt><trkpt lat="44.5866787" lon="8.5432087"><ele>400.4</ele><time>2026-03-24T09:43:27.812Z</time></trkpt><trkpt lat="44.5865858" lon="8.5432341"><ele>402.2</ele><time>2026-03-24T09:43:28.812Z</time></trkpt><trkpt lat="44.5865088" lon="8.5433113"><ele>404.0</ele><time>2026-03-24T09:43:29.813Z</time></trkpt><trkpt lat="44.5864368" lon="8.5433908"><ele>403.99999999999994</ele><time>2026-03-24T09:43:30.814Z</time></trkpt><trkpt lat="44.5863824" lon="8.5434929"><ele>404.0</ele><time>2026-03-24T09:43:31.813Z</time></trkpt><trkpt lat="44.5863286" lon="8.5435867"><ele>404.0</ele><time>2026-03-24T09:43:32.813Z</time></trkpt><trkpt lat="44.5862791" lon="8.5436688"><ele>404.0</ele><time>2026-03-24T09:43:33.813Z</time></trkpt><trkpt lat="44.5862274" lon="8.5437404"><ele>403.99999999999994</ele><time>2026-03-24T09:43:34.812Z</time></trkpt><trkpt lat="44.5861827" lon="8.543805"><ele>404.0</ele><time>2026-03-24T09:43:35.812Z</time></trkpt><trkpt lat="44.5860827" lon="8.54383"><ele>405.79999999999995</ele><time>2026-03-24T09:43:37.812Z</time></trkpt><trkpt lat="44.5859893" lon="8.5437739"><ele>407.59999999999997</ele><time>2026-03-24T09:43:39.812Z</time></trkpt><trkpt lat="44.585904" lon="8.5436653"><ele>409.4</ele><time>2026-03-24T09:43:41.812Z</time></trkpt><trkpt lat="44.5858554" lon="8.5435216"><ele>411.2</ele><time>2026-03-24T09:43:43.813Z</time></trkpt><trkpt lat="44.5858405" lon="8.5434288"><ele>413.0</ele><time>2026-03-24T09:43:44.813Z</time></trkpt><trkpt lat="44.5858099" lon="8.5433385"><ele>412.99999999999994</ele><time>2026-03-24T09:43:45.813Z</time></trkpt><trkpt lat="44.5857804" lon="8.5432399"><ele>413.0</ele><time>2026-03-24T09:43:46.812Z</time></trkpt><trkpt lat="44.5857553" lon="8.543128"><ele>413.0</ele><time>2026-03-24T09:43:47.813Z</time></trkpt><trkpt lat="44.585728" lon="8.5430152"><ele>413.0</ele><time>2026-03-24T09:43:48.815Z</time></trkpt><trkpt lat="44.5856973" lon="8.5429002"><ele>412.99999999999994</ele><time>2026-03-24T09:43:49.813Z</time></trkpt><trkpt lat="44.5856694" lon="8.5427833"><ele>413.0</ele><time>2026-03-24T09:43:50.813Z</time></trkpt><trkpt lat="44.585643" lon="8.5426681"><ele>410.8333333333333</ele><time>2026-03-24T09:43:51.811Z</time></trkpt><trkpt lat="44.5856114" lon="8.5425615"><ele>408.66666666666663</ele><time>2026-03-24T09:43:52.812Z</time></trkpt><trkpt lat="44.5855877" lon="8.5424516"><ele>406.5</ele><time>2026-03-24T09:43:53.816Z</time></trkpt><trkpt lat="44.5855748" lon="8.5423445"><ele>404.33333333333337</ele><time>2026-03-24T09:43:54.812Z</time></trkpt><trkpt lat="44.5855707" lon="8.5422315"><ele>402.1666666666667</ele><time>2026-03-24T09:43:55.816Z</time></trkpt><trkpt lat="44.5855832" lon="8.5421281"><ele>400.0</ele><time>2026-03-24T09:43:56.814Z</time></trkpt><trkpt lat="44.5856108" lon="8.5420203"><ele>397.50000000000006</ele><time>2026-03-24T09:43:57.812Z</time></trkpt><trkpt lat="44.5856278" lon="8.541907"><ele>395.0</ele><time>2026-03-24T09:43:58.813Z</time></trkpt><trkpt lat="44.5856341" lon="8.5417986"><ele>392.5</ele><time>2026-03-24T09:43:59.813Z</time></trkpt><trkpt lat="44.5856146" lon="8.5416782"><ele>390.0</ele><time>2026-03-24T09:44:00.813Z</time></trkpt><trkpt lat="44.5855888" lon="8.5415632"><ele>387.50000000000006</ele><time>2026-03-24T09:44:01.812Z</time></trkpt><trkpt lat="44.5855509" lon="8.5414554"><ele>385.0</ele><time>2026-03-24T09:44:02.813Z</time></trkpt><trkpt lat="44.5854853" lon="8.5413454"><ele>385.00000000000006</ele><time>2026-03-24T09:44:03.812Z</time></trkpt><trkpt lat="44.5854198" lon="8.541257"><ele>385.0</ele><time>2026-03-24T09:44:04.812Z</time></trkpt><trkpt lat="44.5853633" lon="8.5411641"><ele>385.0</ele><time>2026-03-24T09:44:05.813Z</time></trkpt><trkpt lat="44.5853203" lon="8.5410855"><ele>385.0</ele><time>2026-03-24T09:44:06.812Z</time></trkpt><trkpt lat="44.5852721" lon="8.5409796"><ele>385.00000000000006</ele><time>2026-03-24T09:44:07.812Z</time></trkpt><trkpt lat="44.5852353" lon="8.5408882"><ele>385.0</ele><time>2026-03-24T09:44:08.812Z</time></trkpt><trkpt lat="44.5851974" lon="8.5407944"><ele>386.4</ele><time>2026-03-24T09:44:09.812Z</time></trkpt><trkpt lat="44.585146" lon="8.5406962"><ele>387.8</ele><time>2026-03-24T09:44:10.813Z</time></trkpt><trkpt lat="44.585068" lon="8.5406048"><ele>389.20000000000005</ele><time>2026-03-24T09:44:11.814Z</time></trkpt><trkpt lat="44.584983" lon="8.5405258"><ele>390.6</ele><time>2026-03-24T09:44:12.813Z</time></trkpt><trkpt lat="44.584904" lon="8.5404579"><ele>392.0</ele><time>2026-03-24T09:44:13.814Z</time></trkpt><trkpt lat="44.5848311" lon="8.5403855"><ele>390.66666666666663</ele><time>2026-03-24T09:44:14.814Z</time></trkpt><trkpt lat="44.5847331" lon="8.5403087"><ele>389.3333333333333</ele><time>2026-03-24T09:44:15.813Z</time></trkpt><trkpt lat="44.5846841" lon="8.5402361"><ele>388.0</ele><time>2026-03-24T09:44:16.814Z</time></trkpt><trkpt lat="44.584628" lon="8.5401757"><ele>386.66666666666663</ele><time>2026-03-24T09:44:17.814Z</time></trkpt><trkpt lat="44.5845709" lon="8.5401311"><ele>385.3333333333333</ele><time>2026-03-24T09:44:18.813Z</time></trkpt><trkpt lat="44.5845002" lon="8.5401006"><ele>384.0</ele><time>2026-03-24T09:44:19.815Z</time></trkpt><trkpt lat="44.5844111" lon="8.5400931"><ele>384.0</ele><time>2026-03-24T09:44:20.814Z</time></trkpt><trkpt lat="44.5843178" lon="8.5400807"><ele>384.0</ele><time>2026-03-24T09:44:21.814Z</time></trkpt><trkpt lat="44.5842579" lon="8.5400396"><ele>384.0</ele><time>2026-03-24T09:44:22.815Z</time></trkpt><trkpt lat="44.5842034" lon="8.5399897"><ele>384.0</ele><time>2026-03-24T09:44:23.812Z</time></trkpt><trkpt lat="44.5841963" lon="8.5398343"><ele>384.0</ele><time>2026-03-24T09:44:25.813Z</time></trkpt><trkpt lat="44.5842117" lon="8.5397354"><ele>384.0</ele><time>2026-03-24T09:44:26.812Z</time></trkpt><trkpt lat="44.5842276" lon="8.5396229"><ele>383.3333333333333</ele><time>2026-03-24T09:44:27.812Z</time></trkpt><trkpt lat="44.584233" lon="8.5395248"><ele>382.6666666666667</ele><time>2026-03-24T09:44:28.812Z</time></trkpt><trkpt lat="44.5842203" lon="8.5394187"><ele>382.0</ele><time>2026-03-24T09:44:29.812Z</time></trkpt><trkpt lat="44.5842002" lon="8.5393131"><ele>381.33333333333337</ele><time>2026-03-24T09:44:30.812Z</time></trkpt><trkpt lat="44.5841829" lon="8.5391775"><ele>380.6666666666667</ele><time>2026-03-24T09:44:32.813Z</time></trkpt><trkpt lat="44.5842528" lon="8.5391007"><ele>380.0</ele><time>2026-03-24T09:44:36.813Z</time></trkpt><trkpt lat="44.5843227" lon="8.5391293"><ele>380.0</ele><time>2026-03-24T09:44:37.813Z</time></trkpt><trkpt lat="44.5843924" lon="8.5391654"><ele>380.0</ele><time>2026-03-24T09:44:38.813Z</time></trkpt><trkpt lat="44.5844638" lon="8.5391773"><ele>380.0</ele><time>2026-03-24T09:44:39.814Z</time></trkpt><trkpt lat="44.5845386" lon="8.5391693"><ele>380.0</ele><time>2026-03-24T09:44:40.813Z</time></trkpt><trkpt lat="44.5846215" lon="8.5391627"><ele>380.0</ele><time>2026-03-24T09:44:41.813Z</time></trkpt><trkpt lat="44.5847084" lon="8.5391727"><ele>380.0</ele><time>2026-03-24T09:44:42.813Z</time></trkpt><trkpt lat="44.5847984" lon="8.5392029"><ele>378.6666666666667</ele><time>2026-03-24T09:44:43.813Z</time></trkpt><trkpt lat="44.5849004" lon="8.5392296"><ele>377.33333333333337</ele><time>2026-03-24T09:44:44.813Z</time></trkpt><trkpt lat="44.5849813" lon="8.5392498"><ele>376.0</ele><time>2026-03-24T09:44:45.813Z</time></trkpt><trkpt lat="44.5850643" lon="8.5392608"><ele>374.6666666666667</ele><time>2026-03-24T09:44:46.815Z</time></trkpt><trkpt lat="44.5851338" lon="8.5392249"><ele>373.3333333333333</ele><time>2026-03-24T09:44:47.814Z</time></trkpt><trkpt lat="44.5851948" lon="8.5391096"><ele>372.0</ele><time>2026-03-24T09:44:48.812Z</time></trkpt><trkpt lat="44.5852439" lon="8.5389815"><ele>372.0</ele><time>2026-03-24T09:44:49.812Z</time></trkpt><trkpt lat="44.5852859" lon="8.5388568"><ele>372.0</ele><time>2026-03-24T09:44:50.812Z</time></trkpt><trkpt lat="44.585314" lon="8.5387509"><ele>372.0</ele><time>2026-03-24T09:44:51.813Z</time></trkpt><trkpt lat="44.5853228" lon="8.5386499"><ele>372.0</ele><time>2026-03-24T09:44:52.813Z</time></trkpt><trkpt lat="44.5853086" lon="8.5385528"><ele>372.0</ele><time>2026-03-24T09:44:53.813Z</time></trkpt><trkpt lat="44.5852696" lon="8.5384676"><ele>372.0</ele><time>2026-03-24T09:44:54.812Z</time></trkpt><trkpt lat="44.5852235" lon="8.5383806"><ele>374.8</ele><time>2026-03-24T09:44:55.812Z</time></trkpt><trkpt lat="44.5851799" lon="8.5383102"><ele>377.6</ele><time>2026-03-24T09:44:56.812Z</time></trkpt><trkpt lat="44.5851475" lon="8.5381621"><ele>380.40000000000003</ele><time>2026-03-24T09:44:58.815Z</time></trkpt><trkpt lat="44.5852086" lon="8.5380343"><ele>383.20000000000005</ele><time>2026-03-24T09:45:00.813Z</time></trkpt><trkpt lat="44.58526" lon="8.5379395"><ele>386.0</ele><time>2026-03-24T09:45:01.813Z</time></trkpt><trkpt lat="44.5853141" lon="8.5378202"><ele>386.3333333333333</ele><time>2026-03-24T09:45:02.814Z</time></trkpt><trkpt lat="44.5853656" lon="8.5376899"><ele>386.66666666666663</ele><time>2026-03-24T09:45:03.813Z</time></trkpt><trkpt lat="44.5853991" lon="8.5375733"><ele>387.0</ele><time>2026-03-24T09:45:04.815Z</time></trkpt><trkpt lat="44.5854302" lon="8.5374678"><ele>387.33333333333337</ele><time>2026-03-24T09:45:05.815Z</time></trkpt><trkpt lat="44.5854813" lon="8.5373929"><ele>387.6666666666667</ele><time>2026-03-24T09:45:06.814Z</time></trkpt><trkpt lat="44.585561" lon="8.5373469"><ele>388.0</ele><time>2026-03-24T09:45:07.814Z</time></trkpt><trkpt lat="44.5856702" lon="8.5373098"><ele>388.0</ele><time>2026-03-24T09:45:08.812Z</time></trkpt><trkpt lat="44.5857927" lon="8.5372763"><ele>388.0</ele><time>2026-03-24T09:45:09.812Z</time></trkpt><trkpt lat="44.5859117" lon="8.5372522"><ele>388.0</ele><time>2026-03-24T09:45:10.814Z</time></trkpt><trkpt lat="44.586017" lon="8.5372289"><ele>388.0</ele><time>2026-03-24T09:45:11.812Z</time></trkpt><trkpt lat="44.5861095" lon="8.5372186"><ele>388.0</ele><time>2026-03-24T09:45:12.812Z</time></trkpt><trkpt lat="44.5861947" lon="8.5372042"><ele>388.50000000000006</ele><time>2026-03-24T09:45:13.814Z</time></trkpt><trkpt lat="44.5862741" lon="8.5371699"><ele>389.0</ele><time>2026-03-24T09:45:14.813Z</time></trkpt><trkpt lat="44.5863473" lon="8.5371256"><ele>389.5</ele><time>2026-03-24T09:45:15.812Z</time></trkpt><trkpt lat="44.5864225" lon="8.5370726"><ele>390.0</ele><time>2026-03-24T09:45:16.812Z</time></trkpt><trkpt lat="44.586499" lon="8.5370179"><ele>390.50000000000006</ele><time>2026-03-24T09:45:17.812Z</time></trkpt><trkpt lat="44.5865701" lon="8.5369659"><ele>391.0</ele><time>2026-03-24T09:45:18.812Z</time></trkpt><trkpt lat="44.5866378" lon="8.5369165"><ele>390.99999999999994</ele><time>2026-03-24T09:45:19.815Z</time></trkpt><trkpt lat="44.586703" lon="8.5368616"><ele>391.0</ele><time>2026-03-24T09:45:20.812Z</time></trkpt><trkpt lat="44.5867576" lon="8.5367955"><ele>391.0</ele><time>2026-03-24T09:45:21.813Z</time></trkpt><trkpt lat="44.5868016" lon="8.5367251"><ele>391.0</ele><time>2026-03-24T09:45:22.812Z</time></trkpt><trkpt lat="44.5868258" lon="8.5366434"><ele>391.0</ele><time>2026-03-24T09:45:23.812Z</time></trkpt><trkpt lat="44.5868358" lon="8.5365456"><ele>390.99999999999994</ele><time>2026-03-24T09:45:24.812Z</time></trkpt><trkpt lat="44.586831" lon="8.536444"><ele>391.0</ele><time>2026-03-24T09:45:25.813Z</time></trkpt><trkpt lat="44.5868209" lon="8.5363441"><ele>391.00000000000006</ele><time>2026-03-24T09:45:26.813Z</time></trkpt><trkpt lat="44.5868149" lon="8.5362452"><ele>391.0</ele><time>2026-03-24T09:45:27.812Z</time></trkpt><trkpt lat="44.5868266" lon="8.5361522"><ele>391.0</ele><time>2026-03-24T09:45:28.812Z</time></trkpt><trkpt lat="44.5868499" lon="8.5360581"><ele>391.0</ele><time>2026-03-24T09:45:29.813Z</time></trkpt><trkpt lat="44.5868896" lon="8.5359429"><ele>391.00000000000006</ele><time>2026-03-24T09:45:30.814Z</time></trkpt><trkpt lat="44.5869462" lon="8.5358336"><ele>391.0</ele><time>2026-03-24T09:45:31.814Z</time></trkpt><trkpt lat="44.5869985" lon="8.5357413"><ele>391.33333333333337</ele><time>2026-03-24T09:45:32.814Z</time></trkpt><trkpt lat="44.5870596" lon="8.5356661"><ele>391.6666666666667</ele><time>2026-03-24T09:45:33.814Z</time></trkpt><trkpt lat="44.5871171" lon="8.5356182"><ele>392.0</ele><time>2026-03-24T09:45:34.814Z</time></trkpt><trkpt lat="44.5871779" lon="8.5356725"><ele>392.33333333333337</ele><time>2026-03-24T09:45:35.814Z</time></trkpt><trkpt lat="44.5872482" lon="8.5357365"><ele>392.6666666666667</ele><time>2026-03-24T09:45:36.814Z</time></trkpt><trkpt lat="44.5873106" lon="8.5358776"><ele>393.0</ele><time>2026-03-24T09:45:37.814Z</time></trkpt><trkpt lat="44.5873582" lon="8.5360237"><ele>393.0</ele><time>2026-03-24T09:45:38.814Z</time></trkpt><trkpt lat="44.5874145" lon="8.53615"><ele>393.0</ele><time>2026-03-24T09:45:39.812Z</time></trkpt><trkpt lat="44.58747" lon="8.5362595"><ele>393.0</ele><time>2026-03-24T09:45:40.815Z</time></trkpt><trkpt lat="44.5875418" lon="8.5363537"><ele>393.0</ele><time>2026-03-24T09:45:41.816Z</time></trkpt><trkpt lat="44.587614" lon="8.536435"><ele>393.0</ele><time>2026-03-24T09:45:42.812Z</time></trkpt><trkpt lat="44.5876866" lon="8.5365045"><ele>392.4</ele><time>2026-03-24T09:45:43.812Z</time></trkpt><trkpt lat="44.5877607" lon="8.5365712"><ele>391.79999999999995</ele><time>2026-03-24T09:45:44.812Z</time></trkpt><trkpt lat="44.5878202" lon="8.5366162"><ele>391.2</ele><time>2026-03-24T09:45:45.813Z</time></trkpt><trkpt lat="44.5879266" lon="8.5366862"><ele>390.6</ele><time>2026-03-24T09:45:47.812Z</time></trkpt><trkpt lat="44.5880339" lon="8.5367325"><ele>390.0</ele><time>2026-03-24T09:45:49.812Z</time></trkpt><trkpt lat="44.5881036" lon="8.5367346"><ele>390.0</ele><time>2026-03-24T09:45:50.813Z</time></trkpt><trkpt lat="44.5881842" lon="8.5367137"><ele>390.0</ele><time>2026-03-24T09:45:51.812Z</time></trkpt><trkpt lat="44.5882658" lon="8.5366795"><ele>390.0</ele><time>2026-03-24T09:45:52.813Z</time></trkpt><trkpt lat="44.5883477" lon="8.5366435"><ele>390.0</ele><time>2026-03-24T09:45:53.813Z</time></trkpt><trkpt lat="44.5884292" lon="8.5366098"><ele>390.0</ele><time>2026-03-24T09:45:54.812Z</time></trkpt><trkpt lat="44.5884933" lon="8.5365832"><ele>390.0</ele><time>2026-03-24T09:45:55.813Z</time></trkpt><trkpt lat="44.5885882" lon="8.5364976"><ele>390.0</ele><time>2026-03-24T09:45:57.812Z</time></trkpt><trkpt lat="44.5886362" lon="8.5363708"><ele>390.0</ele><time>2026-03-24T09:45:59.813Z</time></trkpt><trkpt lat="44.5886612" lon="8.5362694"><ele>390.0</ele><time>2026-03-24T09:46:00.814Z</time></trkpt><trkpt lat="44.5886999" lon="8.5361455"><ele>390.0</ele><time>2026-03-24T09:46:01.814Z</time></trkpt><trkpt lat="44.5887485" lon="8.5360323"><ele>390.0</ele><time>2026-03-24T09:46:02.814Z</time></trkpt><trkpt lat="44.5888041" lon="8.5359396"><ele>393.5</ele><time>2026-03-24T09:46:03.813Z</time></trkpt><trkpt lat="44.5888548" lon="8.5358648"><ele>397.0</ele><time>2026-03-24T09:46:04.813Z</time></trkpt><trkpt lat="44.5889186" lon="8.5357679"><ele>400.5</ele><time>2026-03-24T09:46:06.813Z</time></trkpt><trkpt lat="44.5889497" lon="8.5356828"><ele>404.0</ele><time>2026-03-24T09:46:08.814Z</time></trkpt><trkpt lat="44.5889754" lon="8.5355933"><ele>407.5</ele><time>2026-03-24T09:46:11.814Z</time></trkpt><trkpt lat="44.5890155" lon="8.535483"><ele>411.0</ele><time>2026-03-24T09:46:13.815Z</time></trkpt><trkpt lat="44.5890474" lon="8.5354056"><ele>412.1666666666667</ele><time>2026-03-24T09:46:14.814Z</time></trkpt><trkpt lat="44.5890986" lon="8.5352974"><ele>413.33333333333337</ele><time>2026-03-24T09:46:16.812Z</time></trkpt><trkpt lat="44.5891206" lon="8.5351669"><ele>414.5</ele><time>2026-03-24T09:46:18.812Z</time></trkpt><trkpt lat="44.589131" lon="8.5350384"><ele>415.6666666666667</ele><time>2026-03-24T09:46:20.814Z</time></trkpt><trkpt lat="44.589167" lon="8.5349418"><ele>416.83333333333337</ele><time>2026-03-24T09:46:22.812Z</time></trkpt><trkpt lat="44.5892566" lon="8.5349538"><ele>418.0</ele><time>2026-03-24T09:46:24.814Z</time></trkpt><trkpt lat="44.589327" lon="8.5349629"><ele>418.00000000000006</ele><time>2026-03-24T09:46:25.813Z</time></trkpt><trkpt lat="44.5894163" lon="8.5349882"><ele>418.0</ele><time>2026-03-24T09:46:26.814Z</time></trkpt><trkpt lat="44.5894983" lon="8.5350363"><ele>418.0</ele><time>2026-03-24T09:46:27.814Z</time></trkpt><trkpt lat="44.5895781" lon="8.5350933"><ele>418.0</ele><time>2026-03-24T09:46:28.814Z</time></trkpt><trkpt lat="44.5896476" lon="8.5351355"><ele>418.00000000000006</ele><time>2026-03-24T09:46:29.813Z</time></trkpt><trkpt lat="44.5897213" lon="8.5351566"><ele>418.0</ele><time>2026-03-24T09:46:30.813Z</time></trkpt><trkpt lat="44.5898555" lon="8.5351721"><ele>420.1666666666667</ele><time>2026-03-24T09:46:32.814Z</time></trkpt><trkpt lat="44.5899244" lon="8.5351906"><ele>422.33333333333337</ele><time>2026-03-24T09:46:33.813Z</time></trkpt><trkpt lat="44.589997" lon="8.5352885"><ele>424.5</ele><time>2026-03-24T09:46:35.814Z</time></trkpt><trkpt lat="44.5900319" lon="8.5354196"><ele>426.66666666666663</ele><time>2026-03-24T09:46:37.813Z</time></trkpt><trkpt lat="44.5899802" lon="8.5355469"><ele>428.8333333333333</ele><time>2026-03-24T09:46:39.813Z</time></trkpt><trkpt lat="44.5899351" lon="8.5356089"><ele>431.0</ele><time>2026-03-24T09:46:40.814Z</time></trkpt><trkpt lat="44.5899253" lon="8.5357455"><ele>430.99999999999994</ele><time>2026-03-24T09:46:41.816Z</time></trkpt><trkpt lat="44.5899472" lon="8.5358369"><ele>431.0</ele><time>2026-03-24T09:46:42.814Z</time></trkpt><trkpt lat="44.5899977" lon="8.5359506"><ele>431.0</ele><time>2026-03-24T09:46:43.814Z</time></trkpt><trkpt lat="44.5900528" lon="8.5360687"><ele>431.0</ele><time>2026-03-24T09:46:44.814Z</time></trkpt><trkpt lat="44.5900976" lon="8.5361771"><ele>430.99999999999994</ele><time>2026-03-24T09:46:45.814Z</time></trkpt><trkpt lat="44.5901324" lon="8.5362757"><ele>431.0</ele><time>2026-03-24T09:46:46.813Z</time></trkpt><trkpt lat="44.5901841" lon="8.5363855"><ele>429.0</ele><time>2026-03-24T09:46:48.813Z</time></trkpt><trkpt lat="44.5902619" lon="8.5363402"><ele>427.0</ele><time>2026-03-24T09:46:51.814Z</time></trkpt><trkpt lat="44.5903383" lon="8.5362426"><ele>425.0</ele><time>2026-03-24T09:46:53.812Z</time></trkpt><trkpt lat="44.5904084" lon="8.5360863"><ele>423.0</ele><time>2026-03-24T09:46:55.812Z</time></trkpt><trkpt lat="44.5904391" lon="8.5359797"><ele>421.0</ele><time>2026-03-24T09:46:56.815Z</time></trkpt><trkpt lat="44.5904738" lon="8.5358566"><ele>426.0</ele><time>2026-03-24T09:46:57.812Z</time></trkpt><trkpt lat="44.5905131" lon="8.5357236"><ele>431.0</ele><time>2026-03-24T09:46:58.816Z</time></trkpt><trkpt lat="44.590575" lon="8.5356119"><ele>436.0</ele><time>2026-03-24T09:46:59.813Z</time></trkpt><trkpt lat="44.5906649" lon="8.5355176"><ele>441.0</ele><time>2026-03-24T09:47:00.813Z</time></trkpt><trkpt lat="44.5907713" lon="8.5354459"><ele>446.0</ele><time>2026-03-24T09:47:01.815Z</time></trkpt><trkpt lat="44.5908835" lon="8.5353832"><ele>446.99999999999994</ele><time>2026-03-24T09:47:02.813Z</time></trkpt><trkpt lat="44.5909852" lon="8.5353367"><ele>448.0</ele><time>2026-03-24T09:47:03.815Z</time></trkpt><trkpt lat="44.5910667" lon="8.5353234"><ele>449.0</ele><time>2026-03-24T09:47:04.813Z</time></trkpt><trkpt lat="44.5911418" lon="8.5352851"><ele>450.0</ele><time>2026-03-24T09:47:05.813Z</time></trkpt><trkpt lat="44.5912002" lon="8.535226"><ele>450.99999999999994</ele><time>2026-03-24T09:47:07.814Z</time></trkpt><trkpt lat="44.5911855" lon="8.5351357"><ele>452.0</ele><time>2026-03-24T09:47:09.813Z</time></trkpt><trkpt lat="44.5911739" lon="8.5350308"><ele>452.8</ele><time>2026-03-24T09:47:10.814Z</time></trkpt><trkpt lat="44.5911591" lon="8.5349011"><ele>453.6</ele><time>2026-03-24T09:47:11.813Z</time></trkpt><trkpt lat="44.5911439" lon="8.5347408"><ele>454.40000000000003</ele><time>2026-03-24T09:47:12.814Z</time></trkpt><trkpt lat="44.591148" lon="8.5346003"><ele>455.20000000000005</ele><time>2026-03-24T09:47:13.814Z</time></trkpt><trkpt lat="44.5911603" lon="8.5344763"><ele>456.0</ele><time>2026-03-24T09:47:14.816Z</time></trkpt><trkpt lat="44.5911751" lon="8.534368"><ele>459.8</ele><time>2026-03-24T09:47:15.814Z</time></trkpt><trkpt lat="44.591208" lon="8.53425"><ele>463.6</ele><time>2026-03-24T09:47:17.813Z</time></trkpt><trkpt lat="44.5912632" lon="8.5341578"><ele>467.4</ele><time>2026-03-24T09:47:41.813Z</time></trkpt><trkpt lat="44.5913529" lon="8.5340252"><ele>471.2</ele><time>2026-03-24T09:47:43.813Z</time></trkpt><trkpt lat="44.591402" lon="8.5339396"><ele>475.0</ele><time>2026-03-24T09:47:44.813Z</time></trkpt><trkpt lat="44.5914513" lon="8.5338463"><ele>475.0</ele><time>2026-03-24T09:47:45.812Z</time></trkpt><trkpt lat="44.5915121" lon="8.5337243"><ele>475.0</ele><time>2026-03-24T09:47:46.814Z</time></trkpt><trkpt lat="44.5915763" lon="8.5336133"><ele>475.0</ele><time>2026-03-24T09:47:47.813Z</time></trkpt><trkpt lat="44.5916425" lon="8.5335082"><ele>475.0</ele><time>2026-03-24T09:47:48.814Z</time></trkpt><trkpt lat="44.5917408" lon="8.5334192"><ele>475.0</ele><time>2026-03-24T09:47:50.813Z</time></trkpt><trkpt lat="44.5918549" lon="8.5334278"><ele>476.33333333333337</ele><time>2026-03-24T09:47:52.813Z</time></trkpt><trkpt lat="44.5919264" lon="8.5334239"><ele>477.6666666666667</ele><time>2026-03-24T09:47:53.812Z</time></trkpt><trkpt lat="44.5920119" lon="8.5333933"><ele>479.0</ele><time>2026-03-24T09:47:54.813Z</time></trkpt><trkpt lat="44.5920856" lon="8.533347"><ele>480.33333333333337</ele><time>2026-03-24T09:47:55.813Z</time></trkpt><trkpt lat="44.5921641" lon="8.5332503"><ele>481.6666666666667</ele><time>2026-03-24T09:47:56.812Z</time></trkpt><trkpt lat="44.5922371" lon="8.5331617"><ele>483.0</ele><time>2026-03-24T09:47:57.812Z</time></trkpt><trkpt lat="44.5923116" lon="8.5330936"><ele>483.0</ele><time>2026-03-24T09:47:58.812Z</time></trkpt><trkpt lat="44.5923801" lon="8.5330511"><ele>483.0</ele><time>2026-03-24T09:47:59.813Z</time></trkpt><trkpt lat="44.5924469" lon="8.5330192"><ele>483.0</ele><time>2026-03-24T09:48:00.813Z</time></trkpt><trkpt lat="44.5925104" lon="8.5329819"><ele>483.0</ele><time>2026-03-24T09:48:01.812Z</time></trkpt><trkpt lat="44.5925821" lon="8.5329339"><ele>483.0</ele><time>2026-03-24T09:48:02.812Z</time></trkpt><trkpt lat="44.5926605" lon="8.5328728"><ele>483.0</ele><time>2026-03-24T09:48:03.812Z</time></trkpt><trkpt lat="44.5927373" lon="8.5328085"><ele>482.6666666666667</ele><time>2026-03-24T09:48:04.812Z</time></trkpt><trkpt lat="44.5928038" lon="8.5327462"><ele>482.33333333333337</ele><time>2026-03-24T09:48:05.814Z</time></trkpt><trkpt lat="44.5928685" lon="8.5326911"><ele>482.0</ele><time>2026-03-24T09:48:06.812Z</time></trkpt><trkpt lat="44.5929242" lon="8.5326426"><ele>481.6666666666667</ele><time>2026-03-24T09:48:07.814Z</time></trkpt><trkpt lat="44.5930032" lon="8.5325428"><ele>481.33333333333337</ele><time>2026-03-24T09:48:09.813Z</time></trkpt><trkpt lat="44.5930544" lon="8.5324081"><ele>481.0</ele><time>2026-03-24T09:48:11.814Z</time></trkpt><trkpt lat="44.5930705" lon="8.5323154"><ele>481.00000000000006</ele><time>2026-03-24T09:48:12.812Z</time></trkpt><trkpt lat="44.5930778" lon="8.5322162"><ele>481.0</ele><time>2026-03-24T09:48:13.813Z</time></trkpt><trkpt lat="44.5930712" lon="8.532119"><ele>481.0</ele><time>2026-03-24T09:48:14.813Z</time></trkpt><trkpt lat="44.5930733" lon="8.5320082"><ele>481.0</ele><time>2026-03-24T09:48:15.812Z</time></trkpt><trkpt lat="44.5930812" lon="8.531901"><ele>481.00000000000006</ele><time>2026-03-24T09:48:16.815Z</time></trkpt><trkpt lat="44.5930933" lon="8.5317938"><ele>481.0</ele><time>2026-03-24T09:48:17.813Z</time></trkpt><trkpt lat="44.5931084" lon="8.5316757"><ele>482.6666666666667</ele><time>2026-03-24T09:48:18.814Z</time></trkpt><trkpt lat="44.5931233" lon="8.5315679"><ele>484.33333333333337</ele><time>2026-03-24T09:48:19.813Z</time></trkpt><trkpt lat="44.5931377" lon="8.531455"><ele>486.0</ele><time>2026-03-24T09:48:20.814Z</time></trkpt><trkpt lat="44.5931503" lon="8.5313596"><ele>487.66666666666663</ele><time>2026-03-24T09:48:21.813Z</time></trkpt><trkpt lat="44.593165" lon="8.5311969"><ele>489.3333333333333</ele><time>2026-03-24T09:48:23.813Z</time></trkpt><trkpt lat="44.5931666" lon="8.5311035"><ele>491.0</ele><time>2026-03-24T09:48:26.813Z</time></trkpt><trkpt lat="44.5932161" lon="8.5310078"><ele>493.4</ele><time>2026-03-24T09:48:38.814Z</time></trkpt><trkpt lat="44.5933031" lon="8.5309092"><ele>495.8</ele><time>2026-03-24T09:48:40.816Z</time></trkpt><trkpt lat="44.5933808" lon="8.530881"><ele>498.19999999999993</ele><time>2026-03-24T09:48:41.814Z</time></trkpt><trkpt lat="44.5934787" lon="8.5308524"><ele>500.59999999999997</ele><time>2026-03-24T09:48:42.816Z</time></trkpt><trkpt lat="44.5935693" lon="8.5308557"><ele>503.0</ele><time>2026-03-24T09:48:43.813Z</time></trkpt><trkpt lat="44.5936633" lon="8.5308701"><ele>501.79999999999995</ele><time>2026-03-24T09:48:44.814Z</time></trkpt><trkpt lat="44.5937598" lon="8.5309011"><ele>500.59999999999997</ele><time>2026-03-24T09:48:45.814Z</time></trkpt><trkpt lat="44.5938509" lon="8.5309607"><ele>499.40000000000003</ele><time>2026-03-24T09:48:46.812Z</time></trkpt><trkpt lat="44.5939388" lon="8.5310237"><ele>498.20000000000005</ele><time>2026-03-24T09:48:47.813Z</time></trkpt><trkpt lat="44.5940365" lon="8.531079"><ele>497.0</ele><time>2026-03-24T09:48:48.815Z</time></trkpt><trkpt lat="44.5941253" lon="8.5311328"><ele>497.0</ele><time>2026-03-24T09:48:49.812Z</time></trkpt><trkpt lat="44.5942258" lon="8.5311911"><ele>497.0</ele><time>2026-03-24T09:48:50.814Z</time></trkpt><trkpt lat="44.5943255" lon="8.5312396"><ele>497.0</ele><time>2026-03-24T09:48:51.814Z</time></trkpt><trkpt lat="44.5944294" lon="8.5312709"><ele>497.0</ele><time>2026-03-24T09:48:52.813Z</time></trkpt><trkpt lat="44.594561" lon="8.5312942"><ele>497.0</ele><time>2026-03-24T09:48:53.813Z</time></trkpt><trkpt lat="44.5947038" lon="8.5313221"><ele>497.0</ele><time>2026-03-24T09:48:54.813Z</time></trkpt><trkpt lat="44.5948501" lon="8.5313618"><ele>497.0</ele><time>2026-03-24T09:48:55.812Z</time></trkpt><trkpt lat="44.5949989" lon="8.5314089"><ele>497.0</ele><time>2026-03-24T09:48:56.813Z</time></trkpt><trkpt lat="44.5951403" lon="8.5314576"><ele>497.0</ele><time>2026-03-24T09:48:57.813Z</time></trkpt><trkpt lat="44.5952601" lon="8.5315222"><ele>497.00000000000006</ele><time>2026-03-24T09:48:58.813Z</time></trkpt><trkpt lat="44.5953679" lon="8.5315975"><ele>497.00000000000006</ele><time>2026-03-24T09:48:59.813Z</time></trkpt><trkpt lat="44.595462" lon="8.5316819"><ele>497.0</ele><time>2026-03-24T09:49:00.813Z</time></trkpt><trkpt lat="44.5955339" lon="8.5317492"><ele>497.0</ele><time>2026-03-24T09:49:01.814Z</time></trkpt><trkpt lat="44.5955894" lon="8.5318117"><ele>498.6</ele><time>2026-03-24T09:49:02.814Z</time></trkpt><trkpt lat="44.5956493" lon="8.5319526"><ele>500.20000000000005</ele><time>2026-03-24T09:49:04.814Z</time></trkpt><trkpt lat="44.5957007" lon="8.5321375"><ele>501.8</ele><time>2026-03-24T09:49:06.815Z</time></trkpt><trkpt lat="44.5957311" lon="8.5322471"><ele>503.4</ele><time>2026-03-24T09:49:07.815Z</time></trkpt><trkpt lat="44.5957498" lon="8.5323716"><ele>505.0</ele><time>2026-03-24T09:49:08.814Z</time></trkpt><trkpt lat="44.5957458" lon="8.5325148"><ele>505.0</ele><time>2026-03-24T09:49:09.814Z</time></trkpt><trkpt lat="44.5957345" lon="8.5326506"><ele>505.0</ele><time>2026-03-24T09:49:10.813Z</time></trkpt><trkpt lat="44.5957171" lon="8.5327758"><ele>505.0</ele><time>2026-03-24T09:49:11.813Z</time></trkpt><trkpt lat="44.5956919" lon="8.5328954"><ele>505.0</ele><time>2026-03-24T09:49:12.814Z</time></trkpt><trkpt lat="44.5956829" lon="8.532991"><ele>505.0</ele><time>2026-03-24T09:49:13.814Z</time></trkpt><trkpt lat="44.5957642" lon="8.5331164"><ele>502.83333333333337</ele><time>2026-03-24T09:49:15.814Z</time></trkpt><trkpt lat="44.5958568" lon="8.5331507"><ele>500.6666666666667</ele><time>2026-03-24T09:49:16.812Z</time></trkpt><trkpt lat="44.5959474" lon="8.5331494"><ele>498.5</ele><time>2026-03-24T09:49:17.814Z</time></trkpt><trkpt lat="44.5960227" lon="8.5331316"><ele>496.33333333333337</ele><time>2026-03-24T09:49:18.811Z</time></trkpt><trkpt lat="44.5961033" lon="8.5330825"><ele>494.1666666666667</ele><time>2026-03-24T09:49:19.811Z</time></trkpt><trkpt lat="44.5961802" lon="8.5330347"><ele>492.0</ele><time>2026-03-24T09:49:20.812Z</time></trkpt><trkpt lat="44.5962471" lon="8.533"><ele>491.8</ele><time>2026-03-24T09:49:21.811Z</time></trkpt><trkpt lat="44.5963207" lon="8.5329746"><ele>491.6</ele><time>2026-03-24T09:49:22.814Z</time></trkpt><trkpt lat="44.5964233" lon="8.5329748"><ele>491.40000000000003</ele><time>2026-03-24T09:49:24.812Z</time></trkpt><trkpt lat="44.5965144" lon="8.5329991"><ele>491.20000000000005</ele><time>2026-03-24T09:49:48.812Z</time></trkpt><trkpt lat="44.5965782" lon="8.5329261"><ele>491.0</ele><time>2026-03-24T09:49:50.812Z</time></trkpt><trkpt lat="44.5966864" lon="8.5328272"><ele>490.0</ele><time>2026-03-24T09:49:52.813Z</time></trkpt><trkpt lat="44.5967621" lon="8.5327459"><ele>489.0</ele><time>2026-03-24T09:49:53.814Z</time></trkpt><trkpt lat="44.5968564" lon="8.5326277"><ele>488.0</ele><time>2026-03-24T09:49:54.813Z</time></trkpt><trkpt lat="44.5969642" lon="8.5325132"><ele>487.0</ele><time>2026-03-24T09:49:55.814Z</time></trkpt><trkpt lat="44.5970653" lon="8.5324006"><ele>487.0</ele><time>2026-03-24T09:49:56.814Z</time></trkpt><trkpt lat="44.5971639" lon="8.5322819"><ele>487.00000000000006</ele><time>2026-03-24T09:49:57.813Z</time></trkpt><trkpt lat="44.5972592" lon="8.5321873"><ele>487.00000000000006</ele><time>2026-03-24T09:49:58.814Z</time></trkpt><trkpt lat="44.5973479" lon="8.5321087"><ele>487.0</ele><time>2026-03-24T09:49:59.813Z</time></trkpt><trkpt lat="44.5974365" lon="8.5320675"><ele>487.0</ele><time>2026-03-24T09:50:00.814Z</time></trkpt><trkpt lat="44.5975241" lon="8.532038"><ele>487.00000000000006</ele><time>2026-03-24T09:50:01.813Z</time></trkpt><trkpt lat="44.5975985" lon="8.5320408"><ele>487.0</ele><time>2026-03-24T09:50:02.814Z</time></trkpt><trkpt lat="44.5976785" lon="8.5320515"><ele>487.0</ele><time>2026-03-24T09:50:03.813Z</time></trkpt><trkpt lat="44.5977739" lon="8.5320589"><ele>487.0</ele><time>2026-03-24T09:50:04.813Z</time></trkpt><trkpt lat="44.5978626" lon="8.53209"><ele>487.00000000000006</ele><time>2026-03-24T09:50:05.815Z</time></trkpt><trkpt lat="44.5979442" lon="8.5321212"><ele>487.0</ele><time>2026-03-24T09:50:06.813Z</time></trkpt><trkpt lat="44.5980102" lon="8.5321345"><ele>488.1666666666667</ele><time>2026-03-24T09:50:07.813Z</time></trkpt><trkpt lat="44.5980815" lon="8.5321374"><ele>489.33333333333337</ele><time>2026-03-24T09:50:08.813Z</time></trkpt><trkpt lat="44.5981571" lon="8.5321281"><ele>490.5</ele><time>2026-03-24T09:50:09.813Z</time></trkpt><trkpt lat="44.5982462" lon="8.5321121"><ele>491.66666666666663</ele><time>2026-03-24T09:50:10.813Z</time></trkpt><trkpt lat="44.5983434" lon="8.5320777"><ele>492.8333333333333</ele><time>2026-03-24T09:50:11.814Z</time></trkpt><trkpt lat="44.5984322" lon="8.5320422"><ele>494.0</ele><time>2026-03-24T09:50:12.813Z</time></trkpt><trkpt lat="44.5984998" lon="8.532009"><ele>494.66666666666663</ele><time>2026-03-24T09:50:13.814Z</time></trkpt><trkpt lat="44.5985789" lon="8.5319201"><ele>495.3333333333333</ele><time>2026-03-24T09:50:15.813Z</time></trkpt><trkpt lat="44.598635" lon="8.5317845"><ele>496.0</ele><time>2026-03-24T09:50:17.813Z</time></trkpt><trkpt lat="44.5986743" lon="8.5317144"><ele>496.66666666666663</ele><time>2026-03-24T09:50:18.814Z</time></trkpt><trkpt lat="44.5987137" lon="8.5316276"><ele>497.3333333333333</ele><time>2026-03-24T09:50:19.813Z</time></trkpt><trkpt lat="44.5987542" lon="8.5315328"><ele>498.0</ele><time>2026-03-24T09:50:20.813Z</time></trkpt><trkpt lat="44.5987902" lon="8.5314317"><ele>498.0</ele><time>2026-03-24T09:50:21.814Z</time></trkpt><trkpt lat="44.5988112" lon="8.5313311"><ele>498.0</ele><time>2026-03-24T09:50:22.813Z</time></trkpt><trkpt lat="44.5988267" lon="8.5312275"><ele>498.0</ele><time>2026-03-24T09:50:23.815Z</time></trkpt><trkpt lat="44.5988416" lon="8.531132"><ele>498.0</ele><time>2026-03-24T09:50:24.813Z</time></trkpt><trkpt lat="44.5988584" lon="8.530985"><ele>498.0</ele><time>2026-03-24T09:50:25.815Z</time></trkpt><trkpt lat="44.5988542" lon="8.5308784"><ele>498.0</ele><time>2026-03-24T09:50:26.813Z</time></trkpt><trkpt lat="44.5988391" lon="8.5307826"><ele>499.6666666666667</ele><time>2026-03-24T09:50:27.813Z</time></trkpt><trkpt lat="44.5987766" lon="8.5306413"><ele>501.33333333333337</ele><time>2026-03-24T09:50:29.814Z</time></trkpt><trkpt lat="44.5987218" lon="8.5305504"><ele>503.0</ele><time>2026-03-24T09:50:31.814Z</time></trkpt><trkpt lat="44.5987905" lon="8.5306029"><ele>504.6666666666667</ele><time>2026-03-24T09:50:38.813Z</time></trkpt><trkpt lat="44.59888" lon="8.5306327"><ele>506.33333333333337</ele><time>2026-03-24T09:50:44.813Z</time></trkpt><trkpt lat="44.5989509" lon="8.5306218"><ele>508.0</ele><time>2026-03-24T09:50:46.813Z</time></trkpt><trkpt lat="44.5990193" lon="8.5305861"><ele>508.0</ele><time>2026-03-24T09:50:47.813Z</time></trkpt><trkpt lat="44.599104" lon="8.5305384"><ele>507.99999999999994</ele><time>2026-03-24T09:50:48.814Z</time></trkpt><trkpt lat="44.5992069" lon="8.530463"><ele>507.99999999999994</ele><time>2026-03-24T09:50:49.814Z</time></trkpt><trkpt lat="44.5992941" lon="8.530388"><ele>508.0</ele><time>2026-03-24T09:50:50.813Z</time></trkpt><trkpt lat="44.5993696" lon="8.5302957"><ele>508.0</ele><time>2026-03-24T09:50:51.815Z</time></trkpt><trkpt lat="44.5994117" lon="8.5302052"><ele>509.79999999999995</ele><time>2026-03-24T09:50:52.815Z</time></trkpt><trkpt lat="44.5994351" lon="8.5300656"><ele>511.59999999999997</ele><time>2026-03-24T09:50:53.813Z</time></trkpt><trkpt lat="44.599442" lon="8.529919"><ele>513.4000000000001</ele><time>2026-03-24T09:50:54.814Z</time></trkpt><trkpt lat="44.5994343" lon="8.5297986"><ele>515.2</ele><time>2026-03-24T09:50:55.813Z</time></trkpt><trkpt lat="44.5994259" lon="8.5296922"><ele>517.0</ele><time>2026-03-24T09:50:56.814Z</time></trkpt><trkpt lat="44.599406" lon="8.5295779"><ele>517.5</ele><time>2026-03-24T09:50:58.813Z</time></trkpt><trkpt lat="44.5993623" lon="8.5294974"><ele>518.0</ele><time>2026-03-24T09:51:01.813Z</time></trkpt><trkpt lat="44.5993359" lon="8.5293854"><ele>518.5</ele><time>2026-03-24T09:51:04.814Z</time></trkpt><trkpt lat="44.5993361" lon="8.5292609"><ele>519.0</ele><time>2026-03-24T09:51:07.813Z</time></trkpt><trkpt lat="44.5993407" lon="8.5291591"><ele>519.5</ele><time>2026-03-24T09:51:09.813Z</time></trkpt><trkpt lat="44.5993461" lon="8.5290462"><ele>520.0</ele><time>2026-03-24T09:51:11.814Z</time></trkpt><trkpt lat="44.5993422" lon="8.5289462"><ele>520.0</ele><time>2026-03-24T09:51:13.816Z</time></trkpt><trkpt lat="44.5993776" lon="8.5288539"><ele>520.0</ele><time>2026-03-24T09:51:15.814Z</time></trkpt><trkpt lat="44.5994216" lon="8.528723"><ele>520.0</ele><time>2026-03-24T09:51:43.813Z</time></trkpt><trkpt lat="44.5994099" lon="8.5285577"><ele>520.0</ele><time>2026-03-24T09:51:46.815Z</time></trkpt><trkpt lat="44.5994116" lon="8.528469"><ele>520.0</ele><time>2026-03-24T09:51:47.814Z</time></trkpt><trkpt lat="44.5994219" lon="8.5283253"><ele>520.3333333333334</ele><time>2026-03-24T09:51:49.813Z</time></trkpt><trkpt lat="44.5994497" lon="8.5282436"><ele>520.6666666666667</ele><time>2026-03-24T09:51:51.812Z</time></trkpt><trkpt lat="44.5995234" lon="8.5281586"><ele>521.0</ele><time>2026-03-24T09:51:54.813Z</time></trkpt><trkpt lat="44.5995877" lon="8.5281226"><ele>521.3333333333334</ele><time>2026-03-24T09:51:55.813Z</time></trkpt><trkpt lat="44.5996612" lon="8.5280945"><ele>521.6666666666666</ele><time>2026-03-24T09:51:56.812Z</time></trkpt><trkpt lat="44.5997533" lon="8.5280806"><ele>522.0</ele><time>2026-03-24T09:51:57.814Z</time></trkpt><trkpt lat="44.5998574" lon="8.528089"><ele>522.3333333333334</ele><time>2026-03-24T09:51:58.811Z</time></trkpt><trkpt lat="44.5999539" lon="8.5280775"><ele>522.6666666666666</ele><time>2026-03-24T09:51:59.812Z</time></trkpt><trkpt lat="44.6000494" lon="8.5280279"><ele>523.0</ele><time>2026-03-24T09:52:00.812Z</time></trkpt><trkpt lat="44.6001324" lon="8.5279778"><ele>523.3333333333333</ele><time>2026-03-24T09:52:01.812Z</time></trkpt><trkpt lat="44.6001961" lon="8.5279321"><ele>523.6666666666666</ele><time>2026-03-24T09:52:02.812Z</time></trkpt><trkpt lat="44.6002614" lon="8.5278829"><ele>524.0</ele><time>2026-03-24T09:52:03.812Z</time></trkpt><trkpt lat="44.6003223" lon="8.5278272"><ele>523.0</ele><time>2026-03-24T09:52:04.813Z</time></trkpt><trkpt lat="44.6003932" lon="8.5277587"><ele>522.0</ele><time>2026-03-24T09:52:05.812Z</time></trkpt><trkpt lat="44.6004634" lon="8.527691"><ele>521.0</ele><time>2026-03-24T09:52:06.813Z</time></trkpt><trkpt lat="44.6005231" lon="8.5276262"><ele>520.0</ele><time>2026-03-24T09:52:07.812Z</time></trkpt><trkpt lat="44.6005786" lon="8.5275782"><ele>519.0</ele><time>2026-03-24T09:52:08.813Z</time></trkpt><trkpt lat="44.6006666" lon="8.527529"><ele>518.0</ele><time>2026-03-24T09:52:10.813Z</time></trkpt><trkpt lat="44.60073" lon="8.5274565"><ele>518.0</ele><time>2026-03-24T09:52:13.812Z</time></trkpt><trkpt lat="44.6006431" lon="8.5274568"><ele>518.0</ele><time>2026-03-24T09:52:26.812Z</time></trkpt><trkpt lat="44.6005424" lon="8.5275"><ele>518.0</ele><time>2026-03-24T09:52:28.812Z</time></trkpt><trkpt lat="44.6004773" lon="8.5275252"><ele>518.0</ele><time>2026-03-24T09:52:29.813Z</time></trkpt><trkpt lat="44.6004068" lon="8.5275358"><ele>518.0</ele><time>2026-03-24T09:52:30.812Z</time></trkpt><trkpt lat="44.6003358" lon="8.5275297"><ele>518.0</ele><time>2026-03-24T09:52:31.813Z</time></trkpt><trkpt lat="44.6002648" lon="8.527509"><ele>519.1999999999999</ele><time>2026-03-24T09:52:32.813Z</time></trkpt><trkpt lat="44.6001961" lon="8.5274744"><ele>520.4</ele><time>2026-03-24T09:52:33.812Z</time></trkpt><trkpt lat="44.6001444" lon="8.5274201"><ele>521.5999999999999</ele><time>2026-03-24T09:52:34.816Z</time></trkpt><trkpt lat="44.6000621" lon="8.5273251"><ele>522.8</ele><time>2026-03-24T09:52:36.812Z</time></trkpt><trkpt lat="44.5999472" lon="8.5272371"><ele>524.0</ele><time>2026-03-24T09:52:38.813Z</time></trkpt><trkpt lat="44.5998667" lon="8.5271978"><ele>524.0</ele><time>2026-03-24T09:52:39.813Z</time></trkpt><trkpt lat="44.5997836" lon="8.5271508"><ele>524.0</ele><time>2026-03-24T09:52:40.812Z</time></trkpt><trkpt lat="44.5996903" lon="8.5270973"><ele>524.0</ele><time>2026-03-24T09:52:41.812Z</time></trkpt><trkpt lat="44.5995769" lon="8.5270735"><ele>524.0</ele><time>2026-03-24T09:52:42.814Z</time></trkpt><trkpt lat="44.5994711" lon="8.5270665"><ele>524.0</ele><time>2026-03-24T09:52:43.813Z</time></trkpt><trkpt lat="44.5993629" lon="8.5270802"><ele>525.4285714285714</ele><time>2026-03-24T09:52:44.814Z</time></trkpt><trkpt lat="44.5992776" lon="8.5271036"><ele>526.8571428571429</ele><time>2026-03-24T09:52:45.812Z</time></trkpt><trkpt lat="44.59921" lon="8.5271186"><ele>528.2857142857143</ele><time>2026-03-24T09:52:46.812Z</time></trkpt><trkpt lat="44.5991224" lon="8.5271455"><ele>529.7142857142858</ele><time>2026-03-24T09:52:48.813Z</time></trkpt><trkpt lat="44.5990802" lon="8.5272132"><ele>531.1428571428571</ele><time>2026-03-24T09:53:03.813Z</time></trkpt><trkpt lat="44.5990343" lon="8.5272742"><ele>532.5714285714287</ele><time>2026-03-24T09:53:04.813Z</time></trkpt><trkpt lat="44.5989896" lon="8.5273369"><ele>534.0</ele><time>2026-03-24T09:53:05.814Z</time></trkpt><trkpt lat="44.5989389" lon="8.5274143"><ele>534.0</ele><time>2026-03-24T09:53:06.814Z</time></trkpt><trkpt lat="44.598887" lon="8.5275132"><ele>534.0</ele><time>2026-03-24T09:53:07.813Z</time></trkpt><trkpt lat="44.5988406" lon="8.5276094"><ele>534.0</ele><time>2026-03-24T09:53:08.817Z</time></trkpt><trkpt lat="44.5987977" lon="8.5276982"><ele>534.0</ele><time>2026-03-24T09:53:09.813Z</time></trkpt><trkpt lat="44.5987576" lon="8.5277845"><ele>534.0</ele><time>2026-03-24T09:53:10.813Z</time></trkpt><trkpt lat="44.5987227" lon="8.5278629"><ele>534.0</ele><time>2026-03-24T09:53:11.813Z</time></trkpt><trkpt lat="44.5986842" lon="8.527939"><ele>534.6</ele><time>2026-03-24T09:53:12.814Z</time></trkpt><trkpt lat="44.5986439" lon="8.5280128"><ele>535.2</ele><time>2026-03-24T09:53:13.813Z</time></trkpt><trkpt lat="44.5985812" lon="8.5281549"><ele>535.8000000000001</ele><time>2026-03-24T09:53:15.813Z</time></trkpt><trkpt lat="44.598542" lon="8.5282901"><ele>536.4</ele><time>2026-03-24T09:53:17.814Z</time></trkpt><trkpt lat="44.5985037" lon="8.5283929"><ele>537.0</ele><time>2026-03-24T09:53:19.813Z</time></trkpt><trkpt lat="44.598386" lon="8.5284872"><ele>537.0</ele><time>2026-03-24T09:53:21.813Z</time></trkpt><trkpt lat="44.5982979" lon="8.5285261"><ele>537.0</ele><time>2026-03-24T09:53:22.814Z</time></trkpt><trkpt lat="44.598195" lon="8.5285551"><ele>537.0</ele><time>2026-03-24T09:53:23.813Z</time></trkpt><trkpt lat="44.5980977" lon="8.52857"><ele>537.0</ele><time>2026-03-24T09:53:24.812Z</time></trkpt><trkpt lat="44.5980115" lon="8.5285698"><ele>537.0</ele><time>2026-03-24T09:53:25.812Z</time></trkpt><trkpt lat="44.5979468" lon="8.5285649"><ele>537.0</ele><time>2026-03-24T09:53:26.812Z</time></trkpt><trkpt lat="44.5978666" lon="8.5285662"><ele>537.0</ele><time>2026-03-24T09:53:28.812Z</time></trkpt><trkpt lat="44.5978546" lon="8.5286543"><ele>537.0</ele><time>2026-03-24T09:53:47.813Z</time></trkpt><trkpt lat="44.597837" lon="8.5287915"><ele>537.0</ele><time>2026-03-24T09:53:49.814Z</time></trkpt><trkpt lat="44.5978162" lon="8.5289659"><ele>537.0</ele><time>2026-03-24T09:53:51.814Z</time></trkpt><trkpt lat="44.5978025" lon="8.5290552"><ele>537.0</ele><time>2026-03-24T09:53:52.813Z</time></trkpt><trkpt lat="44.5977913" lon="8.5291535"><ele>537.0</ele><time>2026-03-24T09:53:53.812Z</time></trkpt><trkpt lat="44.597777" lon="8.5292478"><ele>540.0</ele><time>2026-03-24T09:53:54.812Z</time></trkpt><trkpt lat="44.5977716" lon="8.5293506"><ele>543.0</ele><time>2026-03-24T09:53:55.813Z</time></trkpt><trkpt lat="44.5977679" lon="8.5294544"><ele>546.0</ele><time>2026-03-24T09:53:56.813Z</time></trkpt><trkpt lat="44.5977641" lon="8.5295637"><ele>549.0</ele><time>2026-03-24T09:53:57.813Z</time></trkpt><trkpt lat="44.5977333" lon="8.529738"><ele>552.0</ele><time>2026-03-24T09:53:59.813Z</time></trkpt><trkpt lat="44.5976621" lon="8.5299102"><ele>552.3333333333334</ele><time>2026-03-24T09:54:01.814Z</time></trkpt><trkpt lat="44.5976106" lon="8.5300006"><ele>552.6666666666666</ele><time>2026-03-24T09:54:02.813Z</time></trkpt><trkpt lat="44.5975536" lon="8.5300865"><ele>553.0</ele><time>2026-03-24T09:54:03.813Z</time></trkpt><trkpt lat="44.5975035" lon="8.5301517"><ele>553.3333333333333</ele><time>2026-03-24T09:54:04.815Z</time></trkpt><trkpt lat="44.5974554" lon="8.5302142"><ele>553.6666666666666</ele><time>2026-03-24T09:54:05.813Z</time></trkpt><trkpt lat="44.5973686" lon="8.5303073"><ele>554.0</ele><time>2026-03-24T09:54:07.813Z</time></trkpt><trkpt lat="44.5972467" lon="8.5303883"><ele>552.1666666666666</ele><time>2026-03-24T09:54:09.814Z</time></trkpt><trkpt lat="44.5971686" lon="8.5304275"><ele>550.3333333333333</ele><time>2026-03-24T09:54:10.813Z</time></trkpt><trkpt lat="44.5970869" lon="8.5304624"><ele>548.5</ele><time>2026-03-24T09:54:11.814Z</time></trkpt><trkpt lat="44.5970056" lon="8.5304916"><ele>546.6666666666666</ele><time>2026-03-24T09:54:12.814Z</time></trkpt><trkpt lat="44.5969249" lon="8.530534"><ele>544.8333333333334</ele><time>2026-03-24T09:54:13.814Z</time></trkpt><trkpt lat="44.5968409" lon="8.5305747"><ele>543.0</ele><time>2026-03-24T09:54:14.814Z</time></trkpt><trkpt lat="44.5967667" lon="8.530628"><ele>543.0</ele><time>2026-03-24T09:54:15.814Z</time></trkpt><trkpt lat="44.5967068" lon="8.5306844"><ele>543.0</ele><time>2026-03-24T09:54:16.813Z</time></trkpt><trkpt lat="44.5966054" lon="8.5307454"><ele>543.0</ele><time>2026-03-24T09:54:18.814Z</time></trkpt><trkpt lat="44.5964952" lon="8.5306729"><ele>543.0</ele><time>2026-03-24T09:54:21.813Z</time></trkpt><trkpt lat="44.5964462" lon="8.5306069"><ele>543.0</ele><time>2026-03-24T09:54:22.815Z</time></trkpt><trkpt lat="44.5963902" lon="8.5305197"><ele>543.0</ele><time>2026-03-24T09:54:24.812Z</time></trkpt><trkpt lat="44.5963246" lon="8.5304971"><ele>543.0</ele><time>2026-03-24T09:54:27.812Z</time></trkpt><trkpt lat="44.5962714" lon="8.5305536"><ele>543.0</ele><time>2026-03-24T09:54:31.814Z</time></trkpt><trkpt lat="44.5962038" lon="8.5306103"><ele>543.0</ele><time>2026-03-24T09:54:52.815Z</time></trkpt><trkpt lat="44.5961436" lon="8.5306518"><ele>543.0</ele><time>2026-03-24T09:54:54.813Z</time></trkpt><trkpt lat="44.5960782" lon="8.5306655"><ele>543.0</ele><time>2026-03-24T09:54:56.814Z</time></trkpt><trkpt lat="44.5959882" lon="8.5306634"><ele>543.0</ele><time>2026-03-24T09:54:58.812Z</time></trkpt><trkpt lat="44.5958821" lon="8.530692"><ele>540.4285714285714</ele><time>2026-03-24T09:55:00.814Z</time></trkpt><trkpt lat="44.5958183" lon="8.5307302"><ele>537.8571428571429</ele><time>2026-03-24T09:55:02.814Z</time></trkpt><trkpt lat="44.5957534" lon="8.5307158"><ele>535.2857142857142</ele><time>2026-03-24T09:55:05.814Z</time></trkpt><trkpt lat="44.5956871" lon="8.5307309"><ele>532.7142857142858</ele><time>2026-03-24T09:55:08.813Z</time></trkpt><trkpt lat="44.5956192" lon="8.5307534"><ele>530.1428571428571</ele><time>2026-03-24T09:55:11.813Z</time></trkpt><trkpt lat="44.5955223" lon="8.5307637"><ele>527.5714285714286</ele><time>2026-03-24T09:55:14.812Z</time></trkpt><trkpt lat="44.595455" lon="8.5307762"><ele>525.0</ele><time>2026-03-24T09:55:16.813Z</time></trkpt><trkpt lat="44.5953924" lon="8.5308147"><ele>521.3333333333334</ele><time>2026-03-24T09:55:18.812Z</time></trkpt><trkpt lat="44.5953125" lon="8.5308319"><ele>517.6666666666666</ele><time>2026-03-24T09:55:21.813Z</time></trkpt><trkpt lat="44.5952556" lon="8.5308709"><ele>514.0</ele><time>2026-03-24T09:55:24.813Z</time></trkpt><trkpt lat="44.5951923" lon="8.5309043"><ele>510.3333333333333</ele><time>2026-03-24T09:55:26.814Z</time></trkpt><trkpt lat="44.5951122" lon="8.5309319"><ele>506.66666666666663</ele><time>2026-03-24T09:55:28.813Z</time></trkpt><trkpt lat="44.5950265" lon="8.531014"><ele>503.0</ele><time>2026-03-24T09:55:30.812Z</time></trkpt><trkpt lat="44.5949532" lon="8.5310761"><ele>503.0</ele><time>2026-03-24T09:55:32.812Z</time></trkpt><trkpt lat="44.5948799" lon="8.5311051"><ele>503.00000000000006</ele><time>2026-03-24T09:55:34.812Z</time></trkpt><trkpt lat="44.594801" lon="8.5311562"><ele>503.0</ele><time>2026-03-24T09:55:36.812Z</time></trkpt><trkpt lat="44.5947446" lon="8.5311992"><ele>503.0</ele><time>2026-03-24T09:55:38.813Z</time></trkpt><trkpt lat="44.5946824" lon="8.531228"><ele>503.00000000000006</ele><time>2026-03-24T09:55:43.813Z</time></trkpt><trkpt lat="44.5946634" lon="8.5311422"><ele>503.0</ele><time>2026-03-24T09:57:06.811Z</time></trkpt><trkpt lat="44.5946263" lon="8.531061"><ele>503.0</ele><time>2026-03-24T09:57:08.812Z</time></trkpt><trkpt lat="44.5945705" lon="8.5310035"><ele>501.99999999999994</ele><time>2026-03-24T09:57:10.812Z</time></trkpt><trkpt lat="44.5944931" lon="8.5309519"><ele>501.0</ele><time>2026-03-24T09:57:12.813Z</time></trkpt><trkpt lat="44.5943823" lon="8.5308984"><ele>500.0</ele><time>2026-03-24T09:57:14.813Z</time></trkpt><trkpt lat="44.594297" lon="8.5308463"><ele>499.0</ele><time>2026-03-24T09:57:16.812Z</time></trkpt><trkpt lat="44.594257" lon="8.5307763"><ele>497.99999999999994</ele><time>2026-03-24T09:57:18.812Z</time></trkpt><trkpt lat="44.5942035" lon="8.5306783"><ele>497.0</ele><time>2026-03-24T09:57:21.811Z</time></trkpt><trkpt lat="44.5941415" lon="8.5306012"><ele>497.0</ele><time>2026-03-24T09:57:24.813Z</time></trkpt><trkpt lat="44.5940489" lon="8.5305443"><ele>497.00000000000006</ele><time>2026-03-24T09:57:27.812Z</time></trkpt><trkpt lat="44.593946" lon="8.5304522"><ele>497.00000000000006</ele><time>2026-03-24T09:57:29.811Z</time></trkpt><trkpt lat="44.5938813" lon="8.5303869"><ele>497.0</ele><time>2026-03-24T09:57:30.812Z</time></trkpt><trkpt lat="44.5938212" lon="8.5303257"><ele>497.0</ele><time>2026-03-24T09:57:31.813Z</time></trkpt><trkpt lat="44.5937492" lon="8.530268"><ele>496.99999999999994</ele><time>2026-03-24T09:57:32.813Z</time></trkpt><trkpt lat="44.5936844" lon="8.5302248"><ele>497.0</ele><time>2026-03-24T09:57:33.813Z</time></trkpt><trkpt lat="44.5936252" lon="8.5301935"><ele>497.0</ele><time>2026-03-24T09:57:34.812Z</time></trkpt><trkpt lat="44.5935363" lon="8.5301625"><ele>497.0</ele><time>2026-03-24T09:57:35.812Z</time></trkpt><trkpt lat="44.5934359" lon="8.5301185"><ele>496.99999999999994</ele><time>2026-03-24T09:57:36.813Z</time></trkpt><trkpt lat="44.5933472" lon="8.5300594"><ele>497.0</ele><time>2026-03-24T09:57:37.812Z</time></trkpt><trkpt lat="44.5932743" lon="8.5299977"><ele>499.57142857142856</ele><time>2026-03-24T09:57:38.813Z</time></trkpt><trkpt lat="44.5932188" lon="8.5299382"><ele>502.1428571428571</ele><time>2026-03-24T09:57:39.813Z</time></trkpt><trkpt lat="44.5931637" lon="8.5298791"><ele>504.7142857142857</ele><time>2026-03-24T09:57:40.813Z</time></trkpt><trkpt lat="44.5931003" lon="8.5298228"><ele>507.2857142857143</ele><time>2026-03-24T09:57:41.813Z</time></trkpt><trkpt lat="44.5930399" lon="8.5297864"><ele>509.85714285714283</ele><time>2026-03-24T09:57:42.814Z</time></trkpt><trkpt lat="44.5929701" lon="8.5297737"><ele>512.4285714285714</ele><time>2026-03-24T09:57:44.814Z</time></trkpt><trkpt lat="44.5929005" lon="8.5298035"><ele>515.0</ele><time>2026-03-24T09:57:46.813Z</time></trkpt><trkpt lat="44.5928335" lon="8.5298367"><ele>516.8571428571429</ele><time>2026-03-24T09:57:50.812Z</time></trkpt><trkpt lat="44.5927602" lon="8.5298773"><ele>518.7142857142857</ele><time>2026-03-24T09:58:08.813Z</time></trkpt><trkpt lat="44.5926874" lon="8.5298933"><ele>520.5714285714286</ele><time>2026-03-24T09:58:11.812Z</time></trkpt><trkpt lat="44.5926156" lon="8.5298699"><ele>522.4285714285714</ele><time>2026-03-24T09:58:15.811Z</time></trkpt><trkpt lat="44.5925549" lon="8.5298446"><ele>524.2857142857143</ele><time>2026-03-24T09:58:19.814Z</time></trkpt><trkpt lat="44.5924949" lon="8.5297854"><ele>526.1428571428571</ele><time>2026-03-24T09:58:23.813Z</time></trkpt><trkpt lat="44.5924169" lon="8.5298089"><ele>528.0</ele><time>2026-03-24T09:58:26.814Z</time></trkpt><trkpt lat="44.5923368" lon="8.5298241"><ele>528.0</ele><time>2026-03-24T09:58:35.811Z</time></trkpt><trkpt lat="44.5922604" lon="8.5298724"><ele>528.0</ele><time>2026-03-24T09:58:38.812Z</time></trkpt><trkpt lat="44.5921991" lon="8.5298999"><ele>528.0</ele><time>2026-03-24T09:58:40.812Z</time></trkpt><trkpt lat="44.5921323" lon="8.5298984"><ele>528.0</ele><time>2026-03-24T09:58:44.813Z</time></trkpt><trkpt lat="44.5920808" lon="8.5298364"><ele>528.0</ele><time>2026-03-24T09:58:48.813Z</time></trkpt><trkpt lat="44.5920416" lon="8.5297556"><ele>528.0</ele><time>2026-03-24T09:58:51.812Z</time></trkpt><trkpt lat="44.5919535" lon="8.5297052"><ele>528.0</ele><time>2026-03-24T09:58:55.813Z</time></trkpt><trkpt lat="44.5918738" lon="8.5296321"><ele>529.1999999999999</ele><time>2026-03-24T09:58:58.813Z</time></trkpt><trkpt lat="44.5918166" lon="8.5295508"><ele>530.4</ele><time>2026-03-24T09:59:01.813Z</time></trkpt><trkpt lat="44.5917274" lon="8.5294435"><ele>531.5999999999999</ele><time>2026-03-24T09:59:11.813Z</time></trkpt><trkpt lat="44.5916755" lon="8.5293901"><ele>532.8</ele><time>2026-03-24T09:59:16.812Z</time></trkpt><trkpt lat="44.5915718" lon="8.529367"><ele>534.0</ele><time>2026-03-24T09:59:28.814Z</time></trkpt><trkpt lat="44.5915728" lon="8.5292381"><ele>534.0</ele><time>2026-03-24T10:01:32.815Z</time></trkpt><trkpt lat="44.5916151" lon="8.5291597"><ele>534.0</ele><time>2026-03-24T10:01:34.813Z</time></trkpt><trkpt lat="44.5916427" lon="8.5290359"><ele>534.0</ele><time>2026-03-24T10:01:37.814Z</time></trkpt><trkpt lat="44.5916355" lon="8.5289445"><ele>534.0</ele><time>2026-03-24T10:01:39.814Z</time></trkpt><trkpt lat="44.591618" lon="8.5288564"><ele>534.0</ele><time>2026-03-24T10:01:41.813Z</time></trkpt><trkpt lat="44.5916005" lon="8.5287372"><ele>534.0</ele><time>2026-03-24T10:01:44.815Z</time></trkpt><trkpt lat="44.5915823" lon="8.5286076"><ele>533.2857142857143</ele><time>2026-03-24T10:01:47.814Z</time></trkpt><trkpt lat="44.5915719" lon="8.5284897"><ele>532.5714285714286</ele><time>2026-03-24T10:01:50.815Z</time></trkpt><trkpt lat="44.5915344" lon="8.5284027"><ele>531.8571428571429</ele><time>2026-03-24T10:01:52.813Z</time></trkpt><trkpt lat="44.5914887" lon="8.5283414"><ele>531.1428571428571</ele><time>2026-03-24T10:01:54.814Z</time></trkpt><trkpt lat="44.5914442" lon="8.5282549"><ele>530.4285714285714</ele><time>2026-03-24T10:01:56.812Z</time></trkpt><trkpt lat="44.5913922" lon="8.5281888"><ele>529.7142857142858</ele><time>2026-03-24T10:01:58.813Z</time></trkpt><trkpt lat="44.5913378" lon="8.5281204"><ele>529.0</ele><time>2026-03-24T10:02:01.814Z</time></trkpt><trkpt lat="44.5913235" lon="8.5280187"><ele>529.0</ele><time>2026-03-24T10:02:04.814Z</time></trkpt><trkpt lat="44.5912816" lon="8.5279038"><ele>529.0</ele><time>2026-03-24T10:02:09.812Z</time></trkpt><trkpt lat="44.5912513" lon="8.527808"><ele>529.0</ele><time>2026-03-24T10:02:11.813Z</time></trkpt><trkpt lat="44.5911974" lon="8.5277254"><ele>529.0</ele><time>2026-03-24T10:02:13.813Z</time></trkpt><trkpt lat="44.5911516" lon="8.5276551"><ele>529.0</ele><time>2026-03-24T10:02:15.812Z</time></trkpt><trkpt lat="44.5911716" lon="8.5278549"><ele>529.0</ele><time>2026-03-24T10:04:21.815Z</time></trkpt><trkpt lat="44.5912451" lon="8.5280007"><ele>529.0</ele><time>2026-03-24T10:04:35.814Z</time></trkpt><trkpt lat="44.5913451" lon="8.5280983"><ele>529.0</ele><time>2026-03-24T10:04:47.816Z</time></trkpt><trkpt lat="44.5914397" lon="8.5282211"><ele>529.0</ele><time>2026-03-24T10:05:00.814Z</time></trkpt><trkpt lat="44.5914626" lon="8.5281051"><ele>529.0</ele><time>2026-03-24T10:07:06.813Z</time></trkpt><trkpt lat="44.5913963" lon="8.5280651"><ele>529.0</ele><time>2026-03-24T10:07:12.815Z</time></trkpt><trkpt lat="44.5912991" lon="8.5280159"><ele>529.0</ele><time>2026-03-24T10:07:31.812Z</time></trkpt><trkpt lat="44.5912336" lon="8.5278715"><ele>529.0</ele><time>2026-03-24T10:07:43.814Z</time></trkpt><trkpt lat="44.5912058" lon="8.5277161"><ele>529.0</ele><time>2026-03-24T10:07:55.813Z</time></trkpt><trkpt lat="44.5911861" lon="8.527629"><ele>530.4</ele><time>2026-03-24T10:08:00.814Z</time></trkpt><trkpt lat="44.5911039" lon="8.5274885"><ele>531.8</ele><time>2026-03-24T10:08:11.813Z</time></trkpt><trkpt lat="44.5910197" lon="8.527408"><ele>533.2</ele><time>2026-03-24T10:08:42.814Z</time></trkpt><trkpt lat="44.5909533" lon="8.5273484"><ele>534.6</ele><time>2026-03-24T10:08:45.813Z</time></trkpt><trkpt lat="44.5908969" lon="8.5272718"><ele>536.0</ele><time>2026-03-24T10:08:48.813Z</time></trkpt><trkpt lat="44.5908222" lon="8.5272093"><ele>536.0</ele><time>2026-03-24T10:08:51.813Z</time></trkpt><trkpt lat="44.5907385" lon="8.5271925"><ele>536.0</ele><time>2026-03-24T10:08:54.812Z</time></trkpt><trkpt lat="44.5906556" lon="8.5271372"><ele>536.0</ele><time>2026-03-24T10:08:57.813Z</time></trkpt><trkpt lat="44.5905973" lon="8.5270992"><ele>536.0</ele><time>2026-03-24T10:08:59.813Z</time></trkpt><trkpt lat="44.5905325" lon="8.5270259"><ele>536.0</ele><time>2026-03-24T10:09:02.814Z</time></trkpt><trkpt lat="44.5905569" lon="8.5269329"><ele>536.0</ele><time>2026-03-24T10:09:04.815Z</time></trkpt><trkpt lat="44.5905888" lon="8.526824"><ele>533.1666666666666</ele><time>2026-03-24T10:09:07.812Z</time></trkpt><trkpt lat="44.5906028" lon="8.5267206"><ele>530.3333333333333</ele><time>2026-03-24T10:09:10.813Z</time></trkpt><trkpt lat="44.5905363" lon="8.5266482"><ele>527.5</ele><time>2026-03-24T10:09:13.814Z</time></trkpt><trkpt lat="44.5904602" lon="8.5266106"><ele>524.6666666666666</ele><time>2026-03-24T10:09:15.814Z</time></trkpt><trkpt lat="44.5903655" lon="8.5265864"><ele>521.8333333333334</ele><time>2026-03-24T10:09:17.815Z</time></trkpt><trkpt lat="44.5902991" lon="8.526581"><ele>519.0</ele><time>2026-03-24T10:09:19.812Z</time></trkpt><trkpt lat="44.5902137" lon="8.5265811"><ele>516.0</ele><time>2026-03-24T10:09:21.812Z</time></trkpt><trkpt lat="44.5901429" lon="8.5265666"><ele>513.0</ele><time>2026-03-24T10:09:23.812Z</time></trkpt><trkpt lat="44.5900722" lon="8.5265518"><ele>510.0</ele><time>2026-03-24T10:09:25.814Z</time></trkpt><trkpt lat="44.5899806" lon="8.5265502"><ele>507.0</ele><time>2026-03-24T10:09:27.813Z</time></trkpt><trkpt lat="44.5898811" lon="8.5265468"><ele>504.0</ele><time>2026-03-24T10:09:29.813Z</time></trkpt><trkpt lat="44.5898101" lon="8.5265193"><ele>501.0</ele><time>2026-03-24T10:09:31.814Z</time></trkpt><trkpt lat="44.5897294" lon="8.5264439"><ele>501.0</ele><time>2026-03-24T10:09:34.816Z</time></trkpt><trkpt lat="44.5896663" lon="8.5264022"><ele>501.0</ele><time>2026-03-24T10:09:36.814Z</time></trkpt><trkpt lat="44.5896072" lon="8.5263538"><ele>501.0</ele><time>2026-03-24T10:09:39.813Z</time></trkpt><trkpt lat="44.5895424" lon="8.5263381"><ele>501.0</ele><time>2026-03-24T10:09:44.812Z</time></trkpt><trkpt lat="44.589433" lon="8.5263035"><ele>501.0</ele><time>2026-03-24T10:11:40.812Z</time></trkpt><trkpt lat="44.5893397" lon="8.5262943"><ele>501.0</ele><time>2026-03-24T10:11:41.813Z</time></trkpt><trkpt lat="44.5892162" lon="8.5262722"><ele>497.0</ele><time>2026-03-24T10:11:42.812Z</time></trkpt><trkpt lat="44.5890963" lon="8.526257"><ele>493.0</ele><time>2026-03-24T10:11:43.812Z</time></trkpt><trkpt lat="44.5889891" lon="8.5262392"><ele>489.0</ele><time>2026-03-24T10:11:44.812Z</time></trkpt><trkpt lat="44.5888917" lon="8.5262097"><ele>485.0</ele><time>2026-03-24T10:11:45.812Z</time></trkpt><trkpt lat="44.5888117" lon="8.5261694"><ele>481.0</ele><time>2026-03-24T10:11:46.813Z</time></trkpt><trkpt lat="44.5887411" lon="8.5261463"><ele>479.4</ele><time>2026-03-24T10:11:47.812Z</time></trkpt><trkpt lat="44.5886763" lon="8.5261401"><ele>477.8</ele><time>2026-03-24T10:11:48.812Z</time></trkpt><trkpt lat="44.5885732" lon="8.5260982"><ele>476.19999999999993</ele><time>2026-03-24T10:11:50.813Z</time></trkpt><trkpt lat="44.5885066" lon="8.5259737"><ele>474.59999999999997</ele><time>2026-03-24T10:11:52.813Z</time></trkpt><trkpt lat="44.5884389" lon="8.5258384"><ele>473.0</ele><time>2026-03-24T10:11:54.812Z</time></trkpt><trkpt lat="44.5883736" lon="8.5257418"><ele>471.8333333333333</ele><time>2026-03-24T10:11:56.813Z</time></trkpt><trkpt lat="44.5882992" lon="8.5257565"><ele>470.66666666666663</ele><time>2026-03-24T10:11:59.812Z</time></trkpt><trkpt lat="44.5882858" lon="8.525891"><ele>469.5</ele><time>2026-03-24T10:12:02.814Z</time></trkpt><trkpt lat="44.5882243" lon="8.5259312"><ele>468.33333333333337</ele><time>2026-03-24T10:12:05.813Z</time></trkpt><trkpt lat="44.5881669" lon="8.5258657"><ele>467.1666666666667</ele><time>2026-03-24T10:12:07.814Z</time></trkpt><trkpt lat="44.5881291" lon="8.5257759"><ele>466.0</ele><time>2026-03-24T10:12:09.813Z</time></trkpt><trkpt lat="44.5880843" lon="8.5256559"><ele>466.00000000000006</ele><time>2026-03-24T10:12:11.813Z</time></trkpt><trkpt lat="44.5880226" lon="8.525551"><ele>466.0</ele><time>2026-03-24T10:12:13.814Z</time></trkpt><trkpt lat="44.5879673" lon="8.5254643"><ele>466.0</ele><time>2026-03-24T10:12:15.814Z</time></trkpt><trkpt lat="44.5879736" lon="8.5253691"><ele>466.0</ele><time>2026-03-24T10:12:17.813Z</time></trkpt><trkpt lat="44.5880181" lon="8.5252827"><ele>466.00000000000006</ele><time>2026-03-24T10:12:19.812Z</time></trkpt><trkpt lat="44.5880474" lon="8.5251978"><ele>466.0</ele><time>2026-03-24T10:12:21.812Z</time></trkpt><trkpt lat="44.5880562" lon="8.5250988"><ele>464.50000000000006</ele><time>2026-03-24T10:12:23.815Z</time></trkpt><trkpt lat="44.5880368" lon="8.5249883"><ele>463.0</ele><time>2026-03-24T10:12:25.815Z</time></trkpt><trkpt lat="44.5880528" lon="8.5248945"><ele>461.5</ele><time>2026-03-24T10:12:27.814Z</time></trkpt><trkpt lat="44.5881035" lon="8.524832"><ele>460.0</ele><time>2026-03-24T10:12:29.814Z</time></trkpt><trkpt lat="44.5881731" lon="8.524775"><ele>458.50000000000006</ele><time>2026-03-24T10:12:31.815Z</time></trkpt><trkpt lat="44.5882636" lon="8.5247466"><ele>457.0</ele><time>2026-03-24T10:12:33.814Z</time></trkpt><trkpt lat="44.5883805" lon="8.524712"><ele>457.00000000000006</ele><time>2026-03-24T10:12:35.814Z</time></trkpt><trkpt lat="44.5884871" lon="8.5246597"><ele>457.0</ele><time>2026-03-24T10:12:37.815Z</time></trkpt><trkpt lat="44.5885459" lon="8.5245725"><ele>457.0</ele><time>2026-03-24T10:12:39.815Z</time></trkpt><trkpt lat="44.5885682" lon="8.5244864"><ele>457.0</ele><time>2026-03-24T10:12:41.814Z</time></trkpt><trkpt lat="44.588596" lon="8.524365"><ele>457.00000000000006</ele><time>2026-03-24T10:12:44.815Z</time></trkpt><trkpt lat="44.5885934" lon="8.5242664"><ele>457.0</ele><time>2026-03-24T10:12:46.815Z</time></trkpt><trkpt lat="44.5886139" lon="8.5241638"><ele>455.0</ele><time>2026-03-24T10:12:48.814Z</time></trkpt><trkpt lat="44.5886967" lon="8.5240995"><ele>453.00000000000006</ele><time>2026-03-24T10:12:51.816Z</time></trkpt><trkpt lat="44.5887946" lon="8.5241157"><ele>451.00000000000006</ele><time>2026-03-24T10:12:53.814Z</time></trkpt><trkpt lat="44.588858" lon="8.5241203"><ele>449.0</ele><time>2026-03-24T10:12:54.813Z</time></trkpt><trkpt lat="44.5889738" lon="8.5241067"><ele>447.0</ele><time>2026-03-24T10:12:56.815Z</time></trkpt><trkpt lat="44.5890662" lon="8.5240945"><ele>447.0</ele><time>2026-03-24T10:12:58.815Z</time></trkpt><trkpt lat="44.5891363" lon="8.5240657"><ele>447.0</ele><time>2026-03-24T10:13:01.815Z</time></trkpt><trkpt lat="44.5891713" lon="8.5239408"><ele>447.0</ele><time>2026-03-24T10:13:46.814Z</time></trkpt><trkpt lat="44.5891202" lon="8.523885"><ele>447.0</ele><time>2026-03-24T10:13:49.815Z</time></trkpt><trkpt lat="44.5890845" lon="8.5237953"><ele>447.0</ele><time>2026-03-24T10:13:53.814Z</time></trkpt><trkpt lat="44.5890053" lon="8.5236949"><ele>447.0</ele><time>2026-03-24T10:14:03.814Z</time></trkpt><trkpt lat="44.5888769" lon="8.5235815"><ele>444.0</ele><time>2026-03-24T10:14:05.814Z</time></trkpt><trkpt lat="44.588754" lon="8.5234899"><ele>441.0</ele><time>2026-03-24T10:14:06.813Z</time></trkpt><trkpt lat="44.5886217" lon="8.5234017"><ele>438.0</ele><time>2026-03-24T10:14:07.813Z</time></trkpt><trkpt lat="44.5884928" lon="8.52333"><ele>435.0</ele><time>2026-03-24T10:14:08.813Z</time></trkpt><trkpt lat="44.5883664" lon="8.5232919"><ele>434.6</ele><time>2026-03-24T10:14:09.813Z</time></trkpt><trkpt lat="44.5882503" lon="8.5232516"><ele>434.2</ele><time>2026-03-24T10:14:10.813Z</time></trkpt><trkpt lat="44.5881568" lon="8.5232146"><ele>433.79999999999995</ele><time>2026-03-24T10:14:11.814Z</time></trkpt><trkpt lat="44.5880676" lon="8.5231614"><ele>433.4</ele><time>2026-03-24T10:14:12.813Z</time></trkpt><trkpt lat="44.5879852" lon="8.523106"><ele>433.0</ele><time>2026-03-24T10:14:13.813Z</time></trkpt><trkpt lat="44.5879129" lon="8.5230535"><ele>433.00000000000006</ele><time>2026-03-24T10:14:14.814Z</time></trkpt><trkpt lat="44.5878608" lon="8.5229864"><ele>433.0</ele><time>2026-03-24T10:14:15.813Z</time></trkpt><trkpt lat="44.5878094" lon="8.5228403"><ele>433.0</ele><time>2026-03-24T10:14:17.813Z</time></trkpt><trkpt lat="44.5878026" lon="8.5227367"><ele>433.0</ele><time>2026-03-24T10:14:18.814Z</time></trkpt><trkpt lat="44.5878111" lon="8.5226158"><ele>433.00000000000006</ele><time>2026-03-24T10:14:19.814Z</time></trkpt><trkpt lat="44.5878148" lon="8.5224908"><ele>433.0</ele><time>2026-03-24T10:14:20.814Z</time></trkpt><trkpt lat="44.5878347" lon="8.5223217"><ele>433.2</ele><time>2026-03-24T10:14:21.813Z</time></trkpt><trkpt lat="44.5878516" lon="8.522176"><ele>433.4</ele><time>2026-03-24T10:14:22.813Z</time></trkpt><trkpt lat="44.5878788" lon="8.5220113"><ele>433.59999999999997</ele><time>2026-03-24T10:14:23.814Z</time></trkpt><trkpt lat="44.5878264" lon="8.5218951"><ele>433.79999999999995</ele><time>2026-03-24T10:14:25.813Z</time></trkpt><trkpt lat="44.5877486" lon="8.5218447"><ele>434.0</ele><time>2026-03-24T10:14:27.813Z</time></trkpt><trkpt lat="44.5876615" lon="8.5218411"><ele>436.8333333333333</ele><time>2026-03-24T10:14:29.814Z</time></trkpt><trkpt lat="44.5875775" lon="8.5218264"><ele>439.66666666666663</ele><time>2026-03-24T10:14:31.814Z</time></trkpt><trkpt lat="44.5874893" lon="8.5217195"><ele>442.5</ele><time>2026-03-24T10:14:45.813Z</time></trkpt><trkpt lat="44.587474" lon="8.5216131"><ele>445.33333333333337</ele><time>2026-03-24T10:14:46.815Z</time></trkpt><trkpt lat="44.58747" lon="8.5215018"><ele>448.1666666666667</ele><time>2026-03-24T10:14:47.813Z</time></trkpt><trkpt lat="44.5874794" lon="8.5213862"><ele>451.0</ele><time>2026-03-24T10:14:48.814Z</time></trkpt><trkpt lat="44.5874897" lon="8.5212769"><ele>453.1666666666667</ele><time>2026-03-24T10:14:49.815Z</time></trkpt><trkpt lat="44.5874992" lon="8.5211771"><ele>455.33333333333337</ele><time>2026-03-24T10:14:50.815Z</time></trkpt><trkpt lat="44.587508" lon="8.5210756"><ele>457.5</ele><time>2026-03-24T10:14:51.813Z</time></trkpt><trkpt lat="44.5875074" lon="8.5209755"><ele>459.66666666666663</ele><time>2026-03-24T10:14:52.813Z</time></trkpt><trkpt lat="44.5875001" lon="8.5208741"><ele>461.8333333333333</ele><time>2026-03-24T10:14:53.813Z</time></trkpt><trkpt lat="44.5874842" lon="8.5207823"><ele>464.0</ele><time>2026-03-24T10:14:54.815Z</time></trkpt><trkpt lat="44.5874903" lon="8.5205879"><ele>463.99999999999994</ele><time>2026-03-24T10:14:56.813Z</time></trkpt><trkpt lat="44.5875158" lon="8.5204766"><ele>464.0</ele><time>2026-03-24T10:14:57.813Z</time></trkpt><trkpt lat="44.5875499" lon="8.5203872"><ele>464.0</ele><time>2026-03-24T10:14:58.813Z</time></trkpt><trkpt lat="44.5875908" lon="8.5203132"><ele>464.0</ele><time>2026-03-24T10:14:59.813Z</time></trkpt><trkpt lat="44.587662" lon="8.5202121"><ele>463.99999999999994</ele><time>2026-03-24T10:15:01.814Z</time></trkpt><trkpt lat="44.5876697" lon="8.5201048"><ele>464.0</ele><time>2026-03-24T10:15:03.812Z</time></trkpt><trkpt lat="44.5876551" lon="8.5199771"><ele>465.3333333333333</ele><time>2026-03-24T10:15:05.813Z</time></trkpt><trkpt lat="44.5876467" lon="8.5198809"><ele>466.66666666666663</ele><time>2026-03-24T10:15:06.814Z</time></trkpt><trkpt lat="44.5876359" lon="8.5197733"><ele>468.0</ele><time>2026-03-24T10:15:07.815Z</time></trkpt><trkpt lat="44.5876423" lon="8.519645"><ele>469.33333333333337</ele><time>2026-03-24T10:15:08.814Z</time></trkpt><trkpt lat="44.5876464" lon="8.5195376"><ele>470.6666666666667</ele><time>2026-03-24T10:15:09.813Z</time></trkpt><trkpt lat="44.5876393" lon="8.5193948"><ele>472.0</ele><time>2026-03-24T10:15:11.813Z</time></trkpt><trkpt lat="44.5875615" lon="8.5193255"><ele>472.00000000000006</ele><time>2026-03-24T10:15:13.814Z</time></trkpt><trkpt lat="44.5875048" lon="8.5192657"><ele>472.0</ele><time>2026-03-24T10:15:14.813Z</time></trkpt><trkpt lat="44.5874411" lon="8.5192106"><ele>472.0</ele><time>2026-03-24T10:15:15.813Z</time></trkpt><trkpt lat="44.5873669" lon="8.5191791"><ele>472.0</ele><time>2026-03-24T10:15:16.813Z</time></trkpt><trkpt lat="44.5872906" lon="8.5191473"><ele>472.00000000000006</ele><time>2026-03-24T10:15:17.813Z</time></trkpt><trkpt lat="44.5872072" lon="8.5191028"><ele>472.0</ele><time>2026-03-24T10:15:18.813Z</time></trkpt><trkpt lat="44.5871312" lon="8.5190403"><ele>472.00000000000006</ele><time>2026-03-24T10:15:19.813Z</time></trkpt><trkpt lat="44.5870565" lon="8.5189652"><ele>472.0</ele><time>2026-03-24T10:15:20.813Z</time></trkpt><trkpt lat="44.5869871" lon="8.51887"><ele>472.0</ele><time>2026-03-24T10:15:21.814Z</time></trkpt><trkpt lat="44.5869231" lon="8.5187726"><ele>472.0</ele><time>2026-03-24T10:15:22.814Z</time></trkpt><trkpt lat="44.5868723" lon="8.5186796"><ele>472.00000000000006</ele><time>2026-03-24T10:15:23.814Z</time></trkpt><trkpt lat="44.5868386" lon="8.5186042"><ele>472.0</ele><time>2026-03-24T10:15:24.812Z</time></trkpt><trkpt lat="44.5867601" lon="8.5185344"><ele>469.20000000000005</ele><time>2026-03-24T10:15:26.813Z</time></trkpt><trkpt lat="44.5866992" lon="8.5184909"><ele>466.40000000000003</ele><time>2026-03-24T10:15:27.814Z</time></trkpt><trkpt lat="44.5866212" lon="8.5184012"><ele>463.59999999999997</ele><time>2026-03-24T10:15:29.814Z</time></trkpt><trkpt lat="44.5865596" lon="8.5182972"><ele>460.79999999999995</ele><time>2026-03-24T10:15:31.812Z</time></trkpt><trkpt lat="44.5864798" lon="8.5181794"><ele>458.0</ele><time>2026-03-24T10:15:33.813Z</time></trkpt><trkpt lat="44.5863676" lon="8.5180846"><ele>457.99999999999994</ele><time>2026-03-24T10:15:35.813Z</time></trkpt><trkpt lat="44.5862969" lon="8.5180621"><ele>458.0</ele><time>2026-03-24T10:15:36.814Z</time></trkpt><trkpt lat="44.5861829" lon="8.5180495"><ele>458.0</ele><time>2026-03-24T10:15:37.813Z</time></trkpt><trkpt lat="44.5861031" lon="8.5180691"><ele>458.0</ele><time>2026-03-24T10:15:38.814Z</time></trkpt><trkpt lat="44.5860233" lon="8.5180986"><ele>457.99999999999994</ele><time>2026-03-24T10:15:39.813Z</time></trkpt><trkpt lat="44.5859567" lon="8.5181188"><ele>458.0</ele><time>2026-03-24T10:15:40.815Z</time></trkpt><trkpt lat="44.5858873" lon="8.5181319"><ele>456.8333333333333</ele><time>2026-03-24T10:15:41.814Z</time></trkpt><trkpt lat="44.5858121" lon="8.5181234"><ele>455.66666666666663</ele><time>2026-03-24T10:15:42.815Z</time></trkpt><trkpt lat="44.5857282" lon="8.5180881"><ele>454.5</ele><time>2026-03-24T10:15:43.814Z</time></trkpt><trkpt lat="44.5856615" lon="8.5180267"><ele>453.33333333333337</ele><time>2026-03-24T10:15:44.815Z</time></trkpt><trkpt lat="44.5856084" lon="8.517957"><ele>452.1666666666667</ele><time>2026-03-24T10:15:45.814Z</time></trkpt><trkpt lat="44.5855657" lon="8.5178884"><ele>451.0</ele><time>2026-03-24T10:15:46.814Z</time></trkpt><trkpt lat="44.5855129" lon="8.5177613"><ele>451.0</ele><time>2026-03-24T10:15:48.814Z</time></trkpt><trkpt lat="44.5854114" lon="8.5176488"><ele>451.0</ele><time>2026-03-24T10:15:50.814Z</time></trkpt><trkpt lat="44.5853268" lon="8.5176361"><ele>451.0</ele><time>2026-03-24T10:15:51.813Z</time></trkpt><trkpt lat="44.5852263" lon="8.5176375"><ele>451.0</ele><time>2026-03-24T10:15:52.816Z</time></trkpt><trkpt lat="44.5851212" lon="8.5176506"><ele>451.0</ele><time>2026-03-24T10:15:53.813Z</time></trkpt><trkpt lat="44.585016" lon="8.5176586"><ele>452.6</ele><time>2026-03-24T10:15:54.813Z</time></trkpt><trkpt lat="44.5849148" lon="8.5176788"><ele>454.20000000000005</ele><time>2026-03-24T10:15:55.814Z</time></trkpt><trkpt lat="44.5848127" lon="8.5177069"><ele>455.79999999999995</ele><time>2026-03-24T10:15:56.814Z</time></trkpt><trkpt lat="44.5847219" lon="8.5177496"><ele>457.4</ele><time>2026-03-24T10:15:57.815Z</time></trkpt><trkpt lat="44.5846495" lon="8.5177894"><ele>459.0</ele><time>2026-03-24T10:15:58.813Z</time></trkpt><trkpt lat="44.5845835" lon="8.5178362"><ele>461.6666666666667</ele><time>2026-03-24T10:15:59.813Z</time></trkpt><trkpt lat="44.5844747" lon="8.5179023"><ele>464.33333333333337</ele><time>2026-03-24T10:16:01.812Z</time></trkpt><trkpt lat="44.5843628" lon="8.517957"><ele>467.0</ele><time>2026-03-24T10:16:03.813Z</time></trkpt><trkpt lat="44.5842924" lon="8.5179763"><ele>469.6666666666667</ele><time>2026-03-24T10:16:05.813Z</time></trkpt><trkpt lat="44.5842811" lon="8.5180683"><ele>472.33333333333337</ele><time>2026-03-24T10:16:59.812Z</time></trkpt><trkpt lat="44.5842362" lon="8.5179901"><ele>475.0</ele><time>2026-03-24T10:17:04.813Z</time></trkpt><trkpt lat="44.5841628" lon="8.5179104"><ele>471.50000000000006</ele><time>2026-03-24T10:17:07.813Z</time></trkpt><trkpt lat="44.5841027" lon="8.5178272"><ele>468.0</ele><time>2026-03-24T10:17:10.814Z</time></trkpt><trkpt lat="44.584057" lon="8.5177165"><ele>464.5</ele><time>2026-03-24T10:17:13.815Z</time></trkpt><trkpt lat="44.5840154" lon="8.5176145"><ele>461.0</ele><time>2026-03-24T10:17:15.813Z</time></trkpt><trkpt lat="44.5839753" lon="8.5175065"><ele>457.50000000000006</ele><time>2026-03-24T10:17:17.814Z</time></trkpt><trkpt lat="44.5839188" lon="8.5174418"><ele>454.0</ele><time>2026-03-24T10:17:19.813Z</time></trkpt><trkpt lat="44.5838333" lon="8.5174089"><ele>454.00000000000006</ele><time>2026-03-24T10:17:21.813Z</time></trkpt><trkpt lat="44.5837607" lon="8.5173658"><ele>454.0</ele><time>2026-03-24T10:17:23.814Z</time></trkpt><trkpt lat="44.5837137" lon="8.5172788"><ele>454.0</ele><time>2026-03-24T10:17:26.814Z</time></trkpt><trkpt lat="44.5836453" lon="8.5171952"><ele>454.0</ele><time>2026-03-24T10:18:10.813Z</time></trkpt><trkpt lat="44.5836208" lon="8.5170937"><ele>454.00000000000006</ele><time>2026-03-24T10:18:13.812Z</time></trkpt><trkpt lat="44.5836027" lon="8.516996"><ele>454.0</ele><time>2026-03-24T10:18:15.813Z</time></trkpt><trkpt lat="44.5835756" lon="8.5168876"><ele>457.6</ele><time>2026-03-24T10:18:17.812Z</time></trkpt><trkpt lat="44.5835539" lon="8.516789"><ele>461.2</ele><time>2026-03-24T10:18:19.813Z</time></trkpt><trkpt lat="44.5835543" lon="8.5166722"><ele>464.80000000000007</ele><time>2026-03-24T10:18:21.812Z</time></trkpt><trkpt lat="44.5835272" lon="8.5164934"><ele>468.40000000000003</ele><time>2026-03-24T10:18:23.812Z</time></trkpt><trkpt lat="44.5834985" lon="8.5163887"><ele>472.0</ele><time>2026-03-24T10:18:24.812Z</time></trkpt><trkpt lat="44.5834628" lon="8.5162661"><ele>472.1666666666667</ele><time>2026-03-24T10:18:25.812Z</time></trkpt><trkpt lat="44.5834219" lon="8.5161517"><ele>472.33333333333337</ele><time>2026-03-24T10:18:26.813Z</time></trkpt><trkpt lat="44.5833813" lon="8.5160586"><ele>472.5</ele><time>2026-03-24T10:18:27.814Z</time></trkpt><trkpt lat="44.5833534" lon="8.5159589"><ele>472.66666666666663</ele><time>2026-03-24T10:18:28.813Z</time></trkpt><trkpt lat="44.5833228" lon="8.5158538"><ele>472.8333333333333</ele><time>2026-03-24T10:18:29.813Z</time></trkpt><trkpt lat="44.5833008" lon="8.5157607"><ele>473.0</ele><time>2026-03-24T10:18:30.813Z</time></trkpt><trkpt lat="44.5832603" lon="8.515677"><ele>472.99999999999994</ele><time>2026-03-24T10:18:31.812Z</time></trkpt><trkpt lat="44.5832215" lon="8.5155881"><ele>473.0</ele><time>2026-03-24T10:18:32.813Z</time></trkpt><trkpt lat="44.5831729" lon="8.5155027"><ele>473.0</ele><time>2026-03-24T10:18:33.812Z</time></trkpt><trkpt lat="44.5831283" lon="8.5154272"><ele>473.0</ele><time>2026-03-24T10:18:34.812Z</time></trkpt><trkpt lat="44.5830868" lon="8.5153587"><ele>472.99999999999994</ele><time>2026-03-24T10:18:35.812Z</time></trkpt><trkpt lat="44.5830234" lon="8.51524"><ele>473.0</ele><time>2026-03-24T10:18:37.813Z</time></trkpt><trkpt lat="44.582966" lon="8.5151859"><ele>475.2</ele><time>2026-03-24T10:18:38.815Z</time></trkpt><trkpt lat="44.5830096" lon="8.5151134"><ele>477.4</ele><time>2026-03-24T10:20:41.813Z</time></trkpt><trkpt lat="44.5831123" lon="8.5151033"><ele>479.59999999999997</ele><time>2026-03-24T10:20:43.813Z</time></trkpt><trkpt lat="44.583252" lon="8.5150987"><ele>481.79999999999995</ele><time>2026-03-24T10:20:45.814Z</time></trkpt><trkpt lat="44.5833456" lon="8.5151285"><ele>484.0</ele><time>2026-03-24T10:20:46.815Z</time></trkpt><trkpt lat="44.5834418" lon="8.5151552"><ele>484.0</ele><time>2026-03-24T10:20:47.815Z</time></trkpt><trkpt lat="44.5835435" lon="8.5151706"><ele>484.0</ele><time>2026-03-24T10:20:48.813Z</time></trkpt><trkpt lat="44.5836281" lon="8.5151791"><ele>484.0</ele><time>2026-03-24T10:20:49.815Z</time></trkpt><trkpt lat="44.5837143" lon="8.5151554"><ele>484.0</ele><time>2026-03-24T10:20:50.816Z</time></trkpt><trkpt lat="44.5838136" lon="8.5151128"><ele>484.0</ele><time>2026-03-24T10:20:51.813Z</time></trkpt><trkpt lat="44.5838871" lon="8.5150579"><ele>483.6</ele><time>2026-03-24T10:20:52.814Z</time></trkpt><trkpt lat="44.583961" lon="8.5149887"><ele>483.2</ele><time>2026-03-24T10:20:53.814Z</time></trkpt><trkpt lat="44.5840459" lon="8.5149064"><ele>482.80000000000007</ele><time>2026-03-24T10:20:54.814Z</time></trkpt><trkpt lat="44.5841214" lon="8.5148178"><ele>482.40000000000003</ele><time>2026-03-24T10:20:55.813Z</time></trkpt><trkpt lat="44.5841995" lon="8.5147044"><ele>482.0</ele><time>2026-03-24T10:20:56.815Z</time></trkpt><trkpt lat="44.5842746" lon="8.5146065"><ele>483.3333333333333</ele><time>2026-03-24T10:20:57.814Z</time></trkpt><trkpt lat="44.584349" lon="8.5145186"><ele>484.66666666666663</ele><time>2026-03-24T10:20:58.814Z</time></trkpt><trkpt lat="44.5844122" lon="8.5144364"><ele>486.0</ele><time>2026-03-24T10:20:59.814Z</time></trkpt><trkpt lat="44.5844718" lon="8.5143387"><ele>487.33333333333337</ele><time>2026-03-24T10:21:00.815Z</time></trkpt><trkpt lat="44.5845106" lon="8.5142626"><ele>488.6666666666667</ele><time>2026-03-24T10:21:01.814Z</time></trkpt><trkpt lat="44.584549" lon="8.5141293"><ele>490.0</ele><time>2026-03-24T10:21:03.813Z</time></trkpt><trkpt lat="44.5846245" lon="8.5140057"><ele>490.0</ele><time>2026-03-24T10:21:05.814Z</time></trkpt><trkpt lat="44.5846752" lon="8.5139526"><ele>490.0</ele><time>2026-03-24T10:21:06.814Z</time></trkpt><trkpt lat="44.584778" lon="8.513915"><ele>490.0</ele><time>2026-03-24T10:21:08.814Z</time></trkpt><trkpt lat="44.5848896" lon="8.5138747"><ele>490.0</ele><time>2026-03-24T10:21:10.813Z</time></trkpt><trkpt lat="44.5849561" lon="8.5138285"><ele>490.0</ele><time>2026-03-24T10:21:12.814Z</time></trkpt><trkpt lat="44.5848934" lon="8.5136864"><ele>492.8</ele><time>2026-03-24T10:21:15.814Z</time></trkpt><trkpt lat="44.5848631" lon="8.513553"><ele>495.6</ele><time>2026-03-24T10:21:17.814Z</time></trkpt><trkpt lat="44.5848982" lon="8.5134257"><ele>498.4</ele><time>2026-03-24T10:21:19.814Z</time></trkpt><trkpt lat="44.5849974" lon="8.5132895"><ele>501.2</ele><time>2026-03-24T10:21:21.813Z</time></trkpt><trkpt lat="44.5850829" lon="8.5132032"><ele>504.0</ele><time>2026-03-24T10:21:22.814Z</time></trkpt><trkpt lat="44.5851676" lon="8.513146"><ele>504.0</ele><time>2026-03-24T10:21:23.814Z</time></trkpt><trkpt lat="44.5852541" lon="8.51307"><ele>504.0</ele><time>2026-03-24T10:21:24.815Z</time></trkpt><trkpt lat="44.585336" lon="8.513003"><ele>504.0</ele><time>2026-03-24T10:21:25.814Z</time></trkpt><trkpt lat="44.585422" lon="8.5129521"><ele>504.0</ele><time>2026-03-24T10:21:26.814Z</time></trkpt><trkpt lat="44.5855088" lon="8.5129219"><ele>504.0</ele><time>2026-03-24T10:21:27.814Z</time></trkpt><trkpt lat="44.5855999" lon="8.5129108"><ele>501.5</ele><time>2026-03-24T10:21:28.813Z</time></trkpt><trkpt lat="44.585699" lon="8.512923"><ele>499.0</ele><time>2026-03-24T10:21:29.814Z</time></trkpt><trkpt lat="44.5858121" lon="8.5129476"><ele>496.5</ele><time>2026-03-24T10:21:30.814Z</time></trkpt><trkpt lat="44.5859326" lon="8.5129644"><ele>494.0</ele><time>2026-03-24T10:21:31.814Z</time></trkpt><trkpt lat="44.5860544" lon="8.5129738"><ele>494.0</ele><time>2026-03-24T10:21:32.814Z</time></trkpt><trkpt lat="44.5861735" lon="8.5129688"><ele>494.0</ele><time>2026-03-24T10:21:33.813Z</time></trkpt><trkpt lat="44.5862742" lon="8.5129636"><ele>494.0</ele><time>2026-03-24T10:21:34.814Z</time></trkpt><trkpt lat="44.5863676" lon="8.5129463"><ele>494.0</ele><time>2026-03-24T10:21:35.814Z</time></trkpt><trkpt lat="44.5864275" lon="8.5129154"><ele>494.0</ele><time>2026-03-24T10:21:36.813Z</time></trkpt><trkpt lat="44.5864856" lon="8.5127676"><ele>495.49999999999994</ele><time>2026-03-24T10:21:38.816Z</time></trkpt><trkpt lat="44.5865112" lon="8.5126469"><ele>497.0</ele><time>2026-03-24T10:21:39.814Z</time></trkpt><trkpt lat="44.5865492" lon="8.5125471"><ele>498.5</ele><time>2026-03-24T10:21:40.814Z</time></trkpt><trkpt lat="44.586601" lon="8.5124592"><ele>500.0</ele><time>2026-03-24T10:21:41.814Z</time></trkpt><trkpt lat="44.58666" lon="8.5123867"><ele>501.49999999999994</ele><time>2026-03-24T10:21:42.814Z</time></trkpt><trkpt lat="44.5867153" lon="8.5123424"><ele>503.0</ele><time>2026-03-24T10:21:43.814Z</time></trkpt><trkpt lat="44.5868308" lon="8.5123159"><ele>502.99999999999994</ele><time>2026-03-24T10:21:45.814Z</time></trkpt><trkpt lat="44.5868979" lon="8.5122661"><ele>503.0</ele><time>2026-03-24T10:21:46.813Z</time></trkpt><trkpt lat="44.5869594" lon="8.5121961"><ele>503.0</ele><time>2026-03-24T10:21:47.814Z</time></trkpt><trkpt lat="44.5870036" lon="8.5121309"><ele>503.0</ele><time>2026-03-24T10:21:48.815Z</time></trkpt><trkpt lat="44.5870432" lon="8.5120214"><ele>502.99999999999994</ele><time>2026-03-24T10:21:50.814Z</time></trkpt><trkpt lat="44.5870853" lon="8.5118753"><ele>503.0</ele><time>2026-03-24T10:21:52.814Z</time></trkpt><trkpt lat="44.5871269" lon="8.5117797"><ele>503.66666666666663</ele><time>2026-03-24T10:21:53.814Z</time></trkpt><trkpt lat="44.5871753" lon="8.5116621"><ele>504.3333333333333</ele><time>2026-03-24T10:21:54.814Z</time></trkpt><trkpt lat="44.587213" lon="8.5115584"><ele>505.0</ele><time>2026-03-24T10:21:55.815Z</time></trkpt><trkpt lat="44.5872495" lon="8.5114692"><ele>505.66666666666663</ele><time>2026-03-24T10:21:56.814Z</time></trkpt><trkpt lat="44.5873026" lon="8.5113776"><ele>506.3333333333333</ele><time>2026-03-24T10:21:57.816Z</time></trkpt><trkpt lat="44.587359" lon="8.5113092"><ele>507.0</ele><time>2026-03-24T10:21:58.815Z</time></trkpt><trkpt lat="44.5874141" lon="8.5112508"><ele>504.6666666666667</ele><time>2026-03-24T10:21:59.814Z</time></trkpt><trkpt lat="44.5874605" lon="8.5111861"><ele>502.33333333333337</ele><time>2026-03-24T10:22:00.813Z</time></trkpt><trkpt lat="44.5875116" lon="8.5110586"><ele>500.0</ele><time>2026-03-24T10:22:02.814Z</time></trkpt><trkpt lat="44.5875528" lon="8.5109633"><ele>497.6666666666667</ele><time>2026-03-24T10:22:04.817Z</time></trkpt><trkpt lat="44.5875687" lon="8.5108561"><ele>495.33333333333337</ele><time>2026-03-24T10:22:08.813Z</time></trkpt><trkpt lat="44.5875865" lon="8.5107509"><ele>493.0</ele><time>2026-03-24T10:22:13.812Z</time></trkpt><trkpt lat="44.5876213" lon="8.5106379"><ele>493.0</ele><time>2026-03-24T10:22:57.813Z</time></trkpt><trkpt lat="44.5876678" lon="8.5105258"><ele>492.99999999999994</ele><time>2026-03-24T10:22:59.813Z</time></trkpt><trkpt lat="44.5877205" lon="8.5104484"><ele>492.99999999999994</ele><time>2026-03-24T10:23:00.813Z</time></trkpt><trkpt lat="44.587789" lon="8.510347"><ele>493.0</ele><time>2026-03-24T10:23:01.813Z</time></trkpt><trkpt lat="44.5878536" lon="8.5102208"><ele>493.0</ele><time>2026-03-24T10:23:02.815Z</time></trkpt><trkpt lat="44.5879026" lon="8.5100947"><ele>490.79999999999995</ele><time>2026-03-24T10:23:03.815Z</time></trkpt><trkpt lat="44.5879542" lon="8.5099613"><ele>488.59999999999997</ele><time>2026-03-24T10:23:04.814Z</time></trkpt><trkpt lat="44.588006" lon="8.5098387"><ele>486.40000000000003</ele><time>2026-03-24T10:23:05.814Z</time></trkpt><trkpt lat="44.5880589" lon="8.5097373"><ele>484.20000000000005</ele><time>2026-03-24T10:23:06.814Z</time></trkpt><trkpt lat="44.5881209" lon="8.5096499"><ele>482.0</ele><time>2026-03-24T10:23:07.815Z</time></trkpt><trkpt lat="44.5882083" lon="8.5095806"><ele>478.20000000000005</ele><time>2026-03-24T10:23:08.815Z</time></trkpt><trkpt lat="44.5883087" lon="8.5095399"><ele>474.40000000000003</ele><time>2026-03-24T10:23:09.814Z</time></trkpt><trkpt lat="44.5884065" lon="8.509523"><ele>470.59999999999997</ele><time>2026-03-24T10:23:10.815Z</time></trkpt><trkpt lat="44.5885019" lon="8.509491"><ele>466.79999999999995</ele><time>2026-03-24T10:23:11.814Z</time></trkpt><trkpt lat="44.5885896" lon="8.509452"><ele>463.0</ele><time>2026-03-24T10:23:12.814Z</time></trkpt><trkpt lat="44.5886719" lon="8.5094041"><ele>463.0</ele><time>2026-03-24T10:23:13.814Z</time></trkpt><trkpt lat="44.5887491" lon="8.5093548"><ele>462.99999999999994</ele><time>2026-03-24T10:23:14.814Z</time></trkpt><trkpt lat="44.5888213" lon="8.5092946"><ele>462.99999999999994</ele><time>2026-03-24T10:23:15.814Z</time></trkpt><trkpt lat="44.5889171" lon="8.5092148"><ele>463.0</ele><time>2026-03-24T10:23:16.814Z</time></trkpt><trkpt lat="44.5890043" lon="8.5091547"><ele>463.0</ele><time>2026-03-24T10:23:17.814Z</time></trkpt><trkpt lat="44.5891171" lon="8.5091094"><ele>463.0</ele><time>2026-03-24T10:23:18.815Z</time></trkpt><trkpt lat="44.589222" lon="8.5090717"><ele>462.99999999999994</ele><time>2026-03-24T10:23:19.812Z</time></trkpt><trkpt lat="44.5893385" lon="8.5090357"><ele>462.99999999999994</ele><time>2026-03-24T10:23:20.813Z</time></trkpt><trkpt lat="44.5894488" lon="8.5089951"><ele>463.0</ele><time>2026-03-24T10:23:21.812Z</time></trkpt><trkpt lat="44.5895522" lon="8.5089585"><ele>463.0</ele><time>2026-03-24T10:23:22.813Z</time></trkpt><trkpt lat="44.58965" lon="8.508936"><ele>461.2</ele><time>2026-03-24T10:23:23.813Z</time></trkpt><trkpt lat="44.5897492" lon="8.5089232"><ele>459.4</ele><time>2026-03-24T10:23:24.813Z</time></trkpt><trkpt lat="44.5898481" lon="8.5089082"><ele>457.59999999999997</ele><time>2026-03-24T10:23:25.813Z</time></trkpt><trkpt lat="44.5899427" lon="8.5088877"><ele>455.79999999999995</ele><time>2026-03-24T10:23:26.815Z</time></trkpt><trkpt lat="44.5900312" lon="8.5088466"><ele>454.0</ele><time>2026-03-24T10:23:27.813Z</time></trkpt><trkpt lat="44.5901138" lon="8.5087888"><ele>453.2</ele><time>2026-03-24T10:23:28.813Z</time></trkpt><trkpt lat="44.5901885" lon="8.5087224"><ele>452.4</ele><time>2026-03-24T10:23:29.813Z</time></trkpt><trkpt lat="44.5902549" lon="8.5086486"><ele>451.6</ele><time>2026-03-24T10:23:30.815Z</time></trkpt><trkpt lat="44.5903159" lon="8.5085557"><ele>450.8</ele><time>2026-03-24T10:23:31.813Z</time></trkpt><trkpt lat="44.5903648" lon="8.5084371"><ele>450.0</ele><time>2026-03-24T10:23:32.815Z</time></trkpt><trkpt lat="44.5903994" lon="8.5083105"><ele>450.0</ele><time>2026-03-24T10:23:33.814Z</time></trkpt><trkpt lat="44.5904305" lon="8.5081969"><ele>450.0</ele><time>2026-03-24T10:23:34.814Z</time></trkpt><trkpt lat="44.5904583" lon="8.50809"><ele>450.0</ele><time>2026-03-24T10:23:35.813Z</time></trkpt><trkpt lat="44.5904887" lon="8.5079878"><ele>450.0</ele><time>2026-03-24T10:23:36.813Z</time></trkpt><trkpt lat="44.5905255" lon="8.5078838"><ele>450.0</ele><time>2026-03-24T10:23:37.814Z</time></trkpt><trkpt lat="44.5905692" lon="8.507782"><ele>450.0</ele><time>2026-03-24T10:23:38.815Z</time></trkpt><trkpt lat="44.5906079" lon="8.5076743"><ele>448.1428571428572</ele><time>2026-03-24T10:23:39.815Z</time></trkpt><trkpt lat="44.5906274" lon="8.507573"><ele>446.28571428571433</ele><time>2026-03-24T10:23:40.814Z</time></trkpt><trkpt lat="44.5906384" lon="8.5074671"><ele>444.42857142857144</ele><time>2026-03-24T10:23:41.815Z</time></trkpt><trkpt lat="44.5906339" lon="8.5073687"><ele>442.5714285714286</ele><time>2026-03-24T10:23:42.814Z</time></trkpt><trkpt lat="44.5906183" lon="8.5072741"><ele>440.7142857142858</ele><time>2026-03-24T10:23:43.814Z</time></trkpt><trkpt lat="44.5906014" lon="8.5071873"><ele>438.85714285714283</ele><time>2026-03-24T10:23:44.815Z</time></trkpt><trkpt lat="44.590571" lon="8.5071084"><ele>437.0</ele><time>2026-03-24T10:23:45.813Z</time></trkpt><trkpt lat="44.5905288" lon="8.5070387"><ele>434.6</ele><time>2026-03-24T10:23:46.814Z</time></trkpt><trkpt lat="44.5904325" lon="8.5069638"><ele>432.20000000000005</ele><time>2026-03-24T10:23:48.814Z</time></trkpt><trkpt lat="44.5903628" lon="8.5069625"><ele>429.8</ele><time>2026-03-24T10:23:49.814Z</time></trkpt><trkpt lat="44.5902879" lon="8.5069733"><ele>427.4</ele><time>2026-03-24T10:23:50.813Z</time></trkpt><trkpt lat="44.5901924" lon="8.5069854"><ele>425.0</ele><time>2026-03-24T10:23:51.813Z</time></trkpt><trkpt lat="44.5900719" lon="8.5070053"><ele>424.99999999999994</ele><time>2026-03-24T10:23:52.814Z</time></trkpt><trkpt lat="44.5899685" lon="8.5070166"><ele>425.0</ele><time>2026-03-24T10:23:53.815Z</time></trkpt><trkpt lat="44.5898816" lon="8.5070237"><ele>425.0</ele><time>2026-03-24T10:23:54.815Z</time></trkpt><trkpt lat="44.589796" lon="8.5070259"><ele>425.0</ele><time>2026-03-24T10:23:55.815Z</time></trkpt><trkpt lat="44.589727" lon="8.5070206"><ele>424.99999999999994</ele><time>2026-03-24T10:23:56.815Z</time></trkpt><trkpt lat="44.5896714" lon="8.5069755"><ele>425.0</ele><time>2026-03-24T10:23:58.813Z</time></trkpt><trkpt lat="44.5897029" lon="8.5068518"><ele>425.0</ele><time>2026-03-24T10:24:01.814Z</time></trkpt><trkpt lat="44.5896667" lon="8.5067436"><ele>425.0</ele><time>2026-03-24T10:24:04.815Z</time></trkpt><trkpt lat="44.5895425" lon="8.5066875"><ele>425.0</ele><time>2026-03-24T10:24:06.814Z</time></trkpt><trkpt lat="44.5894305" lon="8.5066437"><ele>425.0</ele><time>2026-03-24T10:24:07.815Z</time></trkpt><trkpt lat="44.5893512" lon="8.5066203"><ele>425.0</ele><time>2026-03-24T10:24:08.814Z</time></trkpt><trkpt lat="44.5892774" lon="8.5066021"><ele>424.3333333333333</ele><time>2026-03-24T10:24:09.814Z</time></trkpt><trkpt lat="44.5891942" lon="8.5065664"><ele>423.66666666666663</ele><time>2026-03-24T10:24:11.814Z</time></trkpt><trkpt lat="44.589163" lon="8.5064855"><ele>423.0</ele><time>2026-03-24T10:24:15.813Z</time></trkpt><trkpt lat="44.5891705" lon="8.5063884"><ele>422.33333333333337</ele><time>2026-03-24T10:24:18.814Z</time></trkpt><trkpt lat="44.589173" lon="8.5062927"><ele>421.6666666666667</ele><time>2026-03-24T10:24:20.815Z</time></trkpt><trkpt lat="44.589154" lon="8.5061313"><ele>421.0</ele><time>2026-03-24T10:24:22.813Z</time></trkpt><trkpt lat="44.5891458" lon="8.5059781"><ele>418.83333333333337</ele><time>2026-03-24T10:24:24.814Z</time></trkpt><trkpt lat="44.589133" lon="8.505866"><ele>416.6666666666667</ele><time>2026-03-24T10:24:26.814Z</time></trkpt><trkpt lat="44.5890976" lon="8.5057641"><ele>414.5</ele><time>2026-03-24T10:24:28.814Z</time></trkpt><trkpt lat="44.5890268" lon="8.5057123"><ele>412.33333333333337</ele><time>2026-03-24T10:24:30.813Z</time></trkpt><trkpt lat="44.588956" lon="8.5056476"><ele>410.1666666666667</ele><time>2026-03-24T10:24:32.814Z</time></trkpt><trkpt lat="44.5888825" lon="8.5055895"><ele>408.0</ele><time>2026-03-24T10:24:34.813Z</time></trkpt><trkpt lat="44.588815" lon="8.5055507"><ele>408.0</ele><time>2026-03-24T10:24:36.814Z</time></trkpt><trkpt lat="44.5887508" lon="8.5054965"><ele>408.0</ele><time>2026-03-24T10:24:39.813Z</time></trkpt><trkpt lat="44.5887449" lon="8.5053759"><ele>408.0</ele><time>2026-03-24T10:24:45.815Z</time></trkpt><trkpt lat="44.5887652" lon="8.5052223"><ele>408.0</ele><time>2026-03-24T10:25:02.813Z</time></trkpt><trkpt lat="44.5887761" lon="8.5051028"><ele>408.0</ele><time>2026-03-24T10:25:22.813Z</time></trkpt><trkpt lat="44.5887727" lon="8.5049786"><ele>408.0</ele><time>2026-03-24T10:25:24.814Z</time></trkpt><trkpt lat="44.5887733" lon="8.5048831"><ele>405.8571428571429</ele><time>2026-03-24T10:25:25.814Z</time></trkpt><trkpt lat="44.5887673" lon="8.5047921"><ele>403.7142857142857</ele><time>2026-03-24T10:25:26.815Z</time></trkpt><trkpt lat="44.5887546" lon="8.5047023"><ele>401.57142857142856</ele><time>2026-03-24T10:25:27.813Z</time></trkpt><trkpt lat="44.5887329" lon="8.5046114"><ele>399.42857142857144</ele><time>2026-03-24T10:25:28.814Z</time></trkpt><trkpt lat="44.5886958" lon="8.5045362"><ele>397.2857142857143</ele><time>2026-03-24T10:25:29.815Z</time></trkpt><trkpt lat="44.5886688" lon="8.5044447"><ele>395.14285714285717</ele><time>2026-03-24T10:25:30.813Z</time></trkpt><trkpt lat="44.5886409" lon="8.5043507"><ele>393.0</ele><time>2026-03-24T10:25:31.814Z</time></trkpt><trkpt lat="44.5886014" lon="8.5042665"><ele>390.8333333333333</ele><time>2026-03-24T10:25:32.816Z</time></trkpt><trkpt lat="44.5885586" lon="8.5041904"><ele>388.6666666666667</ele><time>2026-03-24T10:25:33.813Z</time></trkpt><trkpt lat="44.5885048" lon="8.5041276"><ele>386.5</ele><time>2026-03-24T10:25:34.814Z</time></trkpt><trkpt lat="44.5883993" lon="8.504059"><ele>384.33333333333337</ele><time>2026-03-24T10:25:36.812Z</time></trkpt><trkpt lat="44.5883177" lon="8.5040146"><ele>382.1666666666667</ele><time>2026-03-24T10:25:38.815Z</time></trkpt><trkpt lat="44.5882485" lon="8.5039965"><ele>380.0</ele><time>2026-03-24T10:25:40.814Z</time></trkpt><trkpt lat="44.5881693" lon="8.50401"><ele>380.0</ele><time>2026-03-24T10:25:43.814Z</time></trkpt><trkpt lat="44.5880935" lon="8.504038"><ele>380.0</ele><time>2026-03-24T10:25:46.813Z</time></trkpt><trkpt lat="44.5880102" lon="8.504066"><ele>380.0</ele><time>2026-03-24T10:25:49.814Z</time></trkpt><trkpt lat="44.5878707" lon="8.5040736"><ele>380.0</ele><time>2026-03-24T10:25:51.813Z</time></trkpt><trkpt lat="44.587708" lon="8.5040148"><ele>379.5</ele><time>2026-03-24T10:25:52.814Z</time></trkpt><trkpt lat="44.5875664" lon="8.5039637"><ele>379.0</ele><time>2026-03-24T10:25:53.814Z</time></trkpt><trkpt lat="44.5874405" lon="8.5039267"><ele>378.5</ele><time>2026-03-24T10:25:54.814Z</time></trkpt><trkpt lat="44.5873112" lon="8.5039182"><ele>378.0</ele><time>2026-03-24T10:25:55.814Z</time></trkpt><trkpt lat="44.5871761" lon="8.5039445"><ele>378.0</ele><time>2026-03-24T10:25:56.813Z</time></trkpt><trkpt lat="44.58702" lon="8.5039917"><ele>378.0</ele><time>2026-03-24T10:25:57.811Z</time></trkpt><trkpt lat="44.5868568" lon="8.5040446"><ele>378.0</ele><time>2026-03-24T10:25:58.813Z</time></trkpt><trkpt lat="44.5866907" lon="8.5040949"><ele>378.6666666666667</ele><time>2026-03-24T10:25:59.811Z</time></trkpt><trkpt lat="44.5865332" lon="8.5041518"><ele>379.33333333333337</ele><time>2026-03-24T10:26:00.812Z</time></trkpt><trkpt lat="44.5863805" lon="8.5042172"><ele>380.0</ele><time>2026-03-24T10:26:01.812Z</time></trkpt><trkpt lat="44.5862351" lon="8.504279"><ele>379.75</ele><time>2026-03-24T10:26:02.812Z</time></trkpt><trkpt lat="44.58611" lon="8.5043391"><ele>379.5</ele><time>2026-03-24T10:26:03.813Z</time></trkpt><trkpt lat="44.5859964" lon="8.5043855"><ele>379.25</ele><time>2026-03-24T10:26:04.812Z</time></trkpt><trkpt lat="44.5858902" lon="8.5044086"><ele>379.0</ele><time>2026-03-24T10:26:05.812Z</time></trkpt><trkpt lat="44.5857887" lon="8.5043989"><ele>379.0</ele><time>2026-03-24T10:26:06.813Z</time></trkpt><trkpt lat="44.5856893" lon="8.5044092"><ele>379.0</ele><time>2026-03-24T10:26:07.814Z</time></trkpt><trkpt lat="44.5856093" lon="8.5044242"><ele>379.0</ele><time>2026-03-24T10:26:08.813Z</time></trkpt><trkpt lat="44.5855346" lon="8.5044263"><ele>379.0</ele><time>2026-03-24T10:26:09.813Z</time></trkpt><trkpt lat="44.5854686" lon="8.5044225"><ele>379.0</ele><time>2026-03-24T10:26:10.812Z</time></trkpt><trkpt lat="44.585361" lon="8.504438"><ele>379.0</ele><time>2026-03-24T10:26:12.812Z</time></trkpt><trkpt lat="44.5852812" lon="8.5045244"><ele>379.2</ele><time>2026-03-24T10:26:14.813Z</time></trkpt><trkpt lat="44.585181" lon="8.5044523"><ele>379.4</ele><time>2026-03-24T10:26:18.812Z</time></trkpt><trkpt lat="44.5850718" lon="8.5043856"><ele>379.6</ele><time>2026-03-24T10:26:20.814Z</time></trkpt><trkpt lat="44.5849818" lon="8.5043276"><ele>379.8</ele><time>2026-03-24T10:26:21.814Z</time></trkpt><trkpt lat="44.5848783" lon="8.5042722"><ele>380.0</ele><time>2026-03-24T10:26:22.814Z</time></trkpt><trkpt lat="44.5847724" lon="8.5042185"><ele>380.0</ele><time>2026-03-24T10:26:23.813Z</time></trkpt><trkpt lat="44.5846641" lon="8.50417"><ele>380.0</ele><time>2026-03-24T10:26:24.814Z</time></trkpt><trkpt lat="44.5845552" lon="8.5041266"><ele>380.0</ele><time>2026-03-24T10:26:25.814Z</time></trkpt><trkpt lat="44.5844515" lon="8.5040679"><ele>380.0</ele><time>2026-03-24T10:26:26.813Z</time></trkpt><trkpt lat="44.5843628" lon="8.5040175"><ele>380.0</ele><time>2026-03-24T10:26:27.813Z</time></trkpt><trkpt lat="44.5842762" lon="8.5039683"><ele>382.0</ele><time>2026-03-24T10:26:28.813Z</time></trkpt><trkpt lat="44.584186" lon="8.5039402"><ele>384.0</ele><time>2026-03-24T10:26:29.813Z</time></trkpt><trkpt lat="44.5840936" lon="8.5039193"><ele>386.0</ele><time>2026-03-24T10:26:30.813Z</time></trkpt><trkpt lat="44.5840021" lon="8.5038999"><ele>388.0</ele><time>2026-03-24T10:26:31.813Z</time></trkpt><trkpt lat="44.5839192" lon="8.5038826"><ele>390.0</ele><time>2026-03-24T10:26:32.814Z</time></trkpt><trkpt lat="44.583809" lon="8.5038524"><ele>390.0</ele><time>2026-03-24T10:26:33.813Z</time></trkpt><trkpt lat="44.5837028" lon="8.5038139"><ele>390.0</ele><time>2026-03-24T10:26:34.814Z</time></trkpt><trkpt lat="44.5835952" lon="8.5037576"><ele>390.0</ele><time>2026-03-24T10:26:35.815Z</time></trkpt><trkpt lat="44.5834873" lon="8.5037024"><ele>390.0</ele><time>2026-03-24T10:26:36.814Z</time></trkpt><trkpt lat="44.5833831" lon="8.5036493"><ele>387.85714285714283</ele><time>2026-03-24T10:26:37.813Z</time></trkpt><trkpt lat="44.583292" lon="8.5036188"><ele>385.71428571428567</ele><time>2026-03-24T10:26:38.814Z</time></trkpt><trkpt lat="44.5832076" lon="8.5036009"><ele>383.57142857142856</ele><time>2026-03-24T10:26:39.814Z</time></trkpt><trkpt lat="44.5831408" lon="8.5035852"><ele>381.42857142857144</ele><time>2026-03-24T10:26:40.814Z</time></trkpt><trkpt lat="44.5830749" lon="8.5035563"><ele>379.2857142857143</ele><time>2026-03-24T10:26:41.814Z</time></trkpt><trkpt lat="44.5830145" lon="8.5035177"><ele>377.14285714285717</ele><time>2026-03-24T10:26:42.813Z</time></trkpt><trkpt lat="44.5829602" lon="8.5034695"><ele>375.0</ele><time>2026-03-24T10:26:43.813Z</time></trkpt><trkpt lat="44.5828666" lon="8.5033726"><ele>376.2</ele><time>2026-03-24T10:26:45.813Z</time></trkpt><trkpt lat="44.5827682" lon="8.5032861"><ele>377.4</ele><time>2026-03-24T10:26:47.814Z</time></trkpt><trkpt lat="44.5826633" lon="8.5031773"><ele>378.6</ele><time>2026-03-24T10:26:49.814Z</time></trkpt><trkpt lat="44.5826067" lon="8.5030962"><ele>379.8</ele><time>2026-03-24T10:26:50.814Z</time></trkpt><trkpt lat="44.5825521" lon="8.5030182"><ele>381.0</ele><time>2026-03-24T10:26:51.814Z</time></trkpt><trkpt lat="44.5824952" lon="8.5029525"><ele>380.6666666666667</ele><time>2026-03-24T10:26:52.813Z</time></trkpt><trkpt lat="44.5824355" lon="8.5028574"><ele>380.3333333333333</ele><time>2026-03-24T10:26:54.815Z</time></trkpt><trkpt lat="44.5823867" lon="8.502774"><ele>380.0</ele><time>2026-03-24T10:27:44.814Z</time></trkpt><trkpt lat="44.5823108" lon="8.5027056"><ele>379.66666666666663</ele><time>2026-03-24T10:27:46.814Z</time></trkpt><trkpt lat="44.5822516" lon="8.5026553"><ele>379.3333333333333</ele><time>2026-03-24T10:27:47.814Z</time></trkpt><trkpt lat="44.5821543" lon="8.5025753"><ele>379.0</ele><time>2026-03-24T10:27:49.814Z</time></trkpt><trkpt lat="44.582108" lon="8.5025119"><ele>379.0</ele><time>2026-03-24T10:27:50.816Z</time></trkpt><trkpt lat="44.5820547" lon="8.5024459"><ele>379.0</ele><time>2026-03-24T10:27:51.813Z</time></trkpt><trkpt lat="44.5819881" lon="8.5023233"><ele>379.0</ele><time>2026-03-24T10:27:53.814Z</time></trkpt><trkpt lat="44.5819473" lon="8.5022551"><ele>379.0</ele><time>2026-03-24T10:27:54.814Z</time></trkpt><trkpt lat="44.5819317" lon="8.5021152"><ele>379.0</ele><time>2026-03-24T10:27:55.815Z</time></trkpt><trkpt lat="44.5819047" lon="8.5019775"><ele>379.0</ele><time>2026-03-24T10:27:56.815Z</time></trkpt><trkpt lat="44.5818729" lon="8.5018424"><ele>380.5</ele><time>2026-03-24T10:27:57.813Z</time></trkpt><trkpt lat="44.5818304" lon="8.5016952"><ele>382.0</ele><time>2026-03-24T10:27:58.815Z</time></trkpt><trkpt lat="44.5817526" lon="8.5015408"><ele>383.5</ele><time>2026-03-24T10:27:59.816Z</time></trkpt><trkpt lat="44.5816909" lon="8.5013835"><ele>385.0</ele><time>2026-03-24T10:28:00.815Z</time></trkpt><trkpt lat="44.5816221" lon="8.5012709"><ele>386.6</ele><time>2026-03-24T10:28:01.816Z</time></trkpt><trkpt lat="44.5815706" lon="8.5011729"><ele>388.2</ele><time>2026-03-24T10:28:02.814Z</time></trkpt><trkpt lat="44.5815102" lon="8.5010924"><ele>389.79999999999995</ele><time>2026-03-24T10:28:03.815Z</time></trkpt><trkpt lat="44.5814193" lon="8.501035"><ele>391.4</ele><time>2026-03-24T10:28:04.814Z</time></trkpt><trkpt lat="44.581307" lon="8.5009672"><ele>393.0</ele><time>2026-03-24T10:28:05.814Z</time></trkpt><trkpt lat="44.5811965" lon="8.5009153"><ele>393.0</ele><time>2026-03-24T10:28:06.815Z</time></trkpt><trkpt lat="44.5810775" lon="8.5008576"><ele>393.0</ele><time>2026-03-24T10:28:07.815Z</time></trkpt><trkpt lat="44.5809766" lon="8.5008314"><ele>393.0</ele><time>2026-03-24T10:28:08.815Z</time></trkpt><trkpt lat="44.5808753" lon="8.5008259"><ele>393.0</ele><time>2026-03-24T10:28:09.814Z</time></trkpt><trkpt lat="44.5807723" lon="8.5008296"><ele>393.0</ele><time>2026-03-24T10:28:10.814Z</time></trkpt><trkpt lat="44.5806751" lon="8.5008251"><ele>393.0</ele><time>2026-03-24T10:28:11.813Z</time></trkpt><trkpt lat="44.5805962" lon="8.5008292"><ele>393.0</ele><time>2026-03-24T10:28:12.814Z</time></trkpt><trkpt lat="44.5805187" lon="8.5008329"><ele>393.0</ele><time>2026-03-24T10:28:13.814Z</time></trkpt><trkpt lat="44.5804374" lon="8.5008131"><ele>393.0</ele><time>2026-03-24T10:28:14.814Z</time></trkpt><trkpt lat="44.5803717" lon="8.500752"><ele>393.0</ele><time>2026-03-24T10:28:15.815Z</time></trkpt><trkpt lat="44.5803136" lon="8.5006845"><ele>393.0</ele><time>2026-03-24T10:28:16.814Z</time></trkpt><trkpt lat="44.5802553" lon="8.5006233"><ele>393.59999999999997</ele><time>2026-03-24T10:28:17.814Z</time></trkpt><trkpt lat="44.5801999" lon="8.5005798"><ele>394.2</ele><time>2026-03-24T10:28:18.814Z</time></trkpt><trkpt lat="44.580091" lon="8.5005522"><ele>394.8</ele><time>2026-03-24T10:28:20.815Z</time></trkpt><trkpt lat="44.5799981" lon="8.5005771"><ele>395.4</ele><time>2026-03-24T10:28:21.815Z</time></trkpt><trkpt lat="44.5798712" lon="8.500636"><ele>396.0</ele><time>2026-03-24T10:28:22.814Z</time></trkpt><trkpt lat="44.5797187" lon="8.5007154"><ele>396.0</ele><time>2026-03-24T10:28:23.814Z</time></trkpt><trkpt lat="44.579608" lon="8.5007917"><ele>396.0</ele><time>2026-03-24T10:28:24.813Z</time></trkpt><trkpt lat="44.5795133" lon="8.5008638"><ele>396.0</ele><time>2026-03-24T10:28:25.813Z</time></trkpt><trkpt lat="44.5794603" lon="8.5009181"><ele>396.0</ele><time>2026-03-24T10:28:26.814Z</time></trkpt><trkpt lat="44.5793682" lon="8.500991"><ele>396.0</ele><time>2026-03-24T10:28:28.815Z</time></trkpt><trkpt lat="44.5792997" lon="8.5010155"><ele>396.5</ele><time>2026-03-24T10:28:29.813Z</time></trkpt><trkpt lat="44.5792157" lon="8.5010206"><ele>397.0</ele><time>2026-03-24T10:28:30.814Z</time></trkpt><trkpt lat="44.5791219" lon="8.5010469"><ele>397.5</ele><time>2026-03-24T10:28:31.814Z</time></trkpt><trkpt lat="44.5790283" lon="8.5010717"><ele>398.0</ele><time>2026-03-24T10:28:32.815Z</time></trkpt><trkpt lat="44.5789394" lon="8.5010914"><ele>398.5</ele><time>2026-03-24T10:28:33.814Z</time></trkpt><trkpt lat="44.5788686" lon="8.5010826"><ele>399.0</ele><time>2026-03-24T10:28:34.813Z</time></trkpt><trkpt lat="44.5787818" lon="8.5010727"><ele>400.0</ele><time>2026-03-24T10:28:35.815Z</time></trkpt><trkpt lat="44.5786796" lon="8.5010525"><ele>401.0</ele><time>2026-03-24T10:28:37.814Z</time></trkpt><trkpt lat="44.5785682" lon="8.5010779"><ele>402.0</ele><time>2026-03-24T10:28:39.813Z</time></trkpt><trkpt lat="44.5784925" lon="8.501127"><ele>403.0</ele><time>2026-03-24T10:28:40.813Z</time></trkpt><trkpt lat="44.5783843" lon="8.5011847"><ele>404.0</ele><time>2026-03-24T10:28:41.815Z</time></trkpt><trkpt lat="44.5782625" lon="8.5012201"><ele>404.0</ele><time>2026-03-24T10:28:42.814Z</time></trkpt><trkpt lat="44.5781215" lon="8.5012288"><ele>404.0</ele><time>2026-03-24T10:28:43.814Z</time></trkpt><trkpt lat="44.5779879" lon="8.5012429"><ele>404.0</ele><time>2026-03-24T10:28:44.814Z</time></trkpt><trkpt lat="44.5778591" lon="8.50126"><ele>404.0</ele><time>2026-03-24T10:28:45.813Z</time></trkpt><trkpt lat="44.5777537" lon="8.5012754"><ele>406.4</ele><time>2026-03-24T10:28:46.815Z</time></trkpt><trkpt lat="44.5776711" lon="8.5012854"><ele>408.79999999999995</ele><time>2026-03-24T10:28:47.814Z</time></trkpt><trkpt lat="44.5776005" lon="8.5012849"><ele>411.20000000000005</ele><time>2026-03-24T10:28:48.814Z</time></trkpt><trkpt lat="44.5775133" lon="8.5012557"><ele>413.6</ele><time>2026-03-24T10:28:50.815Z</time></trkpt><trkpt lat="44.5774211" lon="8.5012776"><ele>416.0</ele><time>2026-03-24T10:28:52.815Z</time></trkpt><trkpt lat="44.5772838" lon="8.5013343"><ele>416.0</ele><time>2026-03-24T10:28:54.814Z</time></trkpt><trkpt lat="44.5771826" lon="8.501355"><ele>416.0</ele><time>2026-03-24T10:28:55.816Z</time></trkpt><trkpt lat="44.5770831" lon="8.5013904"><ele>416.0</ele><time>2026-03-24T10:28:56.814Z</time></trkpt><trkpt lat="44.5769668" lon="8.5014145"><ele>416.0</ele><time>2026-03-24T10:28:57.815Z</time></trkpt><trkpt lat="44.5768367" lon="8.5014161"><ele>416.5</ele><time>2026-03-24T10:28:58.816Z</time></trkpt><trkpt lat="44.5766964" lon="8.5014092"><ele>417.0</ele><time>2026-03-24T10:28:59.814Z</time></trkpt><trkpt lat="44.5765494" lon="8.5013881"><ele>417.5</ele><time>2026-03-24T10:29:00.814Z</time></trkpt><trkpt lat="44.5764272" lon="8.5013714"><ele>418.0</ele><time>2026-03-24T10:29:01.813Z</time></trkpt><trkpt lat="44.576317" lon="8.5013637"><ele>418.00000000000006</ele><time>2026-03-24T10:29:02.815Z</time></trkpt><trkpt lat="44.5762133" lon="8.5013564"><ele>418.0</ele><time>2026-03-24T10:29:03.815Z</time></trkpt><trkpt lat="44.5761327" lon="8.5013612"><ele>418.0</ele><time>2026-03-24T10:29:04.815Z</time></trkpt><trkpt lat="44.5760656" lon="8.5013773"><ele>418.0</ele><time>2026-03-24T10:29:05.816Z</time></trkpt><trkpt lat="44.5759759" lon="8.5014016"><ele>418.00000000000006</ele><time>2026-03-24T10:29:07.815Z</time></trkpt><trkpt lat="44.5759078" lon="8.5014265"><ele>418.0</ele><time>2026-03-24T10:29:10.814Z</time></trkpt><trkpt lat="44.5758627" lon="8.5014973"><ele>418.2</ele><time>2026-03-24T10:29:15.814Z</time></trkpt><trkpt lat="44.5758229" lon="8.5015886"><ele>418.4</ele><time>2026-03-24T10:29:17.816Z</time></trkpt><trkpt lat="44.5757082" lon="8.501719"><ele>418.59999999999997</ele><time>2026-03-24T10:29:52.814Z</time></trkpt><trkpt lat="44.5757395" lon="8.5016399"><ele>418.79999999999995</ele><time>2026-03-24T10:31:28.812Z</time></trkpt><trkpt lat="44.5758478" lon="8.5016054"><ele>419.0</ele><time>2026-03-24T10:32:01.813Z</time></trkpt><trkpt lat="44.5757305" lon="8.5017326"><ele>419.0</ele><time>2026-03-24T10:33:20.815Z</time></trkpt><trkpt lat="44.5756295" lon="8.5018119"><ele>419.0</ele><time>2026-03-24T10:33:40.813Z</time></trkpt><trkpt lat="44.5755076" lon="8.501694"><ele>419.0</ele><time>2026-03-24T10:35:59.813Z</time></trkpt><trkpt lat="44.5753619" lon="8.5016977"><ele>419.0</ele><time>2026-03-24T10:36:01.812Z</time></trkpt><trkpt lat="44.5752894" lon="8.5017169"><ele>419.8333333333333</ele><time>2026-03-24T10:36:02.814Z</time></trkpt><trkpt lat="44.5751963" lon="8.5017464"><ele>420.66666666666663</ele><time>2026-03-24T10:36:03.812Z</time></trkpt><trkpt lat="44.5751091" lon="8.5017688"><ele>421.5</ele><time>2026-03-24T10:36:04.814Z</time></trkpt><trkpt lat="44.5750282" lon="8.5017898"><ele>422.33333333333337</ele><time>2026-03-24T10:36:05.812Z</time></trkpt><trkpt lat="44.5749468" lon="8.5018242"><ele>423.1666666666667</ele><time>2026-03-24T10:36:06.815Z</time></trkpt><trkpt lat="44.5748693" lon="8.5018669"><ele>424.0</ele><time>2026-03-24T10:36:07.813Z</time></trkpt><trkpt lat="44.5747989" lon="8.5019154"><ele>424.0</ele><time>2026-03-24T10:36:08.813Z</time></trkpt><trkpt lat="44.5747357" lon="8.5019546"><ele>424.0</ele><time>2026-03-24T10:36:09.813Z</time></trkpt><trkpt lat="44.5746716" lon="8.5019898"><ele>424.0</ele><time>2026-03-24T10:36:10.812Z</time></trkpt><trkpt lat="44.5746014" lon="8.5020175"><ele>424.0</ele><time>2026-03-24T10:36:11.813Z</time></trkpt><trkpt lat="44.5745339" lon="8.5020402"><ele>424.0</ele><time>2026-03-24T10:36:12.814Z</time></trkpt><trkpt lat="44.5744702" lon="8.5020678"><ele>424.0</ele><time>2026-03-24T10:36:13.814Z</time></trkpt><trkpt lat="44.5744083" lon="8.5021263"><ele>424.0</ele><time>2026-03-24T10:36:15.812Z</time></trkpt><trkpt lat="44.5743662" lon="8.5022202"><ele>425.4</ele><time>2026-03-24T10:36:17.816Z</time></trkpt><trkpt lat="44.5742967" lon="8.5022895"><ele>426.79999999999995</ele><time>2026-03-24T10:36:19.813Z</time></trkpt><trkpt lat="44.5742305" lon="8.5022566"><ele>428.20000000000005</ele><time>2026-03-24T10:36:22.814Z</time></trkpt><trkpt lat="44.5742441" lon="8.5021449"><ele>429.6</ele><time>2026-03-24T10:36:32.814Z</time></trkpt><trkpt lat="44.5742659" lon="8.501996"><ele>431.0</ele><time>2026-03-24T10:36:34.812Z</time></trkpt><trkpt lat="44.574312" lon="8.5018177"><ele>433.16666666666663</ele><time>2026-03-24T10:36:36.814Z</time></trkpt><trkpt lat="44.5743231" lon="8.5017092"><ele>435.3333333333333</ele><time>2026-03-24T10:36:38.815Z</time></trkpt><trkpt lat="44.5743333" lon="8.5016182"><ele>437.5</ele><time>2026-03-24T10:36:40.813Z</time></trkpt><trkpt lat="44.5743368" lon="8.5015235"><ele>439.66666666666663</ele><time>2026-03-24T10:36:43.813Z</time></trkpt><trkpt lat="44.5742835" lon="8.5014462"><ele>441.8333333333333</ele><time>2026-03-24T10:36:46.814Z</time></trkpt><trkpt lat="44.5741849" lon="8.5014903"><ele>444.0</ele><time>2026-03-24T10:36:48.814Z</time></trkpt><trkpt lat="44.5741141" lon="8.5015314"><ele>444.0</ele><time>2026-03-24T10:36:49.814Z</time></trkpt><trkpt lat="44.5740336" lon="8.5015734"><ele>444.0</ele><time>2026-03-24T10:36:50.815Z</time></trkpt><trkpt lat="44.573961" lon="8.5016151"><ele>444.0</ele><time>2026-03-24T10:36:51.813Z</time></trkpt><trkpt lat="44.5739014" lon="8.5016636"><ele>444.0</ele><time>2026-03-24T10:36:52.813Z</time></trkpt><trkpt lat="44.5738364" lon="8.5017082"><ele>444.0</ele><time>2026-03-24T10:36:53.815Z</time></trkpt><trkpt lat="44.5737389" lon="8.5017408"><ele>444.0</ele><time>2026-03-24T10:36:55.814Z</time></trkpt><trkpt lat="44.5736719" lon="8.5017185"><ele>446.1666666666667</ele><time>2026-03-24T10:36:57.814Z</time></trkpt><trkpt lat="44.5736245" lon="8.50162"><ele>448.33333333333337</ele><time>2026-03-24T10:36:59.814Z</time></trkpt><trkpt lat="44.5735997" lon="8.5015091"><ele>450.5</ele><time>2026-03-24T10:37:01.815Z</time></trkpt><trkpt lat="44.5735581" lon="8.5013938"><ele>452.6666666666667</ele><time>2026-03-24T10:37:03.813Z</time></trkpt><trkpt lat="44.5735241" lon="8.5013165"><ele>454.83333333333337</ele><time>2026-03-24T10:37:04.815Z</time></trkpt><trkpt lat="44.573491" lon="8.5012386"><ele>457.0</ele><time>2026-03-24T10:37:05.814Z</time></trkpt><trkpt lat="44.5734578" lon="8.5011603"><ele>460.1666666666667</ele><time>2026-03-24T10:37:06.815Z</time></trkpt><trkpt lat="44.5733817" lon="8.5010875"><ele>463.33333333333337</ele><time>2026-03-24T10:37:08.814Z</time></trkpt><trkpt lat="44.5733109" lon="8.5011402"><ele>466.5</ele><time>2026-03-24T10:37:10.814Z</time></trkpt><trkpt lat="44.5732201" lon="8.5011898"><ele>469.66666666666663</ele><time>2026-03-24T10:37:12.814Z</time></trkpt><trkpt lat="44.5731576" lon="8.501208"><ele>472.8333333333333</ele><time>2026-03-24T10:37:13.815Z</time></trkpt><trkpt lat="44.5730905" lon="8.5012101"><ele>476.0</ele><time>2026-03-24T10:37:14.815Z</time></trkpt><trkpt lat="44.5730267" lon="8.5011993"><ele>476.0</ele><time>2026-03-24T10:37:15.814Z</time></trkpt><trkpt lat="44.5729209" lon="8.501203"><ele>476.0</ele><time>2026-03-24T10:37:17.814Z</time></trkpt><trkpt lat="44.5728106" lon="8.501253"><ele>476.0</ele><time>2026-03-24T10:37:19.815Z</time></trkpt><trkpt lat="44.5727052" lon="8.501291"><ele>476.0</ele><time>2026-03-24T10:37:21.814Z</time></trkpt><trkpt lat="44.5726359" lon="8.5012841"><ele>476.0</ele><time>2026-03-24T10:37:22.813Z</time></trkpt><trkpt lat="44.5725603" lon="8.501248"><ele>478.20000000000005</ele><time>2026-03-24T10:37:23.814Z</time></trkpt><trkpt lat="44.5724823" lon="8.5011872"><ele>480.40000000000003</ele><time>2026-03-24T10:37:24.815Z</time></trkpt><trkpt lat="44.5723999" lon="8.5011318"><ele>482.6</ele><time>2026-03-24T10:37:25.815Z</time></trkpt><trkpt lat="44.5723186" lon="8.5010816"><ele>484.8</ele><time>2026-03-24T10:37:26.815Z</time></trkpt><trkpt lat="44.5722483" lon="8.5010339"><ele>487.0</ele><time>2026-03-24T10:37:27.813Z</time></trkpt><trkpt lat="44.5721328" lon="8.5009305"><ele>487.0</ele><time>2026-03-24T10:37:29.814Z</time></trkpt><trkpt lat="44.5720463" lon="8.5008569"><ele>487.00000000000006</ele><time>2026-03-24T10:37:31.814Z</time></trkpt><trkpt lat="44.5719757" lon="8.5007422"><ele>487.00000000000006</ele><time>2026-03-24T10:37:34.814Z</time></trkpt><trkpt lat="44.5719205" lon="8.50063"><ele>487.0</ele><time>2026-03-24T10:37:36.814Z</time></trkpt><trkpt lat="44.5718311" lon="8.5005593"><ele>487.0</ele><time>2026-03-24T10:37:38.814Z</time></trkpt><trkpt lat="44.5717282" lon="8.5005501"><ele>486.83333333333337</ele><time>2026-03-24T10:37:39.814Z</time></trkpt><trkpt lat="44.5716108" lon="8.5005515"><ele>486.6666666666667</ele><time>2026-03-24T10:37:40.814Z</time></trkpt><trkpt lat="44.5715228" lon="8.5005609"><ele>486.5</ele><time>2026-03-24T10:37:41.814Z</time></trkpt><trkpt lat="44.5714413" lon="8.5005872"><ele>486.33333333333337</ele><time>2026-03-24T10:37:43.814Z</time></trkpt><trkpt lat="44.571369" lon="8.50055"><ele>486.1666666666667</ele><time>2026-03-24T10:39:35.813Z</time></trkpt><trkpt lat="44.5712976" lon="8.5005412"><ele>486.0</ele><time>2026-03-24T10:39:40.815Z</time></trkpt><trkpt lat="44.5712014" lon="8.500486"><ele>486.1666666666667</ele><time>2026-03-24T10:39:44.813Z</time></trkpt><trkpt lat="44.5711464" lon="8.5004327"><ele>486.33333333333337</ele><time>2026-03-24T10:39:45.812Z</time></trkpt><trkpt lat="44.5710757" lon="8.5003627"><ele>486.5</ele><time>2026-03-24T10:39:46.814Z</time></trkpt><trkpt lat="44.5710065" lon="8.5002941"><ele>486.6666666666667</ele><time>2026-03-24T10:39:47.812Z</time></trkpt><trkpt lat="44.5709531" lon="8.5002223"><ele>486.83333333333337</ele><time>2026-03-24T10:39:48.812Z</time></trkpt><trkpt lat="44.5709094" lon="8.5001455"><ele>487.0</ele><time>2026-03-24T10:39:49.813Z</time></trkpt><trkpt lat="44.5708869" lon="8.5000484"><ele>487.00000000000006</ele><time>2026-03-24T10:39:50.812Z</time></trkpt><trkpt lat="44.5708653" lon="8.4999379"><ele>487.0</ele><time>2026-03-24T10:39:51.812Z</time></trkpt><trkpt lat="44.5708377" lon="8.4998137"><ele>487.0</ele><time>2026-03-24T10:39:52.814Z</time></trkpt><trkpt lat="44.5707943" lon="8.4997041"><ele>487.0</ele><time>2026-03-24T10:39:53.816Z</time></trkpt><trkpt lat="44.5707364" lon="8.4996134"><ele>487.00000000000006</ele><time>2026-03-24T10:39:54.813Z</time></trkpt><trkpt lat="44.5706778" lon="8.4995383"><ele>487.0</ele><time>2026-03-24T10:39:55.812Z</time></trkpt><trkpt lat="44.5706264" lon="8.499471"><ele>487.50000000000006</ele><time>2026-03-24T10:39:56.815Z</time></trkpt><trkpt lat="44.5705545" lon="8.499361"><ele>488.0</ele><time>2026-03-24T10:39:58.813Z</time></trkpt><trkpt lat="44.570514" lon="8.499287"><ele>488.5</ele><time>2026-03-24T10:40:02.813Z</time></trkpt><trkpt lat="44.5704769" lon="8.4992071"><ele>489.0</ele><time>2026-03-24T10:40:16.813Z</time></trkpt><trkpt lat="44.5704166" lon="8.4991588"><ele>489.50000000000006</ele><time>2026-03-24T10:40:19.812Z</time></trkpt><trkpt lat="44.5703497" lon="8.4991241"><ele>490.0</ele><time>2026-03-24T10:40:22.812Z</time></trkpt><trkpt lat="44.5702883" lon="8.4990708"><ele>490.0</ele><time>2026-03-24T10:40:26.812Z</time></trkpt><trkpt lat="44.5701585" lon="8.4990205"><ele>490.0</ele><time>2026-03-24T10:40:55.813Z</time></trkpt><trkpt lat="44.5700652" lon="8.4989957"><ele>490.0</ele><time>2026-03-24T10:40:57.813Z</time></trkpt><trkpt lat="44.5699902" lon="8.498974"><ele>490.0</ele><time>2026-03-24T10:40:58.812Z</time></trkpt><trkpt lat="44.5698618" lon="8.4989193"><ele>490.0</ele><time>2026-03-24T10:40:59.812Z</time></trkpt><trkpt lat="44.569746" lon="8.4988889"><ele>490.0</ele><time>2026-03-24T10:41:00.812Z</time></trkpt><trkpt lat="44.5695988" lon="8.4988691"><ele>490.0</ele><time>2026-03-24T10:41:01.814Z</time></trkpt><trkpt lat="44.5694566" lon="8.4988423"><ele>490.0</ele><time>2026-03-24T10:41:02.812Z</time></trkpt><trkpt lat="44.5693173" lon="8.4987955"><ele>490.0</ele><time>2026-03-24T10:41:03.812Z</time></trkpt><trkpt lat="44.5691763" lon="8.4987467"><ele>490.0</ele><time>2026-03-24T10:41:04.813Z</time></trkpt><trkpt lat="44.5690414" lon="8.4987124"><ele>490.0</ele><time>2026-03-24T10:41:05.812Z</time></trkpt><trkpt lat="44.5688992" lon="8.4986985"><ele>490.0</ele><time>2026-03-24T10:41:06.813Z</time></trkpt><trkpt lat="44.5687498" lon="8.4986883"><ele>490.0</ele><time>2026-03-24T10:41:07.813Z</time></trkpt><trkpt lat="44.5686016" lon="8.4986646"><ele>491.0</ele><time>2026-03-24T10:41:08.814Z</time></trkpt><trkpt lat="44.5684554" lon="8.498635"><ele>492.0</ele><time>2026-03-24T10:41:09.813Z</time></trkpt><trkpt lat="44.5682917" lon="8.4986076"><ele>493.0</ele><time>2026-03-24T10:41:10.814Z</time></trkpt><trkpt lat="44.5681257" lon="8.4985881"><ele>493.0</ele><time>2026-03-24T10:41:11.812Z</time></trkpt><trkpt lat="44.5679668" lon="8.4985699"><ele>493.0</ele><time>2026-03-24T10:41:12.812Z</time></trkpt><trkpt lat="44.5678299" lon="8.4985357"><ele>493.0</ele><time>2026-03-24T10:41:13.813Z</time></trkpt><trkpt lat="44.5677096" lon="8.4985037"><ele>493.0</ele><time>2026-03-24T10:41:14.813Z</time></trkpt><trkpt lat="44.5675978" lon="8.4984834"><ele>493.5</ele><time>2026-03-24T10:41:15.813Z</time></trkpt><trkpt lat="44.5674776" lon="8.4984983"><ele>494.0</ele><time>2026-03-24T10:41:16.814Z</time></trkpt><trkpt lat="44.5673647" lon="8.498534"><ele>494.5</ele><time>2026-03-24T10:41:17.814Z</time></trkpt><trkpt lat="44.5672524" lon="8.4985648"><ele>495.0</ele><time>2026-03-24T10:41:18.815Z</time></trkpt><trkpt lat="44.5671517" lon="8.4985745"><ele>495.0</ele><time>2026-03-24T10:41:19.814Z</time></trkpt><trkpt lat="44.5670771" lon="8.4985951"><ele>495.0</ele><time>2026-03-24T10:41:20.814Z</time></trkpt><trkpt lat="44.5670122" lon="8.4986338"><ele>495.0</ele><time>2026-03-24T10:41:21.813Z</time></trkpt><trkpt lat="44.566957" lon="8.4986778"><ele>495.0</ele><time>2026-03-24T10:41:22.814Z</time></trkpt><trkpt lat="44.5668674" lon="8.4987403"><ele>495.0</ele><time>2026-03-24T10:41:24.814Z</time></trkpt><trkpt lat="44.5667398" lon="8.4986506"><ele>495.6</ele><time>2026-03-24T10:41:26.815Z</time></trkpt><trkpt lat="44.5666771" lon="8.4985884"><ele>496.2</ele><time>2026-03-24T10:41:27.813Z</time></trkpt><trkpt lat="44.5666123" lon="8.4985347"><ele>496.79999999999995</ele><time>2026-03-24T10:41:28.814Z</time></trkpt><trkpt lat="44.566513" lon="8.4985128"><ele>497.4</ele><time>2026-03-24T10:41:30.814Z</time></trkpt><trkpt lat="44.5664195" lon="8.498736"><ele>498.0</ele><time>2026-03-24T10:41:32.815Z</time></trkpt><trkpt lat="44.5663696" lon="8.4988992"><ele>502.0</ele><time>2026-03-24T10:41:33.813Z</time></trkpt><trkpt lat="44.5663408" lon="8.499071"><ele>505.99999999999994</ele><time>2026-03-24T10:41:34.813Z</time></trkpt><trkpt lat="44.5663224" lon="8.4992307"><ele>509.99999999999994</ele><time>2026-03-24T10:41:35.815Z</time></trkpt><trkpt lat="44.5663007" lon="8.4993818"><ele>514.0</ele><time>2026-03-24T10:41:36.813Z</time></trkpt><trkpt lat="44.5662645" lon="8.499507"><ele>518.0</ele><time>2026-03-24T10:41:37.814Z</time></trkpt><trkpt lat="44.5662187" lon="8.4996107"><ele>519.8</ele><time>2026-03-24T10:41:38.814Z</time></trkpt><trkpt lat="44.566157" lon="8.499696"><ele>521.5999999999999</ele><time>2026-03-24T10:41:39.814Z</time></trkpt><trkpt lat="44.566056" lon="8.499715"><ele>523.4000000000001</ele><time>2026-03-24T10:41:40.814Z</time></trkpt><trkpt lat="44.5659644" lon="8.4997263"><ele>525.2</ele><time>2026-03-24T10:41:41.813Z</time></trkpt><trkpt lat="44.5658706" lon="8.4997575"><ele>527.0</ele><time>2026-03-24T10:41:42.813Z</time></trkpt><trkpt lat="44.5657802" lon="8.4998161"><ele>527.0</ele><time>2026-03-24T10:41:43.813Z</time></trkpt><trkpt lat="44.5656711" lon="8.499927"><ele>527.0</ele><time>2026-03-24T10:41:44.815Z</time></trkpt><trkpt lat="44.5655809" lon="8.5000593"><ele>527.0</ele><time>2026-03-24T10:41:45.814Z</time></trkpt><trkpt lat="44.5655115" lon="8.5001853"><ele>527.0</ele><time>2026-03-24T10:41:46.815Z</time></trkpt><trkpt lat="44.5654549" lon="8.5002828"><ele>527.0</ele><time>2026-03-24T10:41:47.814Z</time></trkpt><trkpt lat="44.5654063" lon="8.5003515"><ele>527.0</ele><time>2026-03-24T10:41:48.815Z</time></trkpt><trkpt lat="44.5653288" lon="8.500379"><ele>527.0</ele><time>2026-03-24T10:41:50.815Z</time></trkpt><trkpt lat="44.5652901" lon="8.5002929"><ele>527.0</ele><time>2026-03-24T10:41:52.815Z</time></trkpt><trkpt lat="44.5652729" lon="8.5001962"><ele>527.0</ele><time>2026-03-24T10:41:54.815Z</time></trkpt><trkpt lat="44.5652616" lon="8.5000579"><ele>527.0</ele><time>2026-03-24T10:41:57.813Z</time></trkpt><trkpt lat="44.5653156" lon="8.4999386"><ele>528.2</ele><time>2026-03-24T10:42:22.813Z</time></trkpt><trkpt lat="44.565251" lon="8.4999667"><ele>529.4000000000001</ele><time>2026-03-24T10:42:25.813Z</time></trkpt><trkpt lat="44.5651823" lon="8.4999896"><ele>530.5999999999999</ele><time>2026-03-24T10:42:26.813Z</time></trkpt><trkpt lat="44.565084" lon="8.5000466"><ele>531.8</ele><time>2026-03-24T10:42:27.814Z</time></trkpt><trkpt lat="44.5649803" lon="8.50011"><ele>533.0</ele><time>2026-03-24T10:42:28.812Z</time></trkpt><trkpt lat="44.5648803" lon="8.5001685"><ele>533.0</ele><time>2026-03-24T10:42:29.812Z</time></trkpt><trkpt lat="44.5647774" lon="8.500217"><ele>533.0</ele><time>2026-03-24T10:42:30.812Z</time></trkpt><trkpt lat="44.5646859" lon="8.5002508"><ele>533.0</ele><time>2026-03-24T10:42:31.812Z</time></trkpt><trkpt lat="44.5645993" lon="8.5002954"><ele>533.0</ele><time>2026-03-24T10:42:32.813Z</time></trkpt><trkpt lat="44.564522" lon="8.5003412"><ele>533.0</ele><time>2026-03-24T10:42:33.813Z</time></trkpt><trkpt lat="44.5644552" lon="8.5003815"><ele>535.8333333333333</ele><time>2026-03-24T10:42:34.812Z</time></trkpt><trkpt lat="44.5643767" lon="8.5004093"><ele>538.6666666666666</ele><time>2026-03-24T10:42:35.813Z</time></trkpt><trkpt lat="44.5642998" lon="8.500424"><ele>541.5</ele><time>2026-03-24T10:42:36.813Z</time></trkpt><trkpt lat="44.5642292" lon="8.5004081"><ele>544.3333333333334</ele><time>2026-03-24T10:42:37.812Z</time></trkpt><trkpt lat="44.5641499" lon="8.5003408"><ele>547.1666666666667</ele><time>2026-03-24T10:42:39.813Z</time></trkpt><trkpt lat="44.5640834" lon="8.5003123"><ele>550.0</ele><time>2026-03-24T10:42:41.814Z</time></trkpt><trkpt lat="44.5640302" lon="8.500232"><ele>550.4</ele><time>2026-03-24T10:42:44.815Z</time></trkpt><trkpt lat="44.5639862" lon="8.500151"><ele>550.8</ele><time>2026-03-24T10:42:46.814Z</time></trkpt><trkpt lat="44.5639386" lon="8.5000579"><ele>551.2</ele><time>2026-03-24T10:42:48.814Z</time></trkpt><trkpt lat="44.5638645" lon="8.4999092"><ele>551.6</ele><time>2026-03-24T10:42:50.814Z</time></trkpt><trkpt lat="44.5638136" lon="8.4998364"><ele>552.0</ele><time>2026-03-24T10:42:51.813Z</time></trkpt><trkpt lat="44.56376" lon="8.499697"><ele>552.0</ele><time>2026-03-24T10:42:53.814Z</time></trkpt><trkpt lat="44.5638192" lon="8.4995938"><ele>552.0</ele><time>2026-03-24T10:42:54.815Z</time></trkpt><trkpt lat="44.563732" lon="8.499529"><ele>552.0</ele><time>2026-03-24T10:42:57.814Z</time></trkpt><trkpt lat="44.563608" lon="8.4995412"><ele>552.0</ele><time>2026-03-24T10:42:59.814Z</time></trkpt><trkpt lat="44.563532" lon="8.499601"><ele>552.0</ele><time>2026-03-24T10:43:00.814Z</time></trkpt><trkpt lat="44.563459" lon="8.4996563"><ele>556.4</ele><time>2026-03-24T10:43:01.815Z</time></trkpt><trkpt lat="44.5633911" lon="8.4997305"><ele>560.8000000000001</ele><time>2026-03-24T10:43:02.815Z</time></trkpt><trkpt lat="44.5633043" lon="8.4998074"><ele>565.2</ele><time>2026-03-24T10:43:04.814Z</time></trkpt><trkpt lat="44.5632727" lon="8.4998928"><ele>569.6</ele><time>2026-03-24T10:43:08.814Z</time></trkpt><trkpt lat="44.5632878" lon="8.5000236"><ele>574.0</ele><time>2026-03-24T10:43:50.814Z</time></trkpt><trkpt lat="44.5633004" lon="8.5001767"><ele>574.0</ele><time>2026-03-24T10:44:01.814Z</time></trkpt><trkpt lat="44.5633309" lon="8.5003003"><ele>574.0</ele><time>2026-03-24T10:44:28.813Z</time></trkpt><trkpt lat="44.5633629" lon="8.5004258"><ele>570.0</ele><time>2026-03-24T10:44:44.815Z</time></trkpt></trkseg><trkseg><trkpt lat="44.5634566" lon="8.5006915"><ele>570.0</ele><time>2026-03-24T11:00:00.812Z</time></trkpt><trkpt lat="44.5634835" lon="8.5004918"><ele>570.0</ele><time>2026-03-24T11:00:40.813Z</time></trkpt><trkpt lat="44.5635006" lon="8.5006201"><ele>570.0</ele><time>2026-03-24T11:02:08.812Z</time></trkpt><trkpt lat="44.5634356" lon="8.5006547"><ele>570.0</ele><time>2026-03-24T11:02:12.813Z</time></trkpt><trkpt lat="44.5633698" lon="8.5006973"><ele>570.0</ele><time>2026-03-24T11:02:21.812Z</time></trkpt><trkpt lat="44.5633171" lon="8.5007715"><ele>570.0</ele><time>2026-03-24T11:02:23.813Z</time></trkpt><trkpt lat="44.5632855" lon="8.5008907"><ele>570.0</ele><time>2026-03-24T11:02:25.812Z</time></trkpt><trkpt lat="44.5632512" lon="8.5010607"><ele>570.0</ele><time>2026-03-24T11:02:27.813Z</time></trkpt><trkpt lat="44.5632224" lon="8.5011555"><ele>570.0</ele><time>2026-03-24T11:02:28.812Z</time></trkpt><trkpt lat="44.5631752" lon="8.5012507"><ele>570.0</ele><time>2026-03-24T11:02:29.812Z</time></trkpt><trkpt lat="44.5631325" lon="8.5013513"><ele>570.2</ele><time>2026-03-24T11:02:30.813Z</time></trkpt><trkpt lat="44.5631032" lon="8.5014633"><ele>570.4</ele><time>2026-03-24T11:02:31.814Z</time></trkpt><trkpt lat="44.5630871" lon="8.5015856"><ele>570.6</ele><time>2026-03-24T11:02:32.813Z</time></trkpt><trkpt lat="44.5630773" lon="8.5017176"><ele>570.8</ele><time>2026-03-24T11:02:33.813Z</time></trkpt><trkpt lat="44.5630608" lon="8.501846"><ele>571.0</ele><time>2026-03-24T11:02:34.812Z</time></trkpt><trkpt lat="44.5630273" lon="8.5019657"><ele>571.0</ele><time>2026-03-24T11:02:35.813Z</time></trkpt><trkpt lat="44.5629776" lon="8.502072"><ele>571.0</ele><time>2026-03-24T11:02:36.812Z</time></trkpt><trkpt lat="44.5629172" lon="8.5021735"><ele>571.0</ele><time>2026-03-24T11:02:37.812Z</time></trkpt><trkpt lat="44.5628564" lon="8.5022776"><ele>571.0</ele><time>2026-03-24T11:02:38.813Z</time></trkpt><trkpt lat="44.5628056" lon="8.5023847"><ele>571.0</ele><time>2026-03-24T11:02:39.812Z</time></trkpt><trkpt lat="44.5627719" lon="8.5024932"><ele>573.0</ele><time>2026-03-24T11:02:40.812Z</time></trkpt><trkpt lat="44.5627501" lon="8.5025979"><ele>575.0</ele><time>2026-03-24T11:02:41.813Z</time></trkpt><trkpt lat="44.5627437" lon="8.5027003"><ele>577.0</ele><time>2026-03-24T11:02:42.812Z</time></trkpt><trkpt lat="44.5627475" lon="8.5027999"><ele>579.0</ele><time>2026-03-24T11:02:43.813Z</time></trkpt><trkpt lat="44.5628003" lon="8.5029531"><ele>581.0</ele><time>2026-03-24T11:02:45.812Z</time></trkpt><trkpt lat="44.5628656" lon="8.5030217"><ele>583.0</ele><time>2026-03-24T11:02:47.814Z</time></trkpt><trkpt lat="44.5627911" lon="8.5030369"><ele>587.0</ele><time>2026-03-24T11:02:54.812Z</time></trkpt><trkpt lat="44.5626879" lon="8.5031655"><ele>591.0</ele><time>2026-03-24T11:02:56.813Z</time></trkpt><trkpt lat="44.5626519" lon="8.5032767"><ele>595.0</ele><time>2026-03-24T11:02:57.812Z</time></trkpt><trkpt lat="44.5626407" lon="8.5034001"><ele>599.0</ele><time>2026-03-24T11:02:58.812Z</time></trkpt><trkpt lat="44.5626626" lon="8.5035153"><ele>603.0</ele><time>2026-03-24T11:02:59.812Z</time></trkpt><trkpt lat="44.562721" lon="8.5036469"><ele>605.5</ele><time>2026-03-24T11:03:00.812Z</time></trkpt><trkpt lat="44.5627882" lon="8.5037919"><ele>608.0</ele><time>2026-03-24T11:03:01.812Z</time></trkpt><trkpt lat="44.5628503" lon="8.503951"><ele>610.5</ele><time>2026-03-24T11:03:02.813Z</time></trkpt><trkpt lat="44.5628935" lon="8.5041166"><ele>613.0</ele><time>2026-03-24T11:03:03.812Z</time></trkpt><trkpt lat="44.562919" lon="8.5042768"><ele>607.4</ele><time>2026-03-24T11:03:04.814Z</time></trkpt><trkpt lat="44.5629385" lon="8.5044312"><ele>601.8</ele><time>2026-03-24T11:03:05.814Z</time></trkpt><trkpt lat="44.5629575" lon="8.5045745"><ele>596.2</ele><time>2026-03-24T11:03:06.812Z</time></trkpt><trkpt lat="44.5629742" lon="8.5047024"><ele>590.6</ele><time>2026-03-24T11:03:07.813Z</time></trkpt><trkpt lat="44.5629794" lon="8.504827"><ele>585.0</ele><time>2026-03-24T11:03:08.813Z</time></trkpt><trkpt lat="44.5629577" lon="8.5049357"><ele>585.0</ele><time>2026-03-24T11:03:09.812Z</time></trkpt><trkpt lat="44.5629058" lon="8.5050316"><ele>585.0</ele><time>2026-03-24T11:03:10.812Z</time></trkpt><trkpt lat="44.5628334" lon="8.5051084"><ele>585.0</ele><time>2026-03-24T11:03:11.812Z</time></trkpt><trkpt lat="44.5627412" lon="8.5051709"><ele>585.0</ele><time>2026-03-24T11:03:12.813Z</time></trkpt><trkpt lat="44.5626307" lon="8.5052114"><ele>585.0</ele><time>2026-03-24T11:03:13.813Z</time></trkpt><trkpt lat="44.562504" lon="8.5052396"><ele>588.5</ele><time>2026-03-24T11:03:14.814Z</time></trkpt><trkpt lat="44.5623737" lon="8.5052745"><ele>592.0</ele><time>2026-03-24T11:03:15.813Z</time></trkpt><trkpt lat="44.5622359" lon="8.5053362"><ele>595.5</ele><time>2026-03-24T11:03:16.813Z</time></trkpt><trkpt lat="44.5621063" lon="8.5054175"><ele>599.0</ele><time>2026-03-24T11:03:17.813Z</time></trkpt><trkpt lat="44.5619897" lon="8.5055039"><ele>602.5</ele><time>2026-03-24T11:03:18.812Z</time></trkpt><trkpt lat="44.5618713" lon="8.5055778"><ele>606.0</ele><time>2026-03-24T11:03:19.812Z</time></trkpt><trkpt lat="44.5617497" lon="8.505631"><ele>609.5</ele><time>2026-03-24T11:03:20.813Z</time></trkpt><trkpt lat="44.5616222" lon="8.5056696"><ele>613.0</ele><time>2026-03-24T11:03:21.812Z</time></trkpt><trkpt lat="44.5614953" lon="8.505703"><ele>613.0</ele><time>2026-03-24T11:03:22.813Z</time></trkpt><trkpt lat="44.5613765" lon="8.5057088"><ele>613.0</ele><time>2026-03-24T11:03:23.812Z</time></trkpt><trkpt lat="44.5612676" lon="8.5056778"><ele>613.0</ele><time>2026-03-24T11:03:24.813Z</time></trkpt><trkpt lat="44.5611671" lon="8.5056462"><ele>613.0</ele><time>2026-03-24T11:03:25.813Z</time></trkpt><trkpt lat="44.5610715" lon="8.5056438"><ele>613.0</ele><time>2026-03-24T11:03:26.813Z</time></trkpt><trkpt lat="44.5609677" lon="8.5056847"><ele>614.5</ele><time>2026-03-24T11:03:27.815Z</time></trkpt><trkpt lat="44.560868" lon="8.5057552"><ele>616.0</ele><time>2026-03-24T11:03:28.812Z</time></trkpt><trkpt lat="44.5607716" lon="8.5058302"><ele>617.5</ele><time>2026-03-24T11:03:29.814Z</time></trkpt><trkpt lat="44.5606697" lon="8.5058933"><ele>619.0</ele><time>2026-03-24T11:03:30.812Z</time></trkpt><trkpt lat="44.5605535" lon="8.5059474"><ele>619.0</ele><time>2026-03-24T11:03:31.813Z</time></trkpt><trkpt lat="44.5604261" lon="8.5059961"><ele>619.0</ele><time>2026-03-24T11:03:32.814Z</time></trkpt><trkpt lat="44.560287" lon="8.5060384"><ele>619.0</ele><time>2026-03-24T11:03:33.812Z</time></trkpt><trkpt lat="44.5601407" lon="8.5060786"><ele>619.0</ele><time>2026-03-24T11:03:34.813Z</time></trkpt><trkpt lat="44.5599937" lon="8.5061199"><ele>619.75</ele><time>2026-03-24T11:03:35.813Z</time></trkpt><trkpt lat="44.55985" lon="8.5061601"><ele>620.5</ele><time>2026-03-24T11:03:36.813Z</time></trkpt><trkpt lat="44.5597072" lon="8.5061965"><ele>621.25</ele><time>2026-03-24T11:03:37.814Z</time></trkpt><trkpt lat="44.5595704" lon="8.5062304"><ele>622.0</ele><time>2026-03-24T11:03:38.815Z</time></trkpt><trkpt lat="44.5594358" lon="8.5062695"><ele>624.0</ele><time>2026-03-24T11:03:39.812Z</time></trkpt><trkpt lat="44.5593095" lon="8.5063158"><ele>626.0</ele><time>2026-03-24T11:03:40.814Z</time></trkpt><trkpt lat="44.5591895" lon="8.506381"><ele>628.0</ele><time>2026-03-24T11:03:41.813Z</time></trkpt><trkpt lat="44.5590786" lon="8.5064605"><ele>630.0</ele><time>2026-03-24T11:03:42.813Z</time></trkpt><trkpt lat="44.5589684" lon="8.5065339"><ele>630.0</ele><time>2026-03-24T11:03:43.812Z</time></trkpt><trkpt lat="44.5588518" lon="8.506591"><ele>630.0</ele><time>2026-03-24T11:03:44.813Z</time></trkpt><trkpt lat="44.5587375" lon="8.5066476"><ele>630.0</ele><time>2026-03-24T11:03:45.812Z</time></trkpt><trkpt lat="44.558631" lon="8.5067142"><ele>630.0</ele><time>2026-03-24T11:03:46.812Z</time></trkpt><trkpt lat="44.5585258" lon="8.5067868"><ele>630.75</ele><time>2026-03-24T11:03:47.812Z</time></trkpt><trkpt lat="44.5584143" lon="8.5068552"><ele>631.5</ele><time>2026-03-24T11:03:48.814Z</time></trkpt><trkpt lat="44.5583022" lon="8.5069231"><ele>632.25</ele><time>2026-03-24T11:03:49.814Z</time></trkpt><trkpt lat="44.5581883" lon="8.5069909"><ele>633.0</ele><time>2026-03-24T11:03:50.813Z</time></trkpt><trkpt lat="44.5580701" lon="8.5070612"><ele>633.0</ele><time>2026-03-24T11:03:51.814Z</time></trkpt><trkpt lat="44.5579522" lon="8.507144"><ele>633.0</ele><time>2026-03-24T11:03:52.812Z</time></trkpt><trkpt lat="44.5578385" lon="8.5072511"><ele>633.0</ele><time>2026-03-24T11:03:53.813Z</time></trkpt><trkpt lat="44.5577246" lon="8.5073808"><ele>633.0</ele><time>2026-03-24T11:03:54.812Z</time></trkpt><trkpt lat="44.5576185" lon="8.5075227"><ele>633.0</ele><time>2026-03-24T11:03:55.812Z</time></trkpt><trkpt lat="44.5575115" lon="8.5076663"><ele>633.0</ele><time>2026-03-24T11:03:56.812Z</time></trkpt><trkpt lat="44.557413" lon="8.5077958"><ele>633.0</ele><time>2026-03-24T11:03:57.813Z</time></trkpt><trkpt lat="44.5573233" lon="8.5079155"><ele>633.0</ele><time>2026-03-24T11:03:58.814Z</time></trkpt><trkpt lat="44.5572378" lon="8.5080484"><ele>634.1999999999999</ele><time>2026-03-24T11:03:59.814Z</time></trkpt><trkpt lat="44.5571696" lon="8.5081795"><ele>635.4</ele><time>2026-03-24T11:04:00.814Z</time></trkpt><trkpt lat="44.5571082" lon="8.5082994"><ele>636.5999999999999</ele><time>2026-03-24T11:04:01.812Z</time></trkpt><trkpt lat="44.5570501" lon="8.5083787"><ele>637.8</ele><time>2026-03-24T11:04:02.815Z</time></trkpt><trkpt lat="44.5569981" lon="8.5084315"><ele>639.0</ele><time>2026-03-24T11:04:03.812Z</time></trkpt><trkpt lat="44.5568967" lon="8.508423"><ele>642.5</ele><time>2026-03-24T11:04:05.813Z</time></trkpt><trkpt lat="44.5568724" lon="8.5083278"><ele>646.0</ele><time>2026-03-24T11:04:06.812Z</time></trkpt><trkpt lat="44.5568109" lon="8.5082141"><ele>649.5</ele><time>2026-03-24T11:04:07.813Z</time></trkpt><trkpt lat="44.556757" lon="8.5081363"><ele>653.0</ele><time>2026-03-24T11:04:08.813Z</time></trkpt><trkpt lat="44.5566951" lon="8.5080761"><ele>656.5</ele><time>2026-03-24T11:04:09.812Z</time></trkpt><trkpt lat="44.5566236" lon="8.5080436"><ele>660.0</ele><time>2026-03-24T11:04:12.813Z</time></trkpt><trkpt lat="44.5566396" lon="8.5082049"><ele>660.0</ele><time>2026-03-24T11:04:15.812Z</time></trkpt><trkpt lat="44.5566839" lon="8.5083127"><ele>660.0</ele><time>2026-03-24T11:04:16.812Z</time></trkpt><trkpt lat="44.5567309" lon="8.5084413"><ele>660.0</ele><time>2026-03-24T11:04:17.813Z</time></trkpt><trkpt lat="44.5567884" lon="8.5085939"><ele>660.0</ele><time>2026-03-24T11:04:18.813Z</time></trkpt><trkpt lat="44.5568478" lon="8.5087487"><ele>660.0</ele><time>2026-03-24T11:04:19.813Z</time></trkpt><trkpt lat="44.5569131" lon="8.508897"><ele>662.5</ele><time>2026-03-24T11:04:20.813Z</time></trkpt><trkpt lat="44.5569769" lon="8.5090363"><ele>665.0</ele><time>2026-03-24T11:04:21.812Z</time></trkpt><trkpt lat="44.5570292" lon="8.5091867"><ele>667.5</ele><time>2026-03-24T11:04:22.812Z</time></trkpt><trkpt lat="44.5570724" lon="8.5093554"><ele>670.0</ele><time>2026-03-24T11:04:23.815Z</time></trkpt><trkpt lat="44.5571167" lon="8.5095295"><ele>666.25</ele><time>2026-03-24T11:04:24.814Z</time></trkpt><trkpt lat="44.5571694" lon="8.5096992"><ele>662.5</ele><time>2026-03-24T11:04:25.815Z</time></trkpt><trkpt lat="44.5572128" lon="8.5098599"><ele>658.75</ele><time>2026-03-24T11:04:26.813Z</time></trkpt><trkpt lat="44.5572308" lon="8.5100119"><ele>655.0</ele><time>2026-03-24T11:04:27.813Z</time></trkpt><trkpt lat="44.5572217" lon="8.5101378"><ele>655.0</ele><time>2026-03-24T11:04:28.813Z</time></trkpt><trkpt lat="44.5572151" lon="8.5102492"><ele>655.0</ele><time>2026-03-24T11:04:29.813Z</time></trkpt><trkpt lat="44.5572241" lon="8.5103487"><ele>655.0</ele><time>2026-03-24T11:04:30.813Z</time></trkpt><trkpt lat="44.5573121" lon="8.5104456"><ele>655.0</ele><time>2026-03-24T11:04:32.814Z</time></trkpt><trkpt lat="44.5573903" lon="8.5104685"><ele>655.0</ele><time>2026-03-24T11:04:33.812Z</time></trkpt><trkpt lat="44.5574718" lon="8.5105135"><ele>655.0</ele><time>2026-03-24T11:04:34.814Z</time></trkpt><trkpt lat="44.5575495" lon="8.510596"><ele>657.6</ele><time>2026-03-24T11:04:35.815Z</time></trkpt><trkpt lat="44.5576207" lon="8.5106941"><ele>660.2</ele><time>2026-03-24T11:04:36.813Z</time></trkpt><trkpt lat="44.557684" lon="8.5107999"><ele>662.8</ele><time>2026-03-24T11:04:37.813Z</time></trkpt><trkpt lat="44.5577339" lon="8.5109076"><ele>665.4</ele><time>2026-03-24T11:04:38.813Z</time></trkpt><trkpt lat="44.557764" lon="8.5110282"><ele>668.0</ele><time>2026-03-24T11:04:39.812Z</time></trkpt><trkpt lat="44.5577917" lon="8.511163"><ele>669.0</ele><time>2026-03-24T11:04:40.812Z</time></trkpt><trkpt lat="44.5578321" lon="8.5113065"><ele>670.0</ele><time>2026-03-24T11:04:41.812Z</time></trkpt><trkpt lat="44.5578952" lon="8.5114507"><ele>671.0</ele><time>2026-03-24T11:04:42.813Z</time></trkpt><trkpt lat="44.5579808" lon="8.511595"><ele>672.0</ele><time>2026-03-24T11:04:43.813Z</time></trkpt><trkpt lat="44.5580741" lon="8.5117353"><ele>668.25</ele><time>2026-03-24T11:04:44.813Z</time></trkpt><trkpt lat="44.5581663" lon="8.5118716"><ele>664.5</ele><time>2026-03-24T11:04:45.813Z</time></trkpt><trkpt lat="44.5582564" lon="8.512008"><ele>660.75</ele><time>2026-03-24T11:04:46.813Z</time></trkpt><trkpt lat="44.5583385" lon="8.5121522"><ele>657.0</ele><time>2026-03-24T11:04:47.813Z</time></trkpt><trkpt lat="44.5584024" lon="8.5123147"><ele>654.5</ele><time>2026-03-24T11:04:48.812Z</time></trkpt><trkpt lat="44.5584494" lon="8.5124892"><ele>652.0</ele><time>2026-03-24T11:04:49.813Z</time></trkpt><trkpt lat="44.5585012" lon="8.5126705"><ele>649.5</ele><time>2026-03-24T11:04:50.813Z</time></trkpt><trkpt lat="44.5585646" lon="8.5128487"><ele>647.0</ele><time>2026-03-24T11:04:51.813Z</time></trkpt><trkpt lat="44.5586357" lon="8.5130191"><ele>645.5</ele><time>2026-03-24T11:04:52.812Z</time></trkpt><trkpt lat="44.5587119" lon="8.5131821"><ele>644.0</ele><time>2026-03-24T11:04:53.812Z</time></trkpt><trkpt lat="44.5587886" lon="8.5133315"><ele>642.5</ele><time>2026-03-24T11:04:54.812Z</time></trkpt><trkpt lat="44.5588694" lon="8.5134673"><ele>641.0</ele><time>2026-03-24T11:04:55.813Z</time></trkpt><trkpt lat="44.5589666" lon="8.5135874"><ele>641.0</ele><time>2026-03-24T11:04:56.815Z</time></trkpt><trkpt lat="44.5590879" lon="8.5136891"><ele>641.0</ele><time>2026-03-24T11:04:57.814Z</time></trkpt><trkpt lat="44.5592221" lon="8.5137712"><ele>641.0</ele><time>2026-03-24T11:04:58.812Z</time></trkpt><trkpt lat="44.559364" lon="8.5138364"><ele>641.0</ele><time>2026-03-24T11:04:59.813Z</time></trkpt><trkpt lat="44.5595105" lon="8.5138869"><ele>642.5</ele><time>2026-03-24T11:05:00.813Z</time></trkpt><trkpt lat="44.5596553" lon="8.5139282"><ele>644.0</ele><time>2026-03-24T11:05:01.814Z</time></trkpt><trkpt lat="44.5597889" lon="8.5139657"><ele>645.5</ele><time>2026-03-24T11:05:02.813Z</time></trkpt><trkpt lat="44.5599157" lon="8.5140141"><ele>647.0</ele><time>2026-03-24T11:05:03.812Z</time></trkpt><trkpt lat="44.5600395" lon="8.5140917"><ele>647.0</ele><time>2026-03-24T11:05:04.814Z</time></trkpt><trkpt lat="44.5601581" lon="8.5141852"><ele>647.0</ele><time>2026-03-24T11:05:05.813Z</time></trkpt><trkpt lat="44.560275" lon="8.514266"><ele>647.0</ele><time>2026-03-24T11:05:06.812Z</time></trkpt><trkpt lat="44.560394" lon="8.5143201"><ele>647.0</ele><time>2026-03-24T11:05:07.814Z</time></trkpt><trkpt lat="44.5605154" lon="8.5143517"><ele>647.2</ele><time>2026-03-24T11:05:08.812Z</time></trkpt><trkpt lat="44.5606307" lon="8.5143787"><ele>647.4000000000001</ele><time>2026-03-24T11:05:09.814Z</time></trkpt><trkpt lat="44.5607227" lon="8.5144178"><ele>647.5999999999999</ele><time>2026-03-24T11:05:10.813Z</time></trkpt><trkpt lat="44.5607941" lon="8.5144813"><ele>647.8</ele><time>2026-03-24T11:05:11.813Z</time></trkpt><trkpt lat="44.5608366" lon="8.5145767"><ele>648.0</ele><time>2026-03-24T11:05:12.814Z</time></trkpt><trkpt lat="44.5608348" lon="8.5147141"><ele>648.0</ele><time>2026-03-24T11:05:13.813Z</time></trkpt><trkpt lat="44.5608513" lon="8.5148683"><ele>648.0</ele><time>2026-03-24T11:05:14.813Z</time></trkpt><trkpt lat="44.5608776" lon="8.5150301"><ele>648.0</ele><time>2026-03-24T11:05:15.813Z</time></trkpt><trkpt lat="44.5609234" lon="8.5151968"><ele>648.0</ele><time>2026-03-24T11:05:16.814Z</time></trkpt><trkpt lat="44.5609715" lon="8.51536"><ele>649.2</ele><time>2026-03-24T11:05:17.814Z</time></trkpt><trkpt lat="44.5610261" lon="8.5155167"><ele>650.4</ele><time>2026-03-24T11:05:18.812Z</time></trkpt><trkpt lat="44.5610788" lon="8.5156683"><ele>651.6</ele><time>2026-03-24T11:05:19.815Z</time></trkpt><trkpt lat="44.561128" lon="8.515799"><ele>652.8000000000001</ele><time>2026-03-24T11:05:20.813Z</time></trkpt><trkpt lat="44.5611807" lon="8.5159017"><ele>654.0</ele><time>2026-03-24T11:05:21.812Z</time></trkpt><trkpt lat="44.5612488" lon="8.5159699"><ele>651.6</ele><time>2026-03-24T11:05:22.814Z</time></trkpt><trkpt lat="44.5613345" lon="8.5160019"><ele>649.2</ele><time>2026-03-24T11:05:23.813Z</time></trkpt><trkpt lat="44.5614307" lon="8.5159949"><ele>646.8000000000001</ele><time>2026-03-24T11:05:24.814Z</time></trkpt><trkpt lat="44.561527" lon="8.5159994"><ele>644.4000000000001</ele><time>2026-03-24T11:05:25.814Z</time></trkpt><trkpt lat="44.5616203" lon="8.5160312"><ele>642.0</ele><time>2026-03-24T11:05:26.813Z</time></trkpt><trkpt lat="44.5617108" lon="8.5161113"><ele>642.0</ele><time>2026-03-24T11:05:27.814Z</time></trkpt><trkpt lat="44.5617926" lon="8.5162167"><ele>642.0</ele><time>2026-03-24T11:05:28.813Z</time></trkpt><trkpt lat="44.5618608" lon="8.5163326"><ele>642.0</ele><time>2026-03-24T11:05:29.813Z</time></trkpt><trkpt lat="44.5619085" lon="8.516459"><ele>642.0</ele><time>2026-03-24T11:05:30.814Z</time></trkpt><trkpt lat="44.561937" lon="8.5165922"><ele>642.0</ele><time>2026-03-24T11:05:31.815Z</time></trkpt><trkpt lat="44.561954" lon="8.5167436"><ele>641.25</ele><time>2026-03-24T11:05:32.813Z</time></trkpt><trkpt lat="44.5619709" lon="8.5169072"><ele>640.5</ele><time>2026-03-24T11:05:33.813Z</time></trkpt><trkpt lat="44.5619905" lon="8.517072"><ele>639.75</ele><time>2026-03-24T11:05:34.814Z</time></trkpt><trkpt lat="44.5620222" lon="8.5172412"><ele>639.0</ele><time>2026-03-24T11:05:35.814Z</time></trkpt><trkpt lat="44.562068" lon="8.5174061"><ele>639.0</ele><time>2026-03-24T11:05:36.814Z</time></trkpt><trkpt lat="44.5621134" lon="8.5175611"><ele>639.0</ele><time>2026-03-24T11:05:37.813Z</time></trkpt><trkpt lat="44.5621555" lon="8.517706"><ele>639.0</ele><time>2026-03-24T11:05:38.814Z</time></trkpt><trkpt lat="44.5621994" lon="8.5178323"><ele>639.0</ele><time>2026-03-24T11:05:39.813Z</time></trkpt><trkpt lat="44.5622576" lon="8.5179189"><ele>639.0</ele><time>2026-03-24T11:05:40.815Z</time></trkpt><trkpt lat="44.5623339" lon="8.5179751"><ele>641.4</ele><time>2026-03-24T11:05:41.813Z</time></trkpt><trkpt lat="44.5624178" lon="8.5180051"><ele>643.8</ele><time>2026-03-24T11:05:42.814Z</time></trkpt><trkpt lat="44.5625115" lon="8.5179962"><ele>646.1999999999999</ele><time>2026-03-24T11:05:43.813Z</time></trkpt><trkpt lat="44.5626381" lon="8.5179475"><ele>648.5999999999999</ele><time>2026-03-24T11:05:44.813Z</time></trkpt><trkpt lat="44.5627671" lon="8.5179139"><ele>651.0</ele><time>2026-03-24T11:05:45.813Z</time></trkpt><trkpt lat="44.5629066" lon="8.5179023"><ele>646.5</ele><time>2026-03-24T11:05:46.812Z</time></trkpt><trkpt lat="44.5630511" lon="8.5179"><ele>642.0</ele><time>2026-03-24T11:05:47.812Z</time></trkpt><trkpt lat="44.5631955" lon="8.5178952"><ele>637.5</ele><time>2026-03-24T11:05:48.813Z</time></trkpt><trkpt lat="44.5633353" lon="8.5178782"><ele>633.0</ele><time>2026-03-24T11:05:49.812Z</time></trkpt><trkpt lat="44.5634686" lon="8.517859"><ele>633.0</ele><time>2026-03-24T11:05:50.813Z</time></trkpt><trkpt lat="44.5636014" lon="8.5178526"><ele>633.0</ele><time>2026-03-24T11:05:51.812Z</time></trkpt><trkpt lat="44.563743" lon="8.5178697"><ele>633.0</ele><time>2026-03-24T11:05:52.813Z</time></trkpt><trkpt lat="44.5638948" lon="8.5179078"><ele>633.0</ele><time>2026-03-24T11:05:53.813Z</time></trkpt><trkpt lat="44.5640414" lon="8.5179637"><ele>634.5</ele><time>2026-03-24T11:05:54.813Z</time></trkpt><trkpt lat="44.5641762" lon="8.5180154"><ele>636.0</ele><time>2026-03-24T11:05:55.813Z</time></trkpt><trkpt lat="44.5643068" lon="8.5180498"><ele>637.5</ele><time>2026-03-24T11:05:56.813Z</time></trkpt><trkpt lat="44.5644351" lon="8.5180552"><ele>639.0</ele><time>2026-03-24T11:05:57.813Z</time></trkpt><trkpt lat="44.5645615" lon="8.5180357"><ele>639.0</ele><time>2026-03-24T11:05:58.811Z</time></trkpt><trkpt lat="44.5646833" lon="8.5179958"><ele>639.0</ele><time>2026-03-24T11:05:59.813Z</time></trkpt><trkpt lat="44.5648133" lon="8.5179672"><ele>639.0</ele><time>2026-03-24T11:06:00.812Z</time></trkpt><trkpt lat="44.5649447" lon="8.5179608"><ele>639.0</ele><time>2026-03-24T11:06:01.812Z</time></trkpt><trkpt lat="44.5650732" lon="8.5179618"><ele>639.0</ele><time>2026-03-24T11:06:02.813Z</time></trkpt><trkpt lat="44.5651896" lon="8.517951"><ele>639.0</ele><time>2026-03-24T11:06:03.813Z</time></trkpt><trkpt lat="44.5653172" lon="8.5179355"><ele>639.0</ele><time>2026-03-24T11:06:04.811Z</time></trkpt><trkpt lat="44.5654421" lon="8.5179118"><ele>639.0</ele><time>2026-03-24T11:06:05.812Z</time></trkpt><trkpt lat="44.5655625" lon="8.5178849"><ele>639.75</ele><time>2026-03-24T11:06:06.811Z</time></trkpt><trkpt lat="44.5656805" lon="8.5178724"><ele>640.5</ele><time>2026-03-24T11:06:07.812Z</time></trkpt><trkpt lat="44.5657983" lon="8.5178914"><ele>641.25</ele><time>2026-03-24T11:06:08.814Z</time></trkpt><trkpt lat="44.565907" lon="8.5179395"><ele>642.0</ele><time>2026-03-24T11:06:09.812Z</time></trkpt><trkpt lat="44.5660178" lon="8.5180095"><ele>640.8000000000001</ele><time>2026-03-24T11:06:10.813Z</time></trkpt><trkpt lat="44.5661235" lon="8.5180909"><ele>639.6</ele><time>2026-03-24T11:06:11.812Z</time></trkpt><trkpt lat="44.5662245" lon="8.5181676"><ele>638.4000000000001</ele><time>2026-03-24T11:06:12.812Z</time></trkpt><trkpt lat="44.5663231" lon="8.5182298"><ele>637.2</ele><time>2026-03-24T11:06:13.812Z</time></trkpt><trkpt lat="44.566422" lon="8.5182685"><ele>636.0</ele><time>2026-03-24T11:06:14.813Z</time></trkpt><trkpt lat="44.5665262" lon="8.5182707"><ele>636.0</ele><time>2026-03-24T11:06:15.813Z</time></trkpt><trkpt lat="44.5666448" lon="8.5182441"><ele>636.0</ele><time>2026-03-24T11:06:16.812Z</time></trkpt><trkpt lat="44.5667824" lon="8.518218"><ele>636.0</ele><time>2026-03-24T11:06:17.812Z</time></trkpt><trkpt lat="44.566937" lon="8.5182043"><ele>636.0</ele><time>2026-03-24T11:06:18.812Z</time></trkpt><trkpt lat="44.5671033" lon="8.5181911"><ele>635.6666666666666</ele><time>2026-03-24T11:06:19.811Z</time></trkpt><trkpt lat="44.5672669" lon="8.5181721"><ele>635.3333333333333</ele><time>2026-03-24T11:06:20.815Z</time></trkpt><trkpt lat="44.5674247" lon="8.5181542"><ele>635.0</ele><time>2026-03-24T11:06:21.812Z</time></trkpt><trkpt lat="44.5675747" lon="8.5181488"><ele>635.0</ele><time>2026-03-24T11:06:22.812Z</time></trkpt><trkpt lat="44.567719" lon="8.5181563"><ele>635.0</ele><time>2026-03-24T11:06:23.813Z</time></trkpt><trkpt lat="44.5678559" lon="8.518174"><ele>635.0</ele><time>2026-03-24T11:06:24.811Z</time></trkpt><trkpt lat="44.5679805" lon="8.5181964"><ele>635.0</ele><time>2026-03-24T11:06:25.814Z</time></trkpt><trkpt lat="44.5680936" lon="8.5182111"><ele>633.25</ele><time>2026-03-24T11:06:26.813Z</time></trkpt><trkpt lat="44.5682006" lon="8.518201"><ele>631.5</ele><time>2026-03-24T11:06:27.812Z</time></trkpt><trkpt lat="44.5683158" lon="8.518165"><ele>629.75</ele><time>2026-03-24T11:06:28.813Z</time></trkpt><trkpt lat="44.5684341" lon="8.5181131"><ele>628.0</ele><time>2026-03-24T11:06:29.812Z</time></trkpt><trkpt lat="44.5685494" lon="8.5180622"><ele>628.0</ele><time>2026-03-24T11:06:30.813Z</time></trkpt><trkpt lat="44.5686691" lon="8.5180266"><ele>628.0</ele><time>2026-03-24T11:06:31.812Z</time></trkpt><trkpt lat="44.5687918" lon="8.5180094"><ele>628.0</ele><time>2026-03-24T11:06:32.812Z</time></trkpt><trkpt lat="44.568911" lon="8.517982"><ele>628.0</ele><time>2026-03-24T11:06:33.812Z</time></trkpt><trkpt lat="44.5690261" lon="8.5179454"><ele>626.5</ele><time>2026-03-24T11:06:34.812Z</time></trkpt><trkpt lat="44.5691354" lon="8.5179172"><ele>625.0</ele><time>2026-03-24T11:06:35.814Z</time></trkpt><trkpt lat="44.5692452" lon="8.5179175"><ele>623.5</ele><time>2026-03-24T11:06:36.812Z</time></trkpt><trkpt lat="44.5693605" lon="8.5179412"><ele>622.0</ele><time>2026-03-24T11:06:37.813Z</time></trkpt><trkpt lat="44.5694798" lon="8.5179744"><ele>621.5</ele><time>2026-03-24T11:06:38.813Z</time></trkpt><trkpt lat="44.5696047" lon="8.5179918"><ele>621.0</ele><time>2026-03-24T11:06:39.812Z</time></trkpt><trkpt lat="44.5697319" lon="8.518006"><ele>620.5</ele><time>2026-03-24T11:06:40.812Z</time></trkpt><trkpt lat="44.5698538" lon="8.518034"><ele>620.0</ele><time>2026-03-24T11:06:41.812Z</time></trkpt><trkpt lat="44.569972" lon="8.5180923"><ele>620.0</ele><time>2026-03-24T11:06:42.812Z</time></trkpt><trkpt lat="44.5700928" lon="8.5181722"><ele>620.0</ele><time>2026-03-24T11:06:43.812Z</time></trkpt><trkpt lat="44.5702166" lon="8.5182581"><ele>620.0</ele><time>2026-03-24T11:06:44.815Z</time></trkpt><trkpt lat="44.5703396" lon="8.5183353"><ele>620.0</ele><time>2026-03-24T11:06:45.812Z</time></trkpt><trkpt lat="44.5704627" lon="8.5183923"><ele>621.0</ele><time>2026-03-24T11:06:46.812Z</time></trkpt><trkpt lat="44.5705755" lon="8.5184334"><ele>622.0</ele><time>2026-03-24T11:06:47.812Z</time></trkpt><trkpt lat="44.5707025" lon="8.5184737"><ele>623.0</ele><time>2026-03-24T11:06:48.812Z</time></trkpt><trkpt lat="44.5708207" lon="8.5185036"><ele>624.0</ele><time>2026-03-24T11:06:49.814Z</time></trkpt><trkpt lat="44.5709372" lon="8.5185443"><ele>624.0</ele><time>2026-03-24T11:06:50.812Z</time></trkpt><trkpt lat="44.5710567" lon="8.5186037"><ele>624.0</ele><time>2026-03-24T11:06:51.811Z</time></trkpt><trkpt lat="44.5711646" lon="8.5186711"><ele>624.0</ele><time>2026-03-24T11:06:52.812Z</time></trkpt><trkpt lat="44.5712751" lon="8.51874"><ele>624.0</ele><time>2026-03-24T11:06:53.813Z</time></trkpt><trkpt lat="44.571391" lon="8.5188098"><ele>622.75</ele><time>2026-03-24T11:06:54.813Z</time></trkpt><trkpt lat="44.5715075" lon="8.5188805"><ele>621.5</ele><time>2026-03-24T11:06:55.813Z</time></trkpt><trkpt lat="44.5716242" lon="8.5189529"><ele>620.25</ele><time>2026-03-24T11:06:56.813Z</time></trkpt><trkpt lat="44.5717431" lon="8.5190264"><ele>619.0</ele><time>2026-03-24T11:06:57.812Z</time></trkpt><trkpt lat="44.5718588" lon="8.5190967"><ele>619.0</ele><time>2026-03-24T11:06:58.812Z</time></trkpt><trkpt lat="44.571971" lon="8.5191684"><ele>619.0</ele><time>2026-03-24T11:06:59.814Z</time></trkpt><trkpt lat="44.5720809" lon="8.5192477"><ele>619.0</ele><time>2026-03-24T11:07:00.811Z</time></trkpt><trkpt lat="44.5721949" lon="8.5193345"><ele>619.0</ele><time>2026-03-24T11:07:01.813Z</time></trkpt><trkpt lat="44.5723125" lon="8.5194244"><ele>619.5</ele><time>2026-03-24T11:07:02.813Z</time></trkpt><trkpt lat="44.5724319" lon="8.5195138"><ele>620.0</ele><time>2026-03-24T11:07:03.813Z</time></trkpt><trkpt lat="44.5725493" lon="8.5196034"><ele>620.5</ele><time>2026-03-24T11:07:04.813Z</time></trkpt><trkpt lat="44.5726612" lon="8.5196901"><ele>621.0</ele><time>2026-03-24T11:07:05.813Z</time></trkpt><trkpt lat="44.5727683" lon="8.5197727"><ele>622.8</ele><time>2026-03-24T11:07:06.812Z</time></trkpt><trkpt lat="44.5728755" lon="8.5198523"><ele>624.6</ele><time>2026-03-24T11:07:07.814Z</time></trkpt><trkpt lat="44.572978" lon="8.5199287"><ele>626.4</ele><time>2026-03-24T11:07:08.813Z</time></trkpt><trkpt lat="44.5730703" lon="8.5200076"><ele>628.2</ele><time>2026-03-24T11:07:09.812Z</time></trkpt><trkpt lat="44.5731465" lon="8.520104"><ele>630.0</ele><time>2026-03-24T11:07:10.811Z</time></trkpt><trkpt lat="44.5732059" lon="8.5202211"><ele>630.0</ele><time>2026-03-24T11:07:11.813Z</time></trkpt><trkpt lat="44.5732444" lon="8.5203568"><ele>630.0</ele><time>2026-03-24T11:07:12.812Z</time></trkpt><trkpt lat="44.5732563" lon="8.5205014"><ele>630.0</ele><time>2026-03-24T11:07:13.813Z</time></trkpt><trkpt lat="44.573256" lon="8.5206424"><ele>630.0</ele><time>2026-03-24T11:07:14.813Z</time></trkpt><trkpt lat="44.5732506" lon="8.5207658"><ele>630.0</ele><time>2026-03-24T11:07:15.812Z</time></trkpt><trkpt lat="44.5732518" lon="8.5208813"><ele>630.2</ele><time>2026-03-24T11:07:16.811Z</time></trkpt><trkpt lat="44.5732692" lon="8.5209982"><ele>630.4</ele><time>2026-03-24T11:07:17.812Z</time></trkpt><trkpt lat="44.5733071" lon="8.5211185"><ele>630.6</ele><time>2026-03-24T11:07:18.813Z</time></trkpt><trkpt lat="44.5733693" lon="8.5212419"><ele>630.8</ele><time>2026-03-24T11:07:19.813Z</time></trkpt><trkpt lat="44.5734372" lon="8.5213839"><ele>631.0</ele><time>2026-03-24T11:07:20.812Z</time></trkpt><trkpt lat="44.573496" lon="8.5215339"><ele>631.0</ele><time>2026-03-24T11:07:21.813Z</time></trkpt><trkpt lat="44.5735614" lon="8.5216645"><ele>631.0</ele><time>2026-03-24T11:07:22.812Z</time></trkpt><trkpt lat="44.5736429" lon="8.5217637"><ele>631.0</ele><time>2026-03-24T11:07:23.812Z</time></trkpt><trkpt lat="44.5737344" lon="8.5218348"><ele>631.0</ele><time>2026-03-24T11:07:24.812Z</time></trkpt><trkpt lat="44.5738247" lon="8.5218956"><ele>631.0</ele><time>2026-03-24T11:07:25.812Z</time></trkpt><trkpt lat="44.5739087" lon="8.5219642"><ele>631.2</ele><time>2026-03-24T11:07:26.812Z</time></trkpt><trkpt lat="44.5739895" lon="8.5220426"><ele>631.4000000000001</ele><time>2026-03-24T11:07:27.813Z</time></trkpt><trkpt lat="44.5740639" lon="8.5221252"><ele>631.6</ele><time>2026-03-24T11:07:28.814Z</time></trkpt><trkpt lat="44.574136" lon="8.5222093"><ele>631.8000000000001</ele><time>2026-03-24T11:07:29.812Z</time></trkpt><trkpt lat="44.5742018" lon="8.5222867"><ele>632.0</ele><time>2026-03-24T11:07:30.813Z</time></trkpt><trkpt lat="44.5742645" lon="8.522356"><ele>632.1428571428572</ele><time>2026-03-24T11:07:31.812Z</time></trkpt><trkpt lat="44.5743256" lon="8.522426"><ele>632.2857142857143</ele><time>2026-03-24T11:07:32.813Z</time></trkpt><trkpt lat="44.5743813" lon="8.5224963"><ele>632.4285714285714</ele><time>2026-03-24T11:07:33.812Z</time></trkpt><trkpt lat="44.5744307" lon="8.5225733"><ele>632.5714285714287</ele><time>2026-03-24T11:07:34.813Z</time></trkpt><trkpt lat="44.5744688" lon="8.5226635"><ele>632.7142857142858</ele><time>2026-03-24T11:07:35.813Z</time></trkpt><trkpt lat="44.5744964" lon="8.5227598"><ele>632.8571428571429</ele><time>2026-03-24T11:07:36.812Z</time></trkpt><trkpt lat="44.574508" lon="8.5228558"><ele>633.0</ele><time>2026-03-24T11:07:37.812Z</time></trkpt><trkpt lat="44.5745095" lon="8.5229477"><ele>632.1999999999999</ele><time>2026-03-24T11:07:38.813Z</time></trkpt><trkpt lat="44.5745074" lon="8.5231053"><ele>631.4</ele><time>2026-03-24T11:07:40.813Z</time></trkpt><trkpt lat="44.5745273" lon="8.5231917"><ele>630.5999999999999</ele><time>2026-03-24T11:07:42.813Z</time></trkpt><trkpt lat="44.5745893" lon="8.5231732"><ele>629.8</ele><time>2026-03-24T11:07:45.813Z</time></trkpt><trkpt lat="44.5746321" lon="8.5230721"><ele>629.0</ele><time>2026-03-24T11:07:47.812Z</time></trkpt><trkpt lat="44.5746765" lon="8.5229035"><ele>629.1666666666666</ele><time>2026-03-24T11:07:49.812Z</time></trkpt><trkpt lat="44.5747027" lon="8.5227973"><ele>629.3333333333333</ele><time>2026-03-24T11:07:50.812Z</time></trkpt><trkpt lat="44.5747362" lon="8.5226759"><ele>629.5</ele><time>2026-03-24T11:07:51.811Z</time></trkpt><trkpt lat="44.5747672" lon="8.5225618"><ele>629.6666666666666</ele><time>2026-03-24T11:07:52.812Z</time></trkpt><trkpt lat="44.5748049" lon="8.5224602"><ele>629.8333333333334</ele><time>2026-03-24T11:07:53.812Z</time></trkpt><trkpt lat="44.5748494" lon="8.5223635"><ele>630.0</ele><time>2026-03-24T11:07:54.813Z</time></trkpt><trkpt lat="44.5748957" lon="8.5222732"><ele>630.0</ele><time>2026-03-24T11:07:55.815Z</time></trkpt><trkpt lat="44.5749375" lon="8.5221821"><ele>630.0</ele><time>2026-03-24T11:07:56.813Z</time></trkpt><trkpt lat="44.5749646" lon="8.5220196"><ele>630.0</ele><time>2026-03-24T11:07:58.812Z</time></trkpt><trkpt lat="44.574958" lon="8.5218738"><ele>630.0</ele><time>2026-03-24T11:08:00.813Z</time></trkpt><trkpt lat="44.5749683" lon="8.5217308"><ele>630.0</ele><time>2026-03-24T11:08:02.813Z</time></trkpt><trkpt lat="44.5750229" lon="8.5216043"><ele>629.3333333333334</ele><time>2026-03-24T11:08:04.812Z</time></trkpt><trkpt lat="44.5751323" lon="8.5215373"><ele>628.6666666666666</ele><time>2026-03-24T11:08:06.812Z</time></trkpt><trkpt lat="44.5752022" lon="8.5215311"><ele>628.0</ele><time>2026-03-24T11:08:07.812Z</time></trkpt><trkpt lat="44.5752654" lon="8.5215367"><ele>627.3333333333333</ele><time>2026-03-24T11:08:08.813Z</time></trkpt><trkpt lat="44.5753679" lon="8.5215704"><ele>626.6666666666666</ele><time>2026-03-24T11:08:10.812Z</time></trkpt><trkpt lat="44.5754339" lon="8.5215985"><ele>626.0</ele><time>2026-03-24T11:08:12.812Z</time></trkpt><trkpt lat="44.5755398" lon="8.5216154"><ele>624.3333333333333</ele><time>2026-03-24T11:08:15.812Z</time></trkpt><trkpt lat="44.575647" lon="8.5216052"><ele>622.6666666666666</ele><time>2026-03-24T11:08:17.813Z</time></trkpt><trkpt lat="44.5757107" lon="8.5215712"><ele>621.0</ele><time>2026-03-24T11:08:19.814Z</time></trkpt><trkpt lat="44.5757752" lon="8.5214895"><ele>619.3333333333334</ele><time>2026-03-24T11:08:22.813Z</time></trkpt><trkpt lat="44.5758323" lon="8.5214453"><ele>617.6666666666667</ele><time>2026-03-24T11:08:24.812Z</time></trkpt><trkpt lat="44.5758921" lon="8.5214035"><ele>616.0</ele><time>2026-03-24T11:08:26.814Z</time></trkpt><trkpt lat="44.5759595" lon="8.5213553"><ele>616.0</ele><time>2026-03-24T11:08:28.814Z</time></trkpt><trkpt lat="44.5760377" lon="8.5212963"><ele>616.0</ele><time>2026-03-24T11:08:30.814Z</time></trkpt><trkpt lat="44.5761092" lon="8.5211921"><ele>616.0</ele><time>2026-03-24T11:08:32.813Z</time></trkpt><trkpt lat="44.5761879" lon="8.5211159"><ele>616.0</ele><time>2026-03-24T11:08:34.814Z</time></trkpt><trkpt lat="44.5762765" lon="8.5210534"><ele>616.0</ele><time>2026-03-24T11:08:36.814Z</time></trkpt><trkpt lat="44.5763594" lon="8.5210163"><ele>614.1666666666667</ele><time>2026-03-24T11:08:38.813Z</time></trkpt><trkpt lat="44.576433" lon="8.5210009"><ele>612.3333333333334</ele><time>2026-03-24T11:08:40.813Z</time></trkpt><trkpt lat="44.5765113" lon="8.5209676"><ele>610.5</ele><time>2026-03-24T11:08:43.812Z</time></trkpt><trkpt lat="44.5765996" lon="8.5209383"><ele>608.6666666666666</ele><time>2026-03-24T11:08:45.812Z</time></trkpt><trkpt lat="44.5767042" lon="8.5209173"><ele>606.8333333333333</ele><time>2026-03-24T11:08:47.814Z</time></trkpt><trkpt lat="44.5767825" lon="8.5208975"><ele>605.0</ele><time>2026-03-24T11:08:49.813Z</time></trkpt><trkpt lat="44.5768372" lon="8.5208523"><ele>605.0</ele><time>2026-03-24T11:08:52.812Z</time></trkpt><trkpt lat="44.5769156" lon="8.5208015"><ele>605.0</ele><time>2026-03-24T11:09:10.815Z</time></trkpt><trkpt lat="44.5769835" lon="8.5207618"><ele>605.0</ele><time>2026-03-24T11:09:12.812Z</time></trkpt><trkpt lat="44.5770526" lon="8.5207351"><ele>605.0</ele><time>2026-03-24T11:09:14.813Z</time></trkpt><trkpt lat="44.577139" lon="8.5207271"><ele>605.0</ele><time>2026-03-24T11:09:16.814Z</time></trkpt><trkpt lat="44.5772158" lon="8.5207153"><ele>605.0</ele><time>2026-03-24T11:09:18.813Z</time></trkpt><trkpt lat="44.5772922" lon="8.520695"><ele>602.4</ele><time>2026-03-24T11:09:20.814Z</time></trkpt><trkpt lat="44.5773769" lon="8.5206667"><ele>599.8</ele><time>2026-03-24T11:09:22.812Z</time></trkpt><trkpt lat="44.5774657" lon="8.5205962"><ele>597.2</ele><time>2026-03-24T11:09:24.813Z</time></trkpt><trkpt lat="44.5775457" lon="8.5205009"><ele>594.6</ele><time>2026-03-24T11:09:26.813Z</time></trkpt><trkpt lat="44.5776257" lon="8.5204163"><ele>592.0</ele><time>2026-03-24T11:09:28.815Z</time></trkpt><trkpt lat="44.5777103" lon="8.5203202"><ele>591.3333333333334</ele><time>2026-03-24T11:09:30.814Z</time></trkpt><trkpt lat="44.5777715" lon="8.5202659"><ele>590.6666666666667</ele><time>2026-03-24T11:09:31.815Z</time></trkpt><trkpt lat="44.5778366" lon="8.5202112"><ele>590.0</ele><time>2026-03-24T11:09:32.814Z</time></trkpt><trkpt lat="44.5778943" lon="8.520164"><ele>589.3333333333334</ele><time>2026-03-24T11:09:33.813Z</time></trkpt><trkpt lat="44.577993" lon="8.5201026"><ele>588.6666666666666</ele><time>2026-03-24T11:09:35.812Z</time></trkpt><trkpt lat="44.5780776" lon="8.5200499"><ele>588.0</ele><time>2026-03-24T11:09:37.812Z</time></trkpt><trkpt lat="44.5781441" lon="8.5199742"><ele>587.5</ele><time>2026-03-24T11:09:39.812Z</time></trkpt><trkpt lat="44.5781877" lon="8.5199"><ele>587.0</ele><time>2026-03-24T11:09:42.812Z</time></trkpt><trkpt lat="44.5782255" lon="8.5198278"><ele>586.5</ele><time>2026-03-24T11:09:44.815Z</time></trkpt><trkpt lat="44.5782607" lon="8.5197068"><ele>586.0</ele><time>2026-03-24T11:09:47.812Z</time></trkpt><trkpt lat="44.5782647" lon="8.5196099"><ele>585.5</ele><time>2026-03-24T11:09:49.814Z</time></trkpt><trkpt lat="44.5782374" lon="8.5195116"><ele>585.0</ele><time>2026-03-24T11:09:51.812Z</time></trkpt><trkpt lat="44.5782242" lon="8.5193906"><ele>584.0</ele><time>2026-03-24T11:09:53.812Z</time></trkpt><trkpt lat="44.5782805" lon="8.5192888"><ele>583.0</ele><time>2026-03-24T11:09:55.812Z</time></trkpt><trkpt lat="44.578371" lon="8.5192219"><ele>582.0</ele><time>2026-03-24T11:09:57.813Z</time></trkpt><trkpt lat="44.5784335" lon="8.5191788"><ele>581.0</ele><time>2026-03-24T11:09:59.814Z</time></trkpt><trkpt lat="44.5784916" lon="8.5190916"><ele>580.0</ele><time>2026-03-24T11:10:02.814Z</time></trkpt><trkpt lat="44.5785567" lon="8.5189962"><ele>579.0</ele><time>2026-03-24T11:10:04.812Z</time></trkpt><trkpt lat="44.5786188" lon="8.5189031"><ele>577.3333333333334</ele><time>2026-03-24T11:10:06.813Z</time></trkpt><trkpt lat="44.5786936" lon="8.5188509"><ele>575.6666666666666</ele><time>2026-03-24T11:10:08.814Z</time></trkpt><trkpt lat="44.5787604" lon="8.5188825"><ele>574.0</ele><time>2026-03-24T11:10:10.813Z</time></trkpt><trkpt lat="44.5788334" lon="8.5189471"><ele>572.3333333333333</ele><time>2026-03-24T11:10:12.812Z</time></trkpt><trkpt lat="44.5789221" lon="8.5190039"><ele>570.6666666666666</ele><time>2026-03-24T11:10:14.813Z</time></trkpt><trkpt lat="44.5790116" lon="8.5190084"><ele>569.0</ele><time>2026-03-24T11:10:16.814Z</time></trkpt><trkpt lat="44.5790957" lon="8.5189859"><ele>569.0</ele><time>2026-03-24T11:10:18.813Z</time></trkpt><trkpt lat="44.5791737" lon="8.5189128"><ele>569.0</ele><time>2026-03-24T11:10:21.813Z</time></trkpt><trkpt lat="44.5792058" lon="8.5188237"><ele>569.0</ele><time>2026-03-24T11:10:24.813Z</time></trkpt><trkpt lat="44.5792596" lon="8.5186159"><ele>569.0</ele><time>2026-03-24T11:10:53.814Z</time></trkpt><trkpt lat="44.5792885" lon="8.5185161"><ele>569.0</ele><time>2026-03-24T11:12:07.813Z</time></trkpt><trkpt lat="44.5793495" lon="8.5184439"><ele>568.2857142857143</ele><time>2026-03-24T11:12:10.814Z</time></trkpt><trkpt lat="44.5793992" lon="8.5183877"><ele>567.5714285714286</ele><time>2026-03-24T11:12:13.815Z</time></trkpt><trkpt lat="44.5794395" lon="8.5183096"><ele>566.8571428571429</ele><time>2026-03-24T11:12:16.812Z</time></trkpt><trkpt lat="44.5794777" lon="8.518239"><ele>566.1428571428571</ele><time>2026-03-24T11:12:19.815Z</time></trkpt><trkpt lat="44.5795323" lon="8.518178"><ele>565.4285714285714</ele><time>2026-03-24T11:12:24.813Z</time></trkpt><trkpt lat="44.5795939" lon="8.5181083"><ele>564.7142857142858</ele><time>2026-03-24T11:12:28.813Z</time></trkpt><trkpt lat="44.5796725" lon="8.5180541"><ele>564.0</ele><time>2026-03-24T11:12:31.815Z</time></trkpt><trkpt lat="44.5797689" lon="8.5179896"><ele>561.5</ele><time>2026-03-24T11:13:27.812Z</time></trkpt><trkpt lat="44.5798337" lon="8.5179697"><ele>559.0</ele><time>2026-03-24T11:13:38.812Z</time></trkpt><trkpt lat="44.5798926" lon="8.5179077"><ele>556.5</ele><time>2026-03-24T11:13:40.812Z</time></trkpt><trkpt lat="44.5799952" lon="8.5178513"><ele>554.0</ele><time>2026-03-24T11:13:42.812Z</time></trkpt><trkpt lat="44.5800884" lon="8.5178384"><ele>551.5</ele><time>2026-03-24T11:13:44.812Z</time></trkpt><trkpt lat="44.5801557" lon="8.5178426"><ele>549.0</ele><time>2026-03-24T11:13:46.813Z</time></trkpt><trkpt lat="44.5802585" lon="8.517845"><ele>549.0</ele><time>2026-03-24T11:13:49.813Z</time></trkpt><trkpt lat="44.5803314" lon="8.517834"><ele>549.0</ele><time>2026-03-24T11:13:51.812Z</time></trkpt><trkpt lat="44.5803998" lon="8.5177648"><ele>549.0</ele><time>2026-03-24T11:13:53.812Z</time></trkpt><trkpt lat="44.5804772" lon="8.5176626"><ele>549.0</ele><time>2026-03-24T11:13:55.814Z</time></trkpt><trkpt lat="44.5805331" lon="8.5176117"><ele>549.0</ele><time>2026-03-24T11:13:57.813Z</time></trkpt><trkpt lat="44.5806053" lon="8.5175683"><ele>549.0</ele><time>2026-03-24T11:14:01.813Z</time></trkpt><trkpt lat="44.5806702" lon="8.5175046"><ele>546.2</ele><time>2026-03-24T11:14:03.811Z</time></trkpt><trkpt lat="44.5807845" lon="8.5174224"><ele>543.4</ele><time>2026-03-24T11:14:05.813Z</time></trkpt><trkpt lat="44.5808569" lon="8.5173782"><ele>540.6</ele><time>2026-03-24T11:14:06.812Z</time></trkpt><trkpt lat="44.5809216" lon="8.5173411"><ele>537.8</ele><time>2026-03-24T11:14:07.812Z</time></trkpt><trkpt lat="44.5810148" lon="8.5173141"><ele>535.0</ele><time>2026-03-24T11:14:09.812Z</time></trkpt><trkpt lat="44.5810652" lon="8.5174177"><ele>535.0</ele><time>2026-03-24T11:14:29.813Z</time></trkpt><trkpt lat="44.5811201" lon="8.5175037"><ele>535.0</ele><time>2026-03-24T11:14:31.813Z</time></trkpt><trkpt lat="44.5811776" lon="8.5175561"><ele>535.0</ele><time>2026-03-24T11:14:33.815Z</time></trkpt><trkpt lat="44.5812299" lon="8.5176283"><ele>535.0</ele><time>2026-03-24T11:14:35.812Z</time></trkpt><trkpt lat="44.5812642" lon="8.5177027"><ele>535.0</ele><time>2026-03-24T11:14:37.812Z</time></trkpt><trkpt lat="44.5812986" lon="8.5178272"><ele>535.0</ele><time>2026-03-24T11:14:40.813Z</time></trkpt><trkpt lat="44.5813215" lon="8.5179373"><ele>533.4285714285714</ele><time>2026-03-24T11:14:43.812Z</time></trkpt><trkpt lat="44.5813536" lon="8.5180476"><ele>531.8571428571429</ele><time>2026-03-24T11:14:49.813Z</time></trkpt><trkpt lat="44.581366" lon="8.5181432"><ele>530.2857142857143</ele><time>2026-03-24T11:14:52.814Z</time></trkpt><trkpt lat="44.5813823" lon="8.5182347"><ele>528.7142857142858</ele><time>2026-03-24T11:14:57.812Z</time></trkpt><trkpt lat="44.5813262" lon="8.5182819"><ele>527.1428571428572</ele><time>2026-03-24T11:15:06.812Z</time></trkpt><trkpt lat="44.5812569" lon="8.5181963"><ele>525.5714285714286</ele><time>2026-03-24T11:15:09.812Z</time></trkpt><trkpt lat="44.5812043" lon="8.5181374"><ele>524.0</ele><time>2026-03-24T11:15:11.813Z</time></trkpt><trkpt lat="44.5811443" lon="8.5180744"><ele>524.0</ele><time>2026-03-24T11:15:13.813Z</time></trkpt><trkpt lat="44.5810927" lon="8.5180174"><ele>524.0</ele><time>2026-03-24T11:15:15.812Z</time></trkpt><trkpt lat="44.5809563" lon="8.5180725"><ele>524.0</ele><time>2026-03-24T11:16:08.813Z</time></trkpt><trkpt lat="44.5809219" lon="8.5181565"><ele>524.0</ele><time>2026-03-24T11:16:37.813Z</time></trkpt><trkpt lat="44.5808931" lon="8.5182559"><ele>524.0</ele><time>2026-03-24T11:16:56.813Z</time></trkpt><trkpt lat="44.5809024" lon="8.5183774"><ele>524.0</ele><time>2026-03-24T11:16:59.812Z</time></trkpt><trkpt lat="44.5808857" lon="8.5184677"><ele>524.0</ele><time>2026-03-24T11:17:02.813Z</time></trkpt><trkpt lat="44.5808681" lon="8.5185542"><ele>524.0</ele><time>2026-03-24T11:17:08.813Z</time></trkpt><trkpt lat="44.5808727" lon="8.518647"><ele>524.0</ele><time>2026-03-24T11:18:49.813Z</time></trkpt><trkpt lat="44.5809018" lon="8.5187427"><ele>524.0</ele><time>2026-03-24T11:18:54.814Z</time></trkpt><trkpt lat="44.5809254" lon="8.5188623"><ele>524.0</ele><time>2026-03-24T11:18:58.812Z</time></trkpt><trkpt lat="44.580934" lon="8.5189819"><ele>524.0</ele><time>2026-03-24T11:19:00.812Z</time></trkpt><trkpt lat="44.5809426" lon="8.5191019"><ele>521.0</ele><time>2026-03-24T11:19:02.814Z</time></trkpt><trkpt lat="44.5809541" lon="8.5192058"><ele>518.0</ele><time>2026-03-24T11:19:04.813Z</time></trkpt><trkpt lat="44.5809624" lon="8.5193077"><ele>515.0</ele><time>2026-03-24T11:19:06.812Z</time></trkpt><trkpt lat="44.5809521" lon="8.5193967"><ele>512.0</ele><time>2026-03-24T11:19:08.812Z</time></trkpt><trkpt lat="44.5809017" lon="8.5194814"><ele>509.00000000000006</ele><time>2026-03-24T11:19:11.812Z</time></trkpt><trkpt lat="44.5808478" lon="8.5195389"><ele>506.0</ele><time>2026-03-24T11:19:13.813Z</time></trkpt><trkpt lat="44.5807867" lon="8.5195773"><ele>503.0</ele><time>2026-03-24T11:19:15.812Z</time></trkpt><trkpt lat="44.5807305" lon="8.5196419"><ele>499.79999999999995</ele><time>2026-03-24T11:19:18.812Z</time></trkpt><trkpt lat="44.5806914" lon="8.5197144"><ele>496.59999999999997</ele><time>2026-03-24T11:19:21.812Z</time></trkpt><trkpt lat="44.5806112" lon="8.5197286"><ele>493.40000000000003</ele><time>2026-03-24T11:20:55.812Z</time></trkpt><trkpt lat="44.5805102" lon="8.5198844"><ele>490.20000000000005</ele><time>2026-03-24T11:24:49.814Z</time></trkpt><trkpt lat="44.5804834" lon="8.5199781"><ele>487.0</ele><time>2026-03-24T11:29:53.812Z</time></trkpt><trkpt lat="44.580438" lon="8.5201464"><ele>487.00000000000006</ele><time>2026-03-24T11:30:08.813Z</time></trkpt><trkpt lat="44.5803411" lon="8.5201837"><ele>487.0</ele><time>2026-03-24T11:32:08.812Z</time></trkpt><trkpt lat="44.5803792" lon="8.52027"><ele>487.0</ele><time>2026-03-24T11:38:23.811Z</time></trkpt><trkpt lat="44.5803917" lon="8.520358"><ele>487.0</ele><time>2026-03-24T11:38:29.813Z</time></trkpt><trkpt lat="44.5804398" lon="8.5204439"><ele>487.00000000000006</ele><time>2026-03-24T11:39:17.812Z</time></trkpt><trkpt lat="44.5804854" lon="8.5205049"><ele>487.0</ele><time>2026-03-24T11:39:20.812Z</time></trkpt><trkpt lat="44.5804955" lon="8.5206065"><ele>488.50000000000006</ele><time>2026-03-24T11:39:23.813Z</time></trkpt><trkpt lat="44.5805233" lon="8.5207151"><ele>490.0</ele><time>2026-03-24T11:39:26.815Z</time></trkpt><trkpt lat="44.5806039" lon="8.5207294"><ele>491.5</ele><time>2026-03-24T11:40:02.816Z</time></trkpt><trkpt lat="44.5806" lon="8.5206316"><ele>493.0</ele><time>2026-03-24T11:42:38.812Z</time></trkpt><trkpt lat="44.5806647" lon="8.520592"><ele>494.50000000000006</ele><time>2026-03-24T11:42:40.811Z</time></trkpt><trkpt lat="44.5807562" lon="8.5205779"><ele>496.0</ele><time>2026-03-24T11:42:42.811Z</time></trkpt><trkpt lat="44.580834" lon="8.5205649"><ele>496.00000000000006</ele><time>2026-03-24T11:42:43.815Z</time></trkpt><trkpt lat="44.5809165" lon="8.5205622"><ele>496.0</ele><time>2026-03-24T11:42:44.812Z</time></trkpt><trkpt lat="44.5810111" lon="8.5205529"><ele>496.0</ele><time>2026-03-24T11:42:45.811Z</time></trkpt><trkpt lat="44.5811066" lon="8.5205375"><ele>496.0</ele><time>2026-03-24T11:42:46.813Z</time></trkpt><trkpt lat="44.5811938" lon="8.5205351"><ele>496.00000000000006</ele><time>2026-03-24T11:42:47.811Z</time></trkpt><trkpt lat="44.5812769" lon="8.5205374"><ele>496.0</ele><time>2026-03-24T11:42:48.813Z</time></trkpt><trkpt lat="44.5813546" lon="8.5205527"><ele>498.00000000000006</ele><time>2026-03-24T11:42:49.812Z</time></trkpt><trkpt lat="44.5814273" lon="8.5205657"><ele>500.0</ele><time>2026-03-24T11:42:50.814Z</time></trkpt><trkpt lat="44.5815216" lon="8.5205979"><ele>502.0</ele><time>2026-03-24T11:42:52.811Z</time></trkpt><trkpt lat="44.5815494" lon="8.5206833"><ele>504.0</ele><time>2026-03-24T11:43:10.811Z</time></trkpt><trkpt lat="44.5814589" lon="8.5206973"><ele>506.00000000000006</ele><time>2026-03-24T11:43:12.813Z</time></trkpt><trkpt lat="44.5813731" lon="8.520726"><ele>508.0</ele><time>2026-03-24T11:43:13.811Z</time></trkpt><trkpt lat="44.5812849" lon="8.5207591"><ele>508.0</ele><time>2026-03-24T11:43:14.813Z</time></trkpt><trkpt lat="44.5812006" lon="8.5208076"><ele>507.99999999999994</ele><time>2026-03-24T11:43:15.812Z</time></trkpt><trkpt lat="44.5811183" lon="8.5208737"><ele>507.99999999999994</ele><time>2026-03-24T11:43:16.811Z</time></trkpt><trkpt lat="44.5810483" lon="8.520953"><ele>508.0</ele><time>2026-03-24T11:43:17.813Z</time></trkpt><trkpt lat="44.5809917" lon="8.5210496"><ele>508.0</ele><time>2026-03-24T11:43:18.811Z</time></trkpt><trkpt lat="44.5809368" lon="8.5211567"><ele>508.00000000000006</ele><time>2026-03-24T11:43:19.812Z</time></trkpt><trkpt lat="44.5809219" lon="8.5212696"><ele>508.0</ele><time>2026-03-24T11:43:20.812Z</time></trkpt><trkpt lat="44.5809108" lon="8.5213717"><ele>508.0</ele><time>2026-03-24T11:43:21.812Z</time></trkpt><trkpt lat="44.5809757" lon="8.521324"><ele>508.0</ele><time>2026-03-24T11:43:36.813Z</time></trkpt><trkpt lat="44.5810282" lon="8.5212585"><ele>508.00000000000006</ele><time>2026-03-24T11:43:37.812Z</time></trkpt><trkpt lat="44.5810854" lon="8.5212035"><ele>508.0</ele><time>2026-03-24T11:43:38.813Z</time></trkpt><trkpt lat="44.5811877" lon="8.5211788"><ele>508.0</ele><time>2026-03-24T11:43:40.813Z</time></trkpt><trkpt lat="44.5812491" lon="8.5212148"><ele>508.0</ele><time>2026-03-24T11:43:41.813Z</time></trkpt><trkpt lat="44.5813134" lon="8.5212674"><ele>508.0</ele><time>2026-03-24T11:43:42.812Z</time></trkpt><trkpt lat="44.5813799" lon="8.5213136"><ele>508.0</ele><time>2026-03-24T11:43:43.812Z</time></trkpt><trkpt lat="44.5814413" lon="8.5213668"><ele>508.0</ele><time>2026-03-24T11:43:44.812Z</time></trkpt><trkpt lat="44.5814968" lon="8.5214223"><ele>508.0</ele><time>2026-03-24T11:43:45.812Z</time></trkpt><trkpt lat="44.5815504" lon="8.521489"><ele>508.0</ele><time>2026-03-24T11:43:46.812Z</time></trkpt><trkpt lat="44.5816104" lon="8.5215286"><ele>512.0</ele><time>2026-03-24T11:43:47.812Z</time></trkpt><trkpt lat="44.5816752" lon="8.5215676"><ele>516.0</ele><time>2026-03-24T11:43:48.812Z</time></trkpt><trkpt lat="44.5817553" lon="8.5215748"><ele>520.0</ele><time>2026-03-24T11:43:49.812Z</time></trkpt><trkpt lat="44.5818487" lon="8.5215664"><ele>524.0</ele><time>2026-03-24T11:43:50.815Z</time></trkpt><trkpt lat="44.5819399" lon="8.5215518"><ele>528.0</ele><time>2026-03-24T11:43:51.812Z</time></trkpt><trkpt lat="44.5820226" lon="8.5215138"><ele>532.0</ele><time>2026-03-24T11:43:52.812Z</time></trkpt><trkpt lat="44.5821008" lon="8.5214453"><ele>530.6</ele><time>2026-03-24T11:43:53.812Z</time></trkpt><trkpt lat="44.5821665" lon="8.5213661"><ele>529.2</ele><time>2026-03-24T11:43:54.812Z</time></trkpt><trkpt lat="44.5822661" lon="8.5212934"><ele>527.8</ele><time>2026-03-24T11:43:56.813Z</time></trkpt><trkpt lat="44.5823753" lon="8.5212633"><ele>526.4</ele><time>2026-03-24T11:43:58.812Z</time></trkpt><trkpt lat="44.5824714" lon="8.5211623"><ele>525.0</ele><time>2026-03-24T11:44:00.813Z</time></trkpt><trkpt lat="44.5825203" lon="8.5210947"><ele>525.0</ele><time>2026-03-24T11:44:01.812Z</time></trkpt><trkpt lat="44.582577" lon="8.5210231"><ele>525.0</ele><time>2026-03-24T11:44:02.813Z</time></trkpt><trkpt lat="44.5826416" lon="8.5209606"><ele>525.0</ele><time>2026-03-24T11:44:03.813Z</time></trkpt><trkpt lat="44.5827067" lon="8.5209164"><ele>525.0</ele><time>2026-03-24T11:44:04.813Z</time></trkpt><trkpt lat="44.5827587" lon="8.5208638"><ele>525.0</ele><time>2026-03-24T11:44:05.811Z</time></trkpt><trkpt lat="44.5828082" lon="8.5208007"><ele>525.0</ele><time>2026-03-24T11:44:06.811Z</time></trkpt><trkpt lat="44.5828504" lon="8.5207274"><ele>525.0</ele><time>2026-03-24T11:44:07.811Z</time></trkpt><trkpt lat="44.5828899" lon="8.5206403"><ele>523.6666666666666</ele><time>2026-03-24T11:44:08.813Z</time></trkpt><trkpt lat="44.5829372" lon="8.5205674"><ele>522.3333333333334</ele><time>2026-03-24T11:44:09.811Z</time></trkpt><trkpt lat="44.5829923" lon="8.5205031"><ele>521.0</ele><time>2026-03-24T11:44:10.812Z</time></trkpt><trkpt lat="44.5830488" lon="8.5204462"><ele>519.6666666666667</ele><time>2026-03-24T11:44:11.814Z</time></trkpt><trkpt lat="44.5831195" lon="8.5204202"><ele>518.3333333333334</ele><time>2026-03-24T11:44:12.811Z</time></trkpt><trkpt lat="44.5832106" lon="8.5204031"><ele>517.0</ele><time>2026-03-24T11:44:13.813Z</time></trkpt><trkpt lat="44.5832963" lon="8.5203816"><ele>517.0</ele><time>2026-03-24T11:44:14.812Z</time></trkpt><trkpt lat="44.58337" lon="8.5203689"><ele>517.0</ele><time>2026-03-24T11:44:15.812Z</time></trkpt><trkpt lat="44.5834428" lon="8.520371"><ele>517.0</ele><time>2026-03-24T11:44:16.812Z</time></trkpt><trkpt lat="44.5835187" lon="8.5203909"><ele>517.0</ele><time>2026-03-24T11:44:17.813Z</time></trkpt><trkpt lat="44.5836025" lon="8.5204228"><ele>517.0</ele><time>2026-03-24T11:44:18.812Z</time></trkpt><trkpt lat="44.5836934" lon="8.5204424"><ele>517.0</ele><time>2026-03-24T11:44:19.812Z</time></trkpt><trkpt lat="44.5837732" lon="8.5204638"><ele>518.0</ele><time>2026-03-24T11:44:20.813Z</time></trkpt><trkpt lat="44.5838693" lon="8.5205512"><ele>519.0</ele><time>2026-03-24T11:44:22.811Z</time></trkpt><trkpt lat="44.5838956" lon="8.5206454"><ele>520.0</ele><time>2026-03-24T11:44:23.813Z</time></trkpt><trkpt lat="44.5839151" lon="8.5207426"><ele>521.0</ele><time>2026-03-24T11:44:24.812Z</time></trkpt><trkpt lat="44.5839282" lon="8.5208385"><ele>522.0</ele><time>2026-03-24T11:44:25.812Z</time></trkpt><trkpt lat="44.5839409" lon="8.520938"><ele>523.0</ele><time>2026-03-24T11:44:26.813Z</time></trkpt><trkpt lat="44.5839468" lon="8.5210416"><ele>523.0</ele><time>2026-03-24T11:44:27.812Z</time></trkpt><trkpt lat="44.5839414" lon="8.5211453"><ele>523.0</ele><time>2026-03-24T11:44:28.811Z</time></trkpt><trkpt lat="44.5839277" lon="8.5212511"><ele>523.0</ele><time>2026-03-24T11:44:29.812Z</time></trkpt><trkpt lat="44.5839046" lon="8.5213544"><ele>523.0</ele><time>2026-03-24T11:44:30.812Z</time></trkpt><trkpt lat="44.5838848" lon="8.5214583"><ele>523.0</ele><time>2026-03-24T11:44:31.812Z</time></trkpt><trkpt lat="44.5838767" lon="8.5215587"><ele>523.0</ele><time>2026-03-24T11:44:32.813Z</time></trkpt><trkpt lat="44.5838902" lon="8.5216664"><ele>523.3333333333334</ele><time>2026-03-24T11:44:33.812Z</time></trkpt><trkpt lat="44.5838972" lon="8.5217782"><ele>523.6666666666667</ele><time>2026-03-24T11:44:34.812Z</time></trkpt><trkpt lat="44.5838957" lon="8.5218949"><ele>524.0</ele><time>2026-03-24T11:44:35.814Z</time></trkpt><trkpt lat="44.5838869" lon="8.5219955"><ele>524.3333333333334</ele><time>2026-03-24T11:44:36.812Z</time></trkpt><trkpt lat="44.5838851" lon="8.52209"><ele>524.6666666666666</ele><time>2026-03-24T11:44:37.813Z</time></trkpt><trkpt lat="44.583937" lon="8.5222479"><ele>525.0</ele><time>2026-03-24T11:44:39.813Z</time></trkpt><trkpt lat="44.5839829" lon="8.522345"><ele>526.0</ele><time>2026-03-24T11:44:40.812Z</time></trkpt><trkpt lat="44.5840259" lon="8.5224537"><ele>527.0</ele><time>2026-03-24T11:44:41.814Z</time></trkpt><trkpt lat="44.5840526" lon="8.5225734"><ele>528.0</ele><time>2026-03-24T11:44:42.812Z</time></trkpt><trkpt lat="44.5840602" lon="8.5226927"><ele>529.0</ele><time>2026-03-24T11:44:43.812Z</time></trkpt><trkpt lat="44.5840621" lon="8.5228022"><ele>530.0</ele><time>2026-03-24T11:44:44.814Z</time></trkpt><trkpt lat="44.5840482" lon="8.5229249"><ele>531.0</ele><time>2026-03-24T11:44:45.812Z</time></trkpt><trkpt lat="44.5840329" lon="8.5230371"><ele>532.8</ele><time>2026-03-24T11:44:46.813Z</time></trkpt><trkpt lat="44.5840273" lon="8.5231323"><ele>534.6</ele><time>2026-03-24T11:44:47.813Z</time></trkpt><trkpt lat="44.5840473" lon="8.5233364"><ele>536.4</ele><time>2026-03-24T11:44:49.812Z</time></trkpt><trkpt lat="44.5840811" lon="8.5234545"><ele>538.2</ele><time>2026-03-24T11:44:50.814Z</time></trkpt><trkpt lat="44.5841126" lon="8.5235651"><ele>540.0</ele><time>2026-03-24T11:44:51.812Z</time></trkpt><trkpt lat="44.5841367" lon="8.523661"><ele>540.0</ele><time>2026-03-24T11:44:52.812Z</time></trkpt><trkpt lat="44.5841372" lon="8.5237915"><ele>540.0</ele><time>2026-03-24T11:44:54.812Z</time></trkpt><trkpt lat="44.5840303" lon="8.523855"><ele>540.0</ele><time>2026-03-24T11:44:56.813Z</time></trkpt><trkpt lat="44.5839618" lon="8.5238849"><ele>540.0</ele><time>2026-03-24T11:44:57.811Z</time></trkpt><trkpt lat="44.5838923" lon="8.5239219"><ele>540.0</ele><time>2026-03-24T11:44:58.812Z</time></trkpt><trkpt lat="44.5838335" lon="8.5239887"><ele>540.0</ele><time>2026-03-24T11:44:59.813Z</time></trkpt><trkpt lat="44.5837887" lon="8.5240882"><ele>540.0</ele><time>2026-03-24T11:45:00.812Z</time></trkpt><trkpt lat="44.5837671" lon="8.5241986"><ele>540.0</ele><time>2026-03-24T11:45:01.814Z</time></trkpt><trkpt lat="44.5837429" lon="8.5242982"><ele>540.0</ele><time>2026-03-24T11:45:02.814Z</time></trkpt><trkpt lat="44.5837009" lon="8.5243866"><ele>540.0</ele><time>2026-03-24T11:45:03.813Z</time></trkpt><trkpt lat="44.5836456" lon="8.5244748"><ele>540.0</ele><time>2026-03-24T11:45:04.812Z</time></trkpt><trkpt lat="44.5835822" lon="8.5245845"><ele>540.0</ele><time>2026-03-24T11:45:05.812Z</time></trkpt><trkpt lat="44.5835337" lon="8.5246866"><ele>543.2857142857142</ele><time>2026-03-24T11:45:06.813Z</time></trkpt><trkpt lat="44.5834977" lon="8.5247896"><ele>546.5714285714286</ele><time>2026-03-24T11:45:07.813Z</time></trkpt><trkpt lat="44.5834834" lon="8.5249032"><ele>549.8571428571429</ele><time>2026-03-24T11:45:08.813Z</time></trkpt><trkpt lat="44.5834712" lon="8.5250054"><ele>553.1428571428571</ele><time>2026-03-24T11:45:09.812Z</time></trkpt><trkpt lat="44.5834522" lon="8.5250936"><ele>556.4285714285714</ele><time>2026-03-24T11:45:10.814Z</time></trkpt><trkpt lat="44.583433" lon="8.5251877"><ele>559.7142857142857</ele><time>2026-03-24T11:45:11.814Z</time></trkpt><trkpt lat="44.5834134" lon="8.5252786"><ele>563.0</ele><time>2026-03-24T11:45:12.816Z</time></trkpt><trkpt lat="44.5834435" lon="8.5254265"><ele>563.0</ele><time>2026-03-24T11:45:14.814Z</time></trkpt><trkpt lat="44.583484" lon="8.5256088"><ele>563.0</ele><time>2026-03-24T11:45:16.813Z</time></trkpt><trkpt lat="44.583499" lon="8.525718"><ele>563.0</ele><time>2026-03-24T11:45:17.813Z</time></trkpt><trkpt lat="44.5835174" lon="8.5258271"><ele>563.0</ele><time>2026-03-24T11:45:18.813Z</time></trkpt><trkpt lat="44.5835428" lon="8.5259262"><ele>563.0</ele><time>2026-03-24T11:45:19.813Z</time></trkpt><trkpt lat="44.583543" lon="8.5260837"><ele>563.0</ele><time>2026-03-24T11:45:21.813Z</time></trkpt><trkpt lat="44.583472" lon="8.5262082"><ele>563.0</ele><time>2026-03-24T11:45:23.813Z</time></trkpt><trkpt lat="44.5834043" lon="8.5262672"><ele>563.0</ele><time>2026-03-24T11:45:24.814Z</time></trkpt><trkpt lat="44.5833107" lon="8.5263742"><ele>563.0</ele><time>2026-03-24T11:45:26.814Z</time></trkpt><trkpt lat="44.5832065" lon="8.5264243"><ele>563.0</ele><time>2026-03-24T11:45:28.813Z</time></trkpt><trkpt lat="44.5830755" lon="8.5263964"><ele>560.1428571428571</ele><time>2026-03-24T11:45:30.812Z</time></trkpt><trkpt lat="44.5830036" lon="8.5263874"><ele>557.2857142857143</ele><time>2026-03-24T11:45:31.813Z</time></trkpt><trkpt lat="44.5829315" lon="8.5263883"><ele>554.4285714285714</ele><time>2026-03-24T11:45:32.813Z</time></trkpt><trkpt lat="44.5828583" lon="8.5263807"><ele>551.5714285714286</ele><time>2026-03-24T11:45:33.813Z</time></trkpt><trkpt lat="44.5827881" lon="8.5263651"><ele>548.7142857142857</ele><time>2026-03-24T11:45:34.812Z</time></trkpt><trkpt lat="44.5827182" lon="8.5263432"><ele>545.8571428571429</ele><time>2026-03-24T11:45:35.812Z</time></trkpt><trkpt lat="44.582645" lon="8.5263302"><ele>543.0</ele><time>2026-03-24T11:45:36.814Z</time></trkpt><trkpt lat="44.5825713" lon="8.5263325"><ele>542.3333333333334</ele><time>2026-03-24T11:45:37.812Z</time></trkpt><trkpt lat="44.5824978" lon="8.5263508"><ele>541.6666666666666</ele><time>2026-03-24T11:45:38.814Z</time></trkpt><trkpt lat="44.5824311" lon="8.5263864"><ele>541.0</ele><time>2026-03-24T11:45:39.812Z</time></trkpt><trkpt lat="44.5823657" lon="8.526418"><ele>540.3333333333333</ele><time>2026-03-24T11:45:40.813Z</time></trkpt><trkpt lat="44.5822998" lon="8.5264422"><ele>539.6666666666666</ele><time>2026-03-24T11:45:41.813Z</time></trkpt><trkpt lat="44.5822258" lon="8.5264854"><ele>539.0</ele><time>2026-03-24T11:45:43.812Z</time></trkpt><trkpt lat="44.5821953" lon="8.5266152"><ele>539.0</ele><time>2026-03-24T11:45:46.813Z</time></trkpt><trkpt lat="44.5821313" lon="8.526747"><ele>539.0</ele><time>2026-03-24T11:45:48.813Z</time></trkpt><trkpt lat="44.5820896" lon="8.5268154"><ele>539.0</ele><time>2026-03-24T11:45:49.813Z</time></trkpt><trkpt lat="44.5820076" lon="8.5269525"><ele>539.0</ele><time>2026-03-24T11:45:51.812Z</time></trkpt><trkpt lat="44.5819677" lon="8.5270231"><ele>539.0</ele><time>2026-03-24T11:45:52.816Z</time></trkpt><trkpt lat="44.5819252" lon="8.5271027"><ele>539.0</ele><time>2026-03-24T11:45:53.813Z</time></trkpt><trkpt lat="44.5818774" lon="8.5271773"><ele>537.8571428571429</ele><time>2026-03-24T11:45:54.812Z</time></trkpt><trkpt lat="44.5818272" lon="8.5272535"><ele>536.7142857142858</ele><time>2026-03-24T11:45:55.813Z</time></trkpt><trkpt lat="44.5817785" lon="8.5273177"><ele>535.5714285714286</ele><time>2026-03-24T11:45:56.813Z</time></trkpt><trkpt lat="44.5817228" lon="8.5273822"><ele>534.4285714285714</ele><time>2026-03-24T11:45:57.813Z</time></trkpt><trkpt lat="44.5816688" lon="8.5274524"><ele>533.2857142857143</ele><time>2026-03-24T11:45:58.813Z</time></trkpt><trkpt lat="44.5816199" lon="8.5275141"><ele>532.1428571428571</ele><time>2026-03-24T11:45:59.814Z</time></trkpt><trkpt lat="44.581573" lon="8.5275731"><ele>531.0</ele><time>2026-03-24T11:46:00.815Z</time></trkpt><trkpt lat="44.5815039" lon="8.5276266"><ele>531.0</ele><time>2026-03-24T11:46:02.815Z</time></trkpt><trkpt lat="44.5815411" lon="8.5277403"><ele>531.0</ele><time>2026-03-24T11:47:38.813Z</time></trkpt><trkpt lat="44.581606" lon="8.5278171"><ele>531.0</ele><time>2026-03-24T11:47:40.812Z</time></trkpt><trkpt lat="44.5816436" lon="8.5279091"><ele>531.0</ele><time>2026-03-24T11:47:42.813Z</time></trkpt><trkpt lat="44.581602" lon="8.5280057"><ele>531.0</ele><time>2026-03-24T11:47:44.813Z</time></trkpt><trkpt lat="44.5815289" lon="8.5280505"><ele>531.0</ele><time>2026-03-24T11:47:46.814Z</time></trkpt><trkpt lat="44.5814914" lon="8.5281242"><ele>529.8571428571429</ele><time>2026-03-24T11:47:49.814Z</time></trkpt><trkpt lat="44.5815307" lon="8.5282177"><ele>528.7142857142858</ele><time>2026-03-24T11:47:52.812Z</time></trkpt><trkpt lat="44.5816094" lon="8.5282439"><ele>527.5714285714286</ele><time>2026-03-24T11:47:55.811Z</time></trkpt><trkpt lat="44.5816757" lon="8.5282854"><ele>526.4285714285714</ele><time>2026-03-24T11:47:58.813Z</time></trkpt><trkpt lat="44.5817257" lon="8.5283497"><ele>525.2857142857142</ele><time>2026-03-24T11:48:01.811Z</time></trkpt><trkpt lat="44.5817485" lon="8.5284493"><ele>524.1428571428571</ele><time>2026-03-24T11:48:04.811Z</time></trkpt><trkpt lat="44.5817445" lon="8.5285564"><ele>523.0</ele><time>2026-03-24T11:48:07.812Z</time></trkpt><trkpt lat="44.58177" lon="8.5286704"><ele>524.8</ele><time>2026-03-24T11:48:10.814Z</time></trkpt><trkpt lat="44.5817859" lon="8.5287644"><ele>526.5999999999999</ele><time>2026-03-24T11:48:12.811Z</time></trkpt><trkpt lat="44.5818176" lon="8.5288794"><ele>528.4000000000001</ele><time>2026-03-24T11:48:14.813Z</time></trkpt><trkpt lat="44.5818846" lon="8.5290564"><ele>530.2</ele><time>2026-03-24T11:48:16.812Z</time></trkpt><trkpt lat="44.5819342" lon="8.5291788"><ele>532.0</ele><time>2026-03-24T11:48:17.815Z</time></trkpt><trkpt lat="44.5819917" lon="8.529302"><ele>530.5</ele><time>2026-03-24T11:48:18.812Z</time></trkpt><trkpt lat="44.5820669" lon="8.5294163"><ele>529.0</ele><time>2026-03-24T11:48:19.813Z</time></trkpt><trkpt lat="44.5821517" lon="8.5295327"><ele>527.5</ele><time>2026-03-24T11:48:20.813Z</time></trkpt><trkpt lat="44.5822358" lon="8.5296482"><ele>526.0</ele><time>2026-03-24T11:48:21.812Z</time></trkpt><trkpt lat="44.5823166" lon="8.5297766"><ele>526.0</ele><time>2026-03-24T11:48:22.813Z</time></trkpt><trkpt lat="44.5823981" lon="8.5298987"><ele>526.0</ele><time>2026-03-24T11:48:23.813Z</time></trkpt><trkpt lat="44.582482" lon="8.5300087"><ele>526.0</ele><time>2026-03-24T11:48:24.813Z</time></trkpt><trkpt lat="44.5825643" lon="8.5300979"><ele>526.0</ele><time>2026-03-24T11:48:25.813Z</time></trkpt><trkpt lat="44.582643" lon="8.5301549"><ele>526.0</ele><time>2026-03-24T11:48:26.813Z</time></trkpt><trkpt lat="44.5827055" lon="8.5302158"><ele>526.0</ele><time>2026-03-24T11:48:27.812Z</time></trkpt><trkpt lat="44.5827635" lon="8.5302994"><ele>526.0</ele><time>2026-03-24T11:48:28.812Z</time></trkpt><trkpt lat="44.5828198" lon="8.530424"><ele>526.0</ele><time>2026-03-24T11:48:29.812Z</time></trkpt><trkpt lat="44.5828491" lon="8.5305725"><ele>526.0</ele><time>2026-03-24T11:48:30.812Z</time></trkpt><trkpt lat="44.5828742" lon="8.5307219"><ele>526.0</ele><time>2026-03-24T11:48:31.812Z</time></trkpt><trkpt lat="44.5828936" lon="8.5308806"><ele>523.3333333333334</ele><time>2026-03-24T11:48:32.813Z</time></trkpt><trkpt lat="44.5829116" lon="8.5310262"><ele>520.6666666666667</ele><time>2026-03-24T11:48:33.812Z</time></trkpt><trkpt lat="44.5829301" lon="8.5311608"><ele>518.0</ele><time>2026-03-24T11:48:34.813Z</time></trkpt><trkpt lat="44.5829576" lon="8.5312732"><ele>515.3333333333334</ele><time>2026-03-24T11:48:35.813Z</time></trkpt><trkpt lat="44.5829888" lon="8.531377"><ele>512.6666666666666</ele><time>2026-03-24T11:48:36.812Z</time></trkpt><trkpt lat="44.583029" lon="8.5314734"><ele>510.0</ele><time>2026-03-24T11:48:37.812Z</time></trkpt><trkpt lat="44.5830558" lon="8.5315596"><ele>510.0</ele><time>2026-03-24T11:48:38.814Z</time></trkpt><trkpt lat="44.5830835" lon="8.53169"><ele>510.0</ele><time>2026-03-24T11:48:40.812Z</time></trkpt><trkpt lat="44.5830874" lon="8.5317835"><ele>510.0</ele><time>2026-03-24T11:48:43.813Z</time></trkpt><trkpt lat="44.5830685" lon="8.5318869"><ele>510.0</ele><time>2026-03-24T11:49:06.813Z</time></trkpt><trkpt lat="44.5830368" lon="8.5319962"><ele>510.0</ele><time>2026-03-24T11:49:09.812Z</time></trkpt><trkpt lat="44.5829954" lon="8.5321623"><ele>510.0</ele><time>2026-03-24T11:49:11.814Z</time></trkpt><trkpt lat="44.5829824" lon="8.5322594"><ele>509.6666666666667</ele><time>2026-03-24T11:49:12.813Z</time></trkpt><trkpt lat="44.5829798" lon="8.5323518"><ele>509.33333333333337</ele><time>2026-03-24T11:49:13.812Z</time></trkpt><trkpt lat="44.5829689" lon="8.5325208"><ele>509.0</ele><time>2026-03-24T11:49:15.812Z</time></trkpt><trkpt lat="44.582953" lon="8.5326088"><ele>508.6666666666667</ele><time>2026-03-24T11:49:16.812Z</time></trkpt><trkpt lat="44.5828967" lon="8.5327264"><ele>508.33333333333337</ele><time>2026-03-24T11:49:18.813Z</time></trkpt><trkpt lat="44.5828313" lon="8.5327527"><ele>508.0</ele><time>2026-03-24T11:49:19.813Z</time></trkpt><trkpt lat="44.5827506" lon="8.5328101"><ele>509.57142857142856</ele><time>2026-03-24T11:49:20.812Z</time></trkpt><trkpt lat="44.582697" lon="8.5328707"><ele>511.1428571428571</ele><time>2026-03-24T11:49:21.812Z</time></trkpt><trkpt lat="44.5826656" lon="8.5329479"><ele>512.7142857142857</ele><time>2026-03-24T11:49:22.813Z</time></trkpt><trkpt lat="44.5826434" lon="8.5330345"><ele>514.2857142857142</ele><time>2026-03-24T11:49:23.813Z</time></trkpt><trkpt lat="44.5826132" lon="8.5331178"><ele>515.8571428571428</ele><time>2026-03-24T11:49:24.812Z</time></trkpt><trkpt lat="44.5825669" lon="8.5332342"><ele>517.4285714285714</ele><time>2026-03-24T11:49:26.814Z</time></trkpt><trkpt lat="44.5825779" lon="8.5333344"><ele>519.0</ele><time>2026-03-24T11:49:29.812Z</time></trkpt><trkpt lat="44.5827036" lon="8.5333345"><ele>519.0</ele><time>2026-03-24T11:49:32.813Z</time></trkpt><trkpt lat="44.5827956" lon="8.5333089"><ele>519.0</ele><time>2026-03-24T11:49:33.812Z</time></trkpt><trkpt lat="44.5828895" lon="8.5332707"><ele>519.0</ele><time>2026-03-24T11:49:34.812Z</time></trkpt><trkpt lat="44.5829978" lon="8.5332459"><ele>519.0</ele><time>2026-03-24T11:49:35.812Z</time></trkpt><trkpt lat="44.583111" lon="8.5332365"><ele>519.0</ele><time>2026-03-24T11:49:36.811Z</time></trkpt><trkpt lat="44.5832316" lon="8.5332178"><ele>517.8333333333334</ele><time>2026-03-24T11:49:37.812Z</time></trkpt><trkpt lat="44.5833442" lon="8.5331829"><ele>516.6666666666666</ele><time>2026-03-24T11:49:38.812Z</time></trkpt><trkpt lat="44.5834359" lon="8.5331442"><ele>515.5</ele><time>2026-03-24T11:49:39.811Z</time></trkpt><trkpt lat="44.5835081" lon="8.5331118"><ele>514.3333333333333</ele><time>2026-03-24T11:49:40.812Z</time></trkpt><trkpt lat="44.5835892" lon="8.533114"><ele>513.1666666666666</ele><time>2026-03-24T11:49:42.812Z</time></trkpt><trkpt lat="44.583602" lon="8.5332133"><ele>512.0</ele><time>2026-03-24T11:49:44.812Z</time></trkpt><trkpt lat="44.5835374" lon="8.5333334"><ele>512.0</ele><time>2026-03-24T11:49:46.811Z</time></trkpt><trkpt lat="44.5834287" lon="8.5334071"><ele>512.0</ele><time>2026-03-24T11:49:48.813Z</time></trkpt><trkpt lat="44.5833221" lon="8.533474"><ele>512.0</ele><time>2026-03-24T11:49:50.814Z</time></trkpt><trkpt lat="44.5832423" lon="8.5335297"><ele>512.0</ele><time>2026-03-24T11:49:52.812Z</time></trkpt><trkpt lat="44.5831777" lon="8.5335934"><ele>512.0</ele><time>2026-03-24T11:49:55.812Z</time></trkpt><trkpt lat="44.583112" lon="8.5336347"><ele>511.99999999999994</ele><time>2026-03-24T11:50:44.812Z</time></trkpt><trkpt lat="44.583015" lon="8.533702"><ele>512.0</ele><time>2026-03-24T11:50:46.812Z</time></trkpt><trkpt lat="44.582949" lon="8.5337287"><ele>512.0</ele><time>2026-03-24T11:50:47.813Z</time></trkpt><trkpt lat="44.5828274" lon="8.5337875"><ele>512.0</ele><time>2026-03-24T11:50:49.813Z</time></trkpt><trkpt lat="44.5827676" lon="8.5338189"><ele>511.99999999999994</ele><time>2026-03-24T11:50:50.814Z</time></trkpt><trkpt lat="44.5826996" lon="8.5338519"><ele>512.0</ele><time>2026-03-24T11:50:51.812Z</time></trkpt><trkpt lat="44.5826331" lon="8.5338752"><ele>513.5</ele><time>2026-03-24T11:50:52.814Z</time></trkpt><trkpt lat="44.5825614" lon="8.5339074"><ele>515.0</ele><time>2026-03-24T11:50:53.814Z</time></trkpt><trkpt lat="44.5824893" lon="8.5339355"><ele>516.5</ele><time>2026-03-24T11:50:54.813Z</time></trkpt><trkpt lat="44.582416" lon="8.53395"><ele>518.0</ele><time>2026-03-24T11:50:55.812Z</time></trkpt><trkpt lat="44.5823138" lon="8.5339927"><ele>519.5</ele><time>2026-03-24T11:50:57.812Z</time></trkpt><trkpt lat="44.5822185" lon="8.5340681"><ele>521.0</ele><time>2026-03-24T11:50:59.814Z</time></trkpt><trkpt lat="44.5821273" lon="8.534123"><ele>521.0</ele><time>2026-03-24T11:51:01.812Z</time></trkpt><trkpt lat="44.5820176" lon="8.5341439"><ele>521.0</ele><time>2026-03-24T11:51:03.812Z</time></trkpt><trkpt lat="44.5819362" lon="8.5341463"><ele>521.0</ele><time>2026-03-24T11:51:05.812Z</time></trkpt><trkpt lat="44.5818647" lon="8.5341444"><ele>521.0</ele><time>2026-03-24T11:51:07.813Z</time></trkpt><trkpt lat="44.58176" lon="8.5341985"><ele>521.0</ele><time>2026-03-24T11:51:09.812Z</time></trkpt><trkpt lat="44.5816918" lon="8.5342225"><ele>521.0</ele><time>2026-03-24T11:51:10.812Z</time></trkpt><trkpt lat="44.5816173" lon="8.5342371"><ele>523.3333333333333</ele><time>2026-03-24T11:51:11.812Z</time></trkpt><trkpt lat="44.5815319" lon="8.5342417"><ele>525.6666666666666</ele><time>2026-03-24T11:51:12.814Z</time></trkpt><trkpt lat="44.5814421" lon="8.5342171"><ele>528.0</ele><time>2026-03-24T11:51:13.814Z</time></trkpt><trkpt lat="44.5813601" lon="8.5341771"><ele>530.3333333333334</ele><time>2026-03-24T11:51:14.815Z</time></trkpt><trkpt lat="44.5812842" lon="8.5341437"><ele>532.6666666666667</ele><time>2026-03-24T11:51:15.813Z</time></trkpt><trkpt lat="44.5812152" lon="8.5341205"><ele>535.0</ele><time>2026-03-24T11:51:16.813Z</time></trkpt><trkpt lat="44.5811472" lon="8.5341147"><ele>538.2</ele><time>2026-03-24T11:51:17.812Z</time></trkpt><trkpt lat="44.5810359" lon="8.5341314"><ele>541.4</ele><time>2026-03-24T11:51:19.813Z</time></trkpt><trkpt lat="44.5809417" lon="8.5341058"><ele>544.6</ele><time>2026-03-24T11:51:21.812Z</time></trkpt><trkpt lat="44.5808248" lon="8.5340317"><ele>547.8</ele><time>2026-03-24T11:51:23.812Z</time></trkpt><trkpt lat="44.5807552" lon="8.5340088"><ele>551.0</ele><time>2026-03-24T11:51:24.812Z</time></trkpt><trkpt lat="44.5806863" lon="8.5339966"><ele>551.0</ele><time>2026-03-24T11:51:25.814Z</time></trkpt><trkpt lat="44.5806196" lon="8.5340038"><ele>551.0</ele><time>2026-03-24T11:51:26.813Z</time></trkpt><trkpt lat="44.5805566" lon="8.5340177"><ele>551.0</ele><time>2026-03-24T11:51:27.812Z</time></trkpt><trkpt lat="44.5804378" lon="8.5340093"><ele>551.0</ele><time>2026-03-24T11:51:29.813Z</time></trkpt><trkpt lat="44.5803337" lon="8.5339293"><ele>551.0</ele><time>2026-03-24T11:51:31.812Z</time></trkpt><trkpt lat="44.5802594" lon="8.5338888"><ele>551.0</ele><time>2026-03-24T11:51:32.813Z</time></trkpt><trkpt lat="44.5801556" lon="8.5338435"><ele>553.3333333333333</ele><time>2026-03-24T11:51:33.812Z</time></trkpt><trkpt lat="44.5800628" lon="8.5338224"><ele>555.6666666666666</ele><time>2026-03-24T11:51:34.812Z</time></trkpt><trkpt lat="44.5799811" lon="8.5338045"><ele>558.0</ele><time>2026-03-24T11:51:35.816Z</time></trkpt><trkpt lat="44.5798976" lon="8.5337898"><ele>560.3333333333334</ele><time>2026-03-24T11:51:36.812Z</time></trkpt><trkpt lat="44.5798197" lon="8.5337793"><ele>562.6666666666667</ele><time>2026-03-24T11:51:37.812Z</time></trkpt><trkpt lat="44.579736" lon="8.5337775"><ele>565.0</ele><time>2026-03-24T11:51:38.814Z</time></trkpt><trkpt lat="44.5796483" lon="8.5337762"><ele>565.0</ele><time>2026-03-24T11:51:39.812Z</time></trkpt><trkpt lat="44.5795687" lon="8.5337674"><ele>565.0</ele><time>2026-03-24T11:51:40.812Z</time></trkpt><trkpt lat="44.5795023" lon="8.5337545"><ele>565.0</ele><time>2026-03-24T11:51:41.812Z</time></trkpt><trkpt lat="44.5794298" lon="8.5337498"><ele>565.0</ele><time>2026-03-24T11:51:43.812Z</time></trkpt><trkpt lat="44.5793559" lon="8.5337627"><ele>565.0</ele><time>2026-03-24T11:51:47.812Z</time></trkpt><trkpt lat="44.5792739" lon="8.5337272"><ele>565.0</ele><time>2026-03-24T11:51:50.813Z</time></trkpt><trkpt lat="44.5791601" lon="8.5336803"><ele>563.3333333333334</ele><time>2026-03-24T11:51:52.814Z</time></trkpt><trkpt lat="44.5790555" lon="8.5336436"><ele>561.6666666666667</ele><time>2026-03-24T11:51:54.813Z</time></trkpt><trkpt lat="44.5789883" lon="8.5336254"><ele>560.0</ele><time>2026-03-24T11:51:55.812Z</time></trkpt><trkpt lat="44.5789173" lon="8.5336003"><ele>558.3333333333334</ele><time>2026-03-24T11:51:56.814Z</time></trkpt><trkpt lat="44.5788411" lon="8.5335634"><ele>556.6666666666666</ele><time>2026-03-24T11:51:57.813Z</time></trkpt><trkpt lat="44.5787716" lon="8.5335114"><ele>555.0</ele><time>2026-03-24T11:51:58.813Z</time></trkpt><trkpt lat="44.5786996" lon="8.5334455"><ele>556.1666666666666</ele><time>2026-03-24T11:51:59.813Z</time></trkpt><trkpt lat="44.5786215" lon="8.5333734"><ele>557.3333333333334</ele><time>2026-03-24T11:52:00.815Z</time></trkpt><trkpt lat="44.5785474" lon="8.5333003"><ele>558.5</ele><time>2026-03-24T11:52:01.813Z</time></trkpt><trkpt lat="44.5784794" lon="8.5332276"><ele>559.6666666666667</ele><time>2026-03-24T11:52:02.813Z</time></trkpt><trkpt lat="44.5784255" lon="8.5331643"><ele>560.8333333333334</ele><time>2026-03-24T11:52:03.812Z</time></trkpt><trkpt lat="44.5783595" lon="8.5330558"><ele>562.0</ele><time>2026-03-24T11:52:05.812Z</time></trkpt><trkpt lat="44.5783215" lon="8.5329391"><ele>562.1666666666667</ele><time>2026-03-24T11:52:07.812Z</time></trkpt><trkpt lat="44.5782793" lon="8.5328323"><ele>562.3333333333334</ele><time>2026-03-24T11:52:13.812Z</time></trkpt><trkpt lat="44.5782342" lon="8.5326797"><ele>562.5</ele><time>2026-03-24T11:52:15.813Z</time></trkpt><trkpt lat="44.5782002" lon="8.532592"><ele>562.6666666666666</ele><time>2026-03-24T11:52:16.812Z</time></trkpt><trkpt lat="44.5781602" lon="8.5325018"><ele>562.8333333333333</ele><time>2026-03-24T11:52:17.813Z</time></trkpt><trkpt lat="44.5781112" lon="8.5324221"><ele>563.0</ele><time>2026-03-24T11:52:18.813Z</time></trkpt><trkpt lat="44.5780562" lon="8.5323645"><ele>563.0</ele><time>2026-03-24T11:52:19.813Z</time></trkpt><trkpt lat="44.5779995" lon="8.5323165"><ele>563.0</ele><time>2026-03-24T11:52:20.813Z</time></trkpt><trkpt lat="44.5779415" lon="8.5322667"><ele>563.0</ele><time>2026-03-24T11:52:21.814Z</time></trkpt><trkpt lat="44.577891" lon="8.5322093"><ele>563.0</ele><time>2026-03-24T11:52:22.812Z</time></trkpt><trkpt lat="44.5778442" lon="8.5321481"><ele>563.0</ele><time>2026-03-24T11:52:23.814Z</time></trkpt><trkpt lat="44.577751" lon="8.532063"><ele>563.0</ele><time>2026-03-24T11:52:25.813Z</time></trkpt><trkpt lat="44.577657" lon="8.5320697"><ele>565.1666666666666</ele><time>2026-03-24T11:52:27.813Z</time></trkpt><trkpt lat="44.5775702" lon="8.5321407"><ele>567.3333333333333</ele><time>2026-03-24T11:52:29.813Z</time></trkpt><trkpt lat="44.5775129" lon="8.532236"><ele>569.5</ele><time>2026-03-24T11:52:31.813Z</time></trkpt><trkpt lat="44.5775036" lon="8.5323824"><ele>571.6666666666666</ele><time>2026-03-24T11:52:52.813Z</time></trkpt><trkpt lat="44.5774919" lon="8.532473"><ele>573.8333333333334</ele><time>2026-03-24T11:52:53.812Z</time></trkpt><trkpt lat="44.5774595" lon="8.5325688"><ele>576.0</ele><time>2026-03-24T11:52:54.812Z</time></trkpt><trkpt lat="44.5774103" lon="8.5326619"><ele>576.0</ele><time>2026-03-24T11:52:55.813Z</time></trkpt><trkpt lat="44.5773377" lon="8.5327477"><ele>576.0</ele><time>2026-03-24T11:52:56.813Z</time></trkpt><trkpt lat="44.5772282" lon="8.5328226"><ele>576.0</ele><time>2026-03-24T11:52:57.814Z</time></trkpt><trkpt lat="44.5771197" lon="8.5328883"><ele>576.0</ele><time>2026-03-24T11:52:58.814Z</time></trkpt><trkpt lat="44.5770155" lon="8.532956"><ele>576.0</ele><time>2026-03-24T11:52:59.814Z</time></trkpt><trkpt lat="44.5769144" lon="8.5330161"><ele>576.0</ele><time>2026-03-24T11:53:00.813Z</time></trkpt><trkpt lat="44.576822" lon="8.5330791"><ele>576.0</ele><time>2026-03-24T11:53:01.813Z</time></trkpt><trkpt lat="44.5767455" lon="8.5331534"><ele>576.0</ele><time>2026-03-24T11:53:02.813Z</time></trkpt><trkpt lat="44.5766875" lon="8.5332335"><ele>576.0</ele><time>2026-03-24T11:53:03.813Z</time></trkpt><trkpt lat="44.5766517" lon="8.533311"><ele>576.0</ele><time>2026-03-24T11:53:04.813Z</time></trkpt><trkpt lat="44.5766702" lon="8.5334337"><ele>576.0</ele><time>2026-03-24T11:53:06.812Z</time></trkpt><trkpt lat="44.5767784" lon="8.5334912"><ele>576.0</ele><time>2026-03-24T11:53:08.813Z</time></trkpt><trkpt lat="44.5768499" lon="8.533489"><ele>576.0</ele><time>2026-03-24T11:53:09.813Z</time></trkpt><trkpt lat="44.5769511" lon="8.5334595"><ele>576.0</ele><time>2026-03-24T11:53:10.813Z</time></trkpt><trkpt lat="44.5770815" lon="8.5334237"><ele>572.25</ele><time>2026-03-24T11:53:11.813Z</time></trkpt><trkpt lat="44.577232" lon="8.5333896"><ele>568.5</ele><time>2026-03-24T11:53:12.812Z</time></trkpt><trkpt lat="44.5773672" lon="8.5333372"><ele>564.75</ele><time>2026-03-24T11:53:13.813Z</time></trkpt><trkpt lat="44.5774841" lon="8.5332766"><ele>561.0</ele><time>2026-03-24T11:53:14.814Z</time></trkpt><trkpt lat="44.5775835" lon="8.5331888"><ele>561.0</ele><time>2026-03-24T11:53:15.814Z</time></trkpt><trkpt lat="44.5776597" lon="8.5330975"><ele>561.0</ele><time>2026-03-24T11:53:16.812Z</time></trkpt><trkpt lat="44.5777284" lon="8.5330295"><ele>561.0</ele><time>2026-03-24T11:53:17.815Z</time></trkpt><trkpt lat="44.577789" lon="8.5329862"><ele>561.0</ele><time>2026-03-24T11:53:18.813Z</time></trkpt><trkpt lat="44.5778838" lon="8.5330168"><ele>561.0</ele><time>2026-03-24T11:53:20.816Z</time></trkpt><trkpt lat="44.577912" lon="8.5331101"><ele>561.0</ele><time>2026-03-24T11:53:21.814Z</time></trkpt><trkpt lat="44.5779226" lon="8.5333388"><ele>561.25</ele><time>2026-03-24T11:53:22.813Z</time></trkpt><trkpt lat="44.5779291" lon="8.5335515"><ele>561.5</ele><time>2026-03-24T11:53:23.813Z</time></trkpt><trkpt lat="44.5779266" lon="8.5337607"><ele>561.75</ele><time>2026-03-24T11:53:24.811Z</time></trkpt><trkpt lat="44.5779181" lon="8.5339539"><ele>562.0</ele><time>2026-03-24T11:53:25.811Z</time></trkpt><trkpt lat="44.5778941" lon="8.5341295"><ele>561.0</ele><time>2026-03-24T11:53:26.813Z</time></trkpt><trkpt lat="44.5778586" lon="8.5342833"><ele>560.0</ele><time>2026-03-24T11:53:27.811Z</time></trkpt><trkpt lat="44.5778344" lon="8.5344132"><ele>559.0</ele><time>2026-03-24T11:53:28.813Z</time></trkpt><trkpt lat="44.5778334" lon="8.5345353"><ele>558.0</ele><time>2026-03-24T11:53:29.813Z</time></trkpt><trkpt lat="44.5778635" lon="8.5346487"><ele>557.0</ele><time>2026-03-24T11:53:30.811Z</time></trkpt><trkpt lat="44.5779386" lon="8.5347423"><ele>555.4</ele><time>2026-03-24T11:53:31.812Z</time></trkpt><trkpt lat="44.5780343" lon="8.5348234"><ele>553.8000000000001</ele><time>2026-03-24T11:53:32.812Z</time></trkpt><trkpt lat="44.5781169" lon="8.5349156"><ele>552.2</ele><time>2026-03-24T11:53:33.812Z</time></trkpt><trkpt lat="44.5781681" lon="8.5350261"><ele>550.6</ele><time>2026-03-24T11:53:34.812Z</time></trkpt><trkpt lat="44.5782076" lon="8.5351466"><ele>549.0</ele><time>2026-03-24T11:53:35.811Z</time></trkpt><trkpt lat="44.5782601" lon="8.5352635"><ele>549.0</ele><time>2026-03-24T11:53:36.812Z</time></trkpt><trkpt lat="44.5783495" lon="8.5353663"><ele>549.0</ele><time>2026-03-24T11:53:37.811Z</time></trkpt><trkpt lat="44.5784444" lon="8.5354754"><ele>549.0</ele><time>2026-03-24T11:53:38.812Z</time></trkpt><trkpt lat="44.578523" lon="8.5356106"><ele>549.0</ele><time>2026-03-24T11:53:39.812Z</time></trkpt><trkpt lat="44.578597" lon="8.5357504"><ele>550.25</ele><time>2026-03-24T11:53:40.811Z</time></trkpt><trkpt lat="44.5786785" lon="8.5358814"><ele>551.5</ele><time>2026-03-24T11:53:41.813Z</time></trkpt><trkpt lat="44.578766" lon="8.5360052"><ele>552.75</ele><time>2026-03-24T11:53:42.812Z</time></trkpt><trkpt lat="44.5788592" lon="8.5361198"><ele>554.0</ele><time>2026-03-24T11:53:43.812Z</time></trkpt><trkpt lat="44.5789586" lon="8.5362253"><ele>548.75</ele><time>2026-03-24T11:53:44.812Z</time></trkpt><trkpt lat="44.5790635" lon="8.5363215"><ele>543.5</ele><time>2026-03-24T11:53:45.811Z</time></trkpt><trkpt lat="44.5791749" lon="8.5364162"><ele>538.25</ele><time>2026-03-24T11:53:46.811Z</time></trkpt><trkpt lat="44.5792838" lon="8.536508"><ele>533.0</ele><time>2026-03-24T11:53:47.813Z</time></trkpt><trkpt lat="44.5793771" lon="8.5365936"><ele>533.0</ele><time>2026-03-24T11:53:48.812Z</time></trkpt><trkpt lat="44.5794511" lon="8.5366804"><ele>533.0</ele><time>2026-03-24T11:53:49.813Z</time></trkpt><trkpt lat="44.5794957" lon="8.5367744"><ele>533.0</ele><time>2026-03-24T11:53:50.813Z</time></trkpt><trkpt lat="44.5795173" lon="8.5368734"><ele>533.0</ele><time>2026-03-24T11:53:51.811Z</time></trkpt><trkpt lat="44.5795165" lon="8.5369737"><ele>533.0</ele><time>2026-03-24T11:53:52.811Z</time></trkpt><trkpt lat="44.579441" lon="8.5370691"><ele>533.0</ele><time>2026-03-24T11:53:53.812Z</time></trkpt><trkpt lat="44.5793521" lon="8.5371623"><ele>531.0</ele><time>2026-03-24T11:53:54.812Z</time></trkpt><trkpt lat="44.5792828" lon="8.5372685"><ele>529.0</ele><time>2026-03-24T11:53:55.814Z</time></trkpt><trkpt lat="44.5792361" lon="8.537415"><ele>527.0</ele><time>2026-03-24T11:53:56.812Z</time></trkpt><trkpt lat="44.5792123" lon="8.5376022"><ele>525.0</ele><time>2026-03-24T11:53:57.813Z</time></trkpt><trkpt lat="44.5791992" lon="8.53782"><ele>523.6666666666666</ele><time>2026-03-24T11:53:58.812Z</time></trkpt><trkpt lat="44.5791826" lon="8.5380404"><ele>522.3333333333333</ele><time>2026-03-24T11:53:59.813Z</time></trkpt><trkpt lat="44.5791603" lon="8.5382517"><ele>521.0</ele><time>2026-03-24T11:54:00.813Z</time></trkpt><trkpt lat="44.579147" lon="8.5384485"><ele>521.0</ele><time>2026-03-24T11:54:01.811Z</time></trkpt><trkpt lat="44.5791536" lon="8.5386247"><ele>521.0</ele><time>2026-03-24T11:54:02.812Z</time></trkpt><trkpt lat="44.5791873" lon="8.5387767"><ele>521.0</ele><time>2026-03-24T11:54:03.812Z</time></trkpt><trkpt lat="44.5792456" lon="8.5388832"><ele>521.0</ele><time>2026-03-24T11:54:04.811Z</time></trkpt><trkpt lat="44.5793345" lon="8.5389559"><ele>521.0</ele><time>2026-03-24T11:54:05.813Z</time></trkpt><trkpt lat="44.5794443" lon="8.5390082"><ele>517.4</ele><time>2026-03-24T11:54:06.813Z</time></trkpt><trkpt lat="44.5795604" lon="8.5390438"><ele>513.8</ele><time>2026-03-24T11:54:07.812Z</time></trkpt><trkpt lat="44.579676" lon="8.5390711"><ele>510.19999999999993</ele><time>2026-03-24T11:54:08.812Z</time></trkpt><trkpt lat="44.5797752" lon="8.5391163"><ele>506.59999999999997</ele><time>2026-03-24T11:54:09.811Z</time></trkpt><trkpt lat="44.579839" lon="8.539194"><ele>503.0</ele><time>2026-03-24T11:54:10.814Z</time></trkpt><trkpt lat="44.579879" lon="8.5392988"><ele>503.0</ele><time>2026-03-24T11:54:11.812Z</time></trkpt><trkpt lat="44.5798741" lon="8.5394164"><ele>502.99999999999994</ele><time>2026-03-24T11:54:12.813Z</time></trkpt><trkpt lat="44.5798374" lon="8.5395296"><ele>502.99999999999994</ele><time>2026-03-24T11:54:13.811Z</time></trkpt><trkpt lat="44.5797647" lon="8.5396498"><ele>503.0</ele><time>2026-03-24T11:54:14.812Z</time></trkpt><trkpt lat="44.5796844" lon="8.5397747"><ele>503.0</ele><time>2026-03-24T11:54:15.812Z</time></trkpt><trkpt lat="44.5796026" lon="8.5398776"><ele>504.4</ele><time>2026-03-24T11:54:16.811Z</time></trkpt><trkpt lat="44.5795124" lon="8.5399249"><ele>505.79999999999995</ele><time>2026-03-24T11:54:17.813Z</time></trkpt><trkpt lat="44.5794145" lon="8.5399411"><ele>507.2</ele><time>2026-03-24T11:54:18.812Z</time></trkpt><trkpt lat="44.5793197" lon="8.539974"><ele>508.6</ele><time>2026-03-24T11:54:19.812Z</time></trkpt><trkpt lat="44.5792346" lon="8.5400352"><ele>510.0</ele><time>2026-03-24T11:54:20.813Z</time></trkpt><trkpt lat="44.5791647" lon="8.5401132"><ele>510.0</ele><time>2026-03-24T11:54:21.812Z</time></trkpt><trkpt lat="44.5791229" lon="8.5402072"><ele>510.0</ele><time>2026-03-24T11:54:22.811Z</time></trkpt><trkpt lat="44.5791061" lon="8.5403164"><ele>510.0</ele><time>2026-03-24T11:54:23.813Z</time></trkpt><trkpt lat="44.5791129" lon="8.5404419"><ele>510.0</ele><time>2026-03-24T11:54:24.813Z</time></trkpt><trkpt lat="44.579131" lon="8.5405765"><ele>510.0</ele><time>2026-03-24T11:54:25.812Z</time></trkpt><trkpt lat="44.5791481" lon="8.5407148"><ele>510.0</ele><time>2026-03-24T11:54:26.814Z</time></trkpt><trkpt lat="44.5791543" lon="8.5408493"><ele>507.1666666666667</ele><time>2026-03-24T11:54:27.813Z</time></trkpt><trkpt lat="44.5791414" lon="8.5409707"><ele>504.33333333333337</ele><time>2026-03-24T11:54:28.813Z</time></trkpt><trkpt lat="44.5791122" lon="8.5410741"><ele>501.5</ele><time>2026-03-24T11:54:29.814Z</time></trkpt><trkpt lat="44.5790498" lon="8.541143"><ele>498.6666666666667</ele><time>2026-03-24T11:54:30.813Z</time></trkpt><trkpt lat="44.5789791" lon="8.5411971"><ele>495.83333333333337</ele><time>2026-03-24T11:54:31.812Z</time></trkpt><trkpt lat="44.5789" lon="8.5412271"><ele>493.0</ele><time>2026-03-24T11:54:32.813Z</time></trkpt><trkpt lat="44.5788152" lon="8.5412655"><ele>492.50000000000006</ele><time>2026-03-24T11:54:33.812Z</time></trkpt><trkpt lat="44.5787485" lon="8.541307"><ele>492.0</ele><time>2026-03-24T11:54:34.814Z</time></trkpt><trkpt lat="44.5786774" lon="8.5413638"><ele>491.5</ele><time>2026-03-24T11:54:35.81Z</time></trkpt><trkpt lat="44.5786379" lon="8.5415155"><ele>491.0</ele><time>2026-03-24T11:54:37.814Z</time></trkpt><trkpt lat="44.5786728" lon="8.5416205"><ele>490.50000000000006</ele><time>2026-03-24T11:54:39.812Z</time></trkpt><trkpt lat="44.5787485" lon="8.5416251"><ele>490.0</ele><time>2026-03-24T11:54:41.812Z</time></trkpt><trkpt lat="44.578838" lon="8.5415783"><ele>490.0</ele><time>2026-03-24T11:54:43.811Z</time></trkpt><trkpt lat="44.5789318" lon="8.5415306"><ele>490.0</ele><time>2026-03-24T11:54:45.812Z</time></trkpt><trkpt lat="44.5790419" lon="8.5414698"><ele>490.0</ele><time>2026-03-24T11:54:47.812Z</time></trkpt><trkpt lat="44.5791059" lon="8.5414372"><ele>490.0</ele><time>2026-03-24T11:54:48.812Z</time></trkpt><trkpt lat="44.5791818" lon="8.5413925"><ele>490.0</ele><time>2026-03-24T11:54:49.812Z</time></trkpt><trkpt lat="44.5792687" lon="8.541328"><ele>490.0</ele><time>2026-03-24T11:54:50.812Z</time></trkpt><trkpt lat="44.5793577" lon="8.5412466"><ele>490.0</ele><time>2026-03-24T11:54:51.812Z</time></trkpt><trkpt lat="44.5794456" lon="8.5411468"><ele>490.0</ele><time>2026-03-24T11:54:52.814Z</time></trkpt><trkpt lat="44.5795283" lon="8.5410329"><ele>490.0</ele><time>2026-03-24T11:54:53.811Z</time></trkpt><trkpt lat="44.5796126" lon="8.5409149"><ele>486.5</ele><time>2026-03-24T11:54:54.813Z</time></trkpt><trkpt lat="44.5797049" lon="8.5408047"><ele>483.0</ele><time>2026-03-24T11:54:55.811Z</time></trkpt><trkpt lat="44.5798058" lon="8.5407128"><ele>479.5</ele><time>2026-03-24T11:54:56.812Z</time></trkpt><trkpt lat="44.5799174" lon="8.540635"><ele>476.0</ele><time>2026-03-24T11:54:57.811Z</time></trkpt><trkpt lat="44.5800415" lon="8.5405598"><ele>476.0</ele><time>2026-03-24T11:54:58.813Z</time></trkpt><trkpt lat="44.5801679" lon="8.5404851"><ele>476.0</ele><time>2026-03-24T11:54:59.813Z</time></trkpt><trkpt lat="44.5802932" lon="8.5404112"><ele>476.0</ele><time>2026-03-24T11:55:00.813Z</time></trkpt><trkpt lat="44.580417" lon="8.5403358"><ele>476.0</ele><time>2026-03-24T11:55:01.813Z</time></trkpt><trkpt lat="44.5805415" lon="8.5402633"><ele>474.75</ele><time>2026-03-24T11:55:02.812Z</time></trkpt><trkpt lat="44.5806644" lon="8.5401961"><ele>473.5</ele><time>2026-03-24T11:55:03.812Z</time></trkpt><trkpt lat="44.5807846" lon="8.5401354"><ele>472.25</ele><time>2026-03-24T11:55:04.812Z</time></trkpt><trkpt lat="44.5809097" lon="8.5400754"><ele>471.0</ele><time>2026-03-24T11:55:05.814Z</time></trkpt><trkpt lat="44.5810266" lon="8.5400178"><ele>471.0</ele><time>2026-03-24T11:55:06.811Z</time></trkpt><trkpt lat="44.5811366" lon="8.5399697"><ele>471.0</ele><time>2026-03-24T11:55:07.811Z</time></trkpt><trkpt lat="44.5812339" lon="8.5399089"><ele>471.0</ele><time>2026-03-24T11:55:08.812Z</time></trkpt><trkpt lat="44.5813093" lon="8.5398244"><ele>471.0</ele><time>2026-03-24T11:55:09.813Z</time></trkpt><trkpt lat="44.5813581" lon="8.5397224"><ele>471.0</ele><time>2026-03-24T11:55:10.811Z</time></trkpt><trkpt lat="44.581378" lon="8.5396039"><ele>468.0</ele><time>2026-03-24T11:55:11.812Z</time></trkpt><trkpt lat="44.5813787" lon="8.5394756"><ele>465.0</ele><time>2026-03-24T11:55:12.812Z</time></trkpt><trkpt lat="44.5813827" lon="8.5393668"><ele>462.0</ele><time>2026-03-24T11:55:13.812Z</time></trkpt><trkpt lat="44.5814028" lon="8.5392783"><ele>459.0</ele><time>2026-03-24T11:55:14.814Z</time></trkpt><trkpt lat="44.5814883" lon="8.5391747"><ele>456.0</ele><time>2026-03-24T11:55:16.812Z</time></trkpt><trkpt lat="44.5816012" lon="8.5392563"><ele>456.0</ele><time>2026-03-24T11:55:18.811Z</time></trkpt><trkpt lat="44.5816705" lon="8.5393858"><ele>456.0</ele><time>2026-03-24T11:55:19.812Z</time></trkpt><trkpt lat="44.5817262" lon="8.5395694"><ele>456.0</ele><time>2026-03-24T11:55:20.813Z</time></trkpt><trkpt lat="44.5817627" lon="8.5397193"><ele>456.0</ele><time>2026-03-24T11:55:21.812Z</time></trkpt><trkpt lat="44.5817613" lon="8.5398519"><ele>455.8333333333333</ele><time>2026-03-24T11:55:22.812Z</time></trkpt><trkpt lat="44.5817352" lon="8.5399533"><ele>455.66666666666663</ele><time>2026-03-24T11:55:23.812Z</time></trkpt><trkpt lat="44.5816562" lon="8.5400145"><ele>455.5</ele><time>2026-03-24T11:55:24.813Z</time></trkpt><trkpt lat="44.5815693" lon="8.5400787"><ele>455.3333333333333</ele><time>2026-03-24T11:55:25.813Z</time></trkpt><trkpt lat="44.5814898" lon="8.5401447"><ele>455.16666666666663</ele><time>2026-03-24T11:55:26.813Z</time></trkpt><trkpt lat="44.5814231" lon="8.5402265"><ele>455.0</ele><time>2026-03-24T11:55:27.813Z</time></trkpt><trkpt lat="44.5813819" lon="8.5403143"><ele>456.0</ele><time>2026-03-24T11:55:28.812Z</time></trkpt><trkpt lat="44.5814387" lon="8.5404708"><ele>457.0</ele><time>2026-03-24T11:55:30.812Z</time></trkpt><trkpt lat="44.5814995" lon="8.5405114"><ele>458.0</ele><time>2026-03-24T11:55:31.812Z</time></trkpt><trkpt lat="44.5815733" lon="8.5405186"><ele>459.0</ele><time>2026-03-24T11:55:32.813Z</time></trkpt><trkpt lat="44.5816775" lon="8.5404578"><ele>460.0</ele><time>2026-03-24T11:55:33.813Z</time></trkpt><trkpt lat="44.5817828" lon="8.5403891"><ele>458.75</ele><time>2026-03-24T11:55:34.813Z</time></trkpt><trkpt lat="44.5818918" lon="8.5403346"><ele>457.5</ele><time>2026-03-24T11:55:35.812Z</time></trkpt><trkpt lat="44.5820054" lon="8.540313"><ele>456.25</ele><time>2026-03-24T11:55:36.813Z</time></trkpt><trkpt lat="44.5821282" lon="8.5403198"><ele>455.0</ele><time>2026-03-24T11:55:37.812Z</time></trkpt><trkpt lat="44.5822546" lon="8.5403259"><ele>451.75</ele><time>2026-03-24T11:55:38.814Z</time></trkpt><trkpt lat="44.5823827" lon="8.5403254"><ele>448.5</ele><time>2026-03-24T11:55:39.813Z</time></trkpt><trkpt lat="44.5825123" lon="8.540312"><ele>445.25</ele><time>2026-03-24T11:55:40.812Z</time></trkpt><trkpt lat="44.582639" lon="8.5403225"><ele>442.0</ele><time>2026-03-24T11:55:41.812Z</time></trkpt><trkpt lat="44.5827634" lon="8.5403613"><ele>439.25</ele><time>2026-03-24T11:55:42.813Z</time></trkpt><trkpt lat="44.5828813" lon="8.5404378"><ele>436.5</ele><time>2026-03-24T11:55:43.812Z</time></trkpt><trkpt lat="44.5829947" lon="8.5405434"><ele>433.75</ele><time>2026-03-24T11:55:44.814Z</time></trkpt><trkpt lat="44.5831061" lon="8.5406706"><ele>431.0</ele><time>2026-03-24T11:55:45.813Z</time></trkpt><trkpt lat="44.583221" lon="8.5408143"><ele>431.0</ele><time>2026-03-24T11:55:46.812Z</time></trkpt><trkpt lat="44.583328" lon="8.5409584"><ele>431.0</ele><time>2026-03-24T11:55:47.812Z</time></trkpt><trkpt lat="44.5834375" lon="8.5411038"><ele>431.0</ele><time>2026-03-24T11:55:48.812Z</time></trkpt><trkpt lat="44.5835433" lon="8.5412442"><ele>431.0</ele><time>2026-03-24T11:55:49.814Z</time></trkpt><trkpt lat="44.5836496" lon="8.541384"><ele>430.5</ele><time>2026-03-24T11:55:50.812Z</time></trkpt><trkpt lat="44.5837534" lon="8.5415189"><ele>430.0</ele><time>2026-03-24T11:55:51.813Z</time></trkpt><trkpt lat="44.583854" lon="8.5416525"><ele>429.5</ele><time>2026-03-24T11:55:52.812Z</time></trkpt><trkpt lat="44.5839577" lon="8.5417888"><ele>429.0</ele><time>2026-03-24T11:55:53.812Z</time></trkpt><trkpt lat="44.5840644" lon="8.5419193"><ele>429.5</ele><time>2026-03-24T11:55:54.815Z</time></trkpt><trkpt lat="44.5841704" lon="8.5420513"><ele>430.0</ele><time>2026-03-24T11:55:55.813Z</time></trkpt><trkpt lat="44.584279" lon="8.5421869"><ele>430.5</ele><time>2026-03-24T11:55:56.814Z</time></trkpt><trkpt lat="44.584389" lon="8.5423193"><ele>431.0</ele><time>2026-03-24T11:55:57.812Z</time></trkpt><trkpt lat="44.5844997" lon="8.5424469"><ele>429.75</ele><time>2026-03-24T11:55:58.812Z</time></trkpt><trkpt lat="44.5846122" lon="8.5425582"><ele>428.5</ele><time>2026-03-24T11:55:59.814Z</time></trkpt><trkpt lat="44.5847232" lon="8.5426587"><ele>427.25</ele><time>2026-03-24T11:56:00.813Z</time></trkpt><trkpt lat="44.5848256" lon="8.542773"><ele>426.0</ele><time>2026-03-24T11:56:01.813Z</time></trkpt><trkpt lat="44.5849228" lon="8.5428943"><ele>425.5</ele><time>2026-03-24T11:56:02.814Z</time></trkpt><trkpt lat="44.5850138" lon="8.5430228"><ele>425.0</ele><time>2026-03-24T11:56:03.813Z</time></trkpt><trkpt lat="44.5851099" lon="8.5431516"><ele>424.5</ele><time>2026-03-24T11:56:04.812Z</time></trkpt><trkpt lat="44.5852167" lon="8.5432727"><ele>424.0</ele><time>2026-03-24T11:56:05.813Z</time></trkpt><trkpt lat="44.5853307" lon="8.5433753"><ele>422.0</ele><time>2026-03-24T11:56:06.813Z</time></trkpt><trkpt lat="44.5854489" lon="8.5434711"><ele>420.0</ele><time>2026-03-24T11:56:07.813Z</time></trkpt><trkpt lat="44.5855691" lon="8.5435559"><ele>418.0</ele><time>2026-03-24T11:56:08.814Z</time></trkpt><trkpt lat="44.5856793" lon="8.5436387"><ele>416.0</ele><time>2026-03-24T11:56:09.813Z</time></trkpt><trkpt lat="44.5857832" lon="8.5437206"><ele>416.0</ele><time>2026-03-24T11:56:10.812Z</time></trkpt><trkpt lat="44.5858791" lon="8.5438022"><ele>416.0</ele><time>2026-03-24T11:56:11.813Z</time></trkpt><trkpt lat="44.585976" lon="8.5438725"><ele>416.0</ele><time>2026-03-24T11:56:12.812Z</time></trkpt><trkpt lat="44.586076" lon="8.5438986"><ele>416.0</ele><time>2026-03-24T11:56:13.813Z</time></trkpt><trkpt lat="44.5861798" lon="8.5438813"><ele>416.0</ele><time>2026-03-24T11:56:14.813Z</time></trkpt><trkpt lat="44.5862761" lon="8.543825"><ele>414.6</ele><time>2026-03-24T11:56:15.813Z</time></trkpt><trkpt lat="44.5863621" lon="8.5437294"><ele>413.20000000000005</ele><time>2026-03-24T11:56:16.812Z</time></trkpt><trkpt lat="44.5864405" lon="8.5436115"><ele>411.79999999999995</ele><time>2026-03-24T11:56:17.814Z</time></trkpt><trkpt lat="44.5865142" lon="8.5434897"><ele>410.4</ele><time>2026-03-24T11:56:18.814Z</time></trkpt><trkpt lat="44.5865874" lon="8.5433763"><ele>409.0</ele><time>2026-03-24T11:56:19.813Z</time></trkpt><trkpt lat="44.5866636" lon="8.5432915"><ele>408.0</ele><time>2026-03-24T11:56:20.813Z</time></trkpt><trkpt lat="44.5867489" lon="8.5432594"><ele>407.0</ele><time>2026-03-24T11:56:21.813Z</time></trkpt><trkpt lat="44.5868374" lon="8.5432602"><ele>406.0</ele><time>2026-03-24T11:56:22.813Z</time></trkpt><trkpt lat="44.5869181" lon="8.5433105"><ele>405.0</ele><time>2026-03-24T11:56:23.812Z</time></trkpt><trkpt lat="44.5869959" lon="8.5433786"><ele>404.0</ele><time>2026-03-24T11:56:24.813Z</time></trkpt><trkpt lat="44.5870785" lon="8.5434544"><ele>402.2</ele><time>2026-03-24T11:56:25.812Z</time></trkpt><trkpt lat="44.5871689" lon="8.5435132"><ele>400.4</ele><time>2026-03-24T11:56:26.816Z</time></trkpt><trkpt lat="44.5872621" lon="8.5435421"><ele>398.6</ele><time>2026-03-24T11:56:27.812Z</time></trkpt><trkpt lat="44.5873572" lon="8.5435493"><ele>396.8</ele><time>2026-03-24T11:56:28.812Z</time></trkpt><trkpt lat="44.5874536" lon="8.5435503"><ele>395.0</ele><time>2026-03-24T11:56:29.814Z</time></trkpt><trkpt lat="44.5875409" lon="8.5435844"><ele>395.0</ele><time>2026-03-24T11:56:30.812Z</time></trkpt><trkpt lat="44.5876205" lon="8.5436528"><ele>395.0</ele><time>2026-03-24T11:56:31.814Z</time></trkpt><trkpt lat="44.5876928" lon="8.5437501"><ele>395.0</ele><time>2026-03-24T11:56:32.813Z</time></trkpt><trkpt lat="44.5877731" lon="8.5438514"><ele>395.0</ele><time>2026-03-24T11:56:33.813Z</time></trkpt><trkpt lat="44.5878565" lon="8.5439369"><ele>395.0</ele><time>2026-03-24T11:56:34.812Z</time></trkpt><trkpt lat="44.5879473" lon="8.5440048"><ele>395.0</ele><time>2026-03-24T11:56:35.813Z</time></trkpt><trkpt lat="44.5880437" lon="8.5440606"><ele>395.0</ele><time>2026-03-24T11:56:36.813Z</time></trkpt><trkpt lat="44.5881304" lon="8.5441219"><ele>395.0</ele><time>2026-03-24T11:56:37.813Z</time></trkpt><trkpt lat="44.5882115" lon="8.5442"><ele>395.0</ele><time>2026-03-24T11:56:38.813Z</time></trkpt><trkpt lat="44.5882861" lon="8.5442901"><ele>395.0</ele><time>2026-03-24T11:56:39.814Z</time></trkpt><trkpt lat="44.5883544" lon="8.5443891"><ele>395.0</ele><time>2026-03-24T11:56:40.814Z</time></trkpt><trkpt lat="44.5884071" lon="8.5444956"><ele>395.0</ele><time>2026-03-24T11:56:41.812Z</time></trkpt><trkpt lat="44.5884416" lon="8.5446099"><ele>395.0</ele><time>2026-03-24T11:56:42.813Z</time></trkpt><trkpt lat="44.5884476" lon="8.5447362"><ele>395.0</ele><time>2026-03-24T11:56:43.816Z</time></trkpt><trkpt lat="44.5884387" lon="8.5448599"><ele>395.0</ele><time>2026-03-24T11:56:44.812Z</time></trkpt><trkpt lat="44.5884186" lon="8.5449987"><ele>395.8</ele><time>2026-03-24T11:56:45.812Z</time></trkpt><trkpt lat="44.5883966" lon="8.5451371"><ele>396.6</ele><time>2026-03-24T11:56:46.813Z</time></trkpt><trkpt lat="44.5883925" lon="8.5452685"><ele>397.4</ele><time>2026-03-24T11:56:47.812Z</time></trkpt><trkpt lat="44.588406" lon="8.5453891"><ele>398.2</ele><time>2026-03-24T11:56:48.814Z</time></trkpt><trkpt lat="44.5884348" lon="8.5455103"><ele>399.0</ele><time>2026-03-24T11:56:49.814Z</time></trkpt><trkpt lat="44.5884747" lon="8.5456248"><ele>399.0</ele><time>2026-03-24T11:56:50.814Z</time></trkpt><trkpt lat="44.5885188" lon="8.54574"><ele>399.0</ele><time>2026-03-24T11:56:51.812Z</time></trkpt><trkpt lat="44.5885631" lon="8.545852"><ele>399.0</ele><time>2026-03-24T11:56:52.812Z</time></trkpt><trkpt lat="44.5886031" lon="8.5459578"><ele>399.0</ele><time>2026-03-24T11:56:53.814Z</time></trkpt><trkpt lat="44.5886417" lon="8.5460592"><ele>399.0</ele><time>2026-03-24T11:56:54.812Z</time></trkpt><trkpt lat="44.5886763" lon="8.5461562"><ele>399.0</ele><time>2026-03-24T11:56:55.812Z</time></trkpt><trkpt lat="44.5887115" lon="8.5462482"><ele>396.4</ele><time>2026-03-24T11:56:56.813Z</time></trkpt><trkpt lat="44.5887519" lon="8.54634"><ele>393.79999999999995</ele><time>2026-03-24T11:56:57.812Z</time></trkpt><trkpt lat="44.5887994" lon="8.5464344"><ele>391.20000000000005</ele><time>2026-03-24T11:56:58.812Z</time></trkpt><trkpt lat="44.5888608" lon="8.5465421"><ele>388.6</ele><time>2026-03-24T11:56:59.814Z</time></trkpt><trkpt lat="44.5889314" lon="8.5466346"><ele>386.0</ele><time>2026-03-24T11:57:00.813Z</time></trkpt><trkpt lat="44.5890128" lon="8.546723"><ele>386.0</ele><time>2026-03-24T11:57:01.812Z</time></trkpt><trkpt lat="44.5891037" lon="8.5468078"><ele>386.0</ele><time>2026-03-24T11:57:02.814Z</time></trkpt><trkpt lat="44.5891926" lon="8.5468885"><ele>386.0</ele><time>2026-03-24T11:57:03.812Z</time></trkpt><trkpt lat="44.5892867" lon="8.5469699"><ele>386.0</ele><time>2026-03-24T11:57:04.812Z</time></trkpt><trkpt lat="44.5893764" lon="8.5470485"><ele>386.0</ele><time>2026-03-24T11:57:05.813Z</time></trkpt><trkpt lat="44.5894588" lon="8.5471277"><ele>386.4</ele><time>2026-03-24T11:57:06.812Z</time></trkpt><trkpt lat="44.5895379" lon="8.547205"><ele>386.8</ele><time>2026-03-24T11:57:07.812Z</time></trkpt><trkpt lat="44.5896108" lon="8.5472865"><ele>387.2</ele><time>2026-03-24T11:57:08.813Z</time></trkpt><trkpt lat="44.5896825" lon="8.5473715"><ele>387.59999999999997</ele><time>2026-03-24T11:57:09.813Z</time></trkpt><trkpt lat="44.5897528" lon="8.5474569"><ele>388.0</ele><time>2026-03-24T11:57:10.812Z</time></trkpt><trkpt lat="44.5898181" lon="8.5475419"><ele>388.00000000000006</ele><time>2026-03-24T11:57:11.812Z</time></trkpt><trkpt lat="44.5898761" lon="8.5476274"><ele>388.0</ele><time>2026-03-24T11:57:12.812Z</time></trkpt><trkpt lat="44.5899327" lon="8.5477114"><ele>388.0</ele><time>2026-03-24T11:57:13.813Z</time></trkpt><trkpt lat="44.5899946" lon="8.5477865"><ele>388.0</ele><time>2026-03-24T11:57:14.812Z</time></trkpt><trkpt lat="44.5900615" lon="8.5478515"><ele>388.00000000000006</ele><time>2026-03-24T11:57:15.813Z</time></trkpt><trkpt lat="44.5901253" lon="8.5479067"><ele>388.0</ele><time>2026-03-24T11:57:16.813Z</time></trkpt><trkpt lat="44.590195" lon="8.5479526"><ele>388.50000000000006</ele><time>2026-03-24T11:57:17.812Z</time></trkpt><trkpt lat="44.5902719" lon="8.5479942"><ele>389.0</ele><time>2026-03-24T11:57:18.812Z</time></trkpt><trkpt lat="44.5903525" lon="8.5480265"><ele>389.5</ele><time>2026-03-24T11:57:19.812Z</time></trkpt><trkpt lat="44.5904354" lon="8.5480594"><ele>390.0</ele><time>2026-03-24T11:57:20.813Z</time></trkpt><trkpt lat="44.5905203" lon="8.5480926"><ele>390.50000000000006</ele><time>2026-03-24T11:57:21.812Z</time></trkpt><trkpt lat="44.5906004" lon="8.5481336"><ele>391.0</ele><time>2026-03-24T11:57:22.812Z</time></trkpt><trkpt lat="44.5906832" lon="8.5481779"><ele>389.00000000000006</ele><time>2026-03-24T11:57:23.812Z</time></trkpt><trkpt lat="44.5907652" lon="8.5482324"><ele>387.0</ele><time>2026-03-24T11:57:24.812Z</time></trkpt><trkpt lat="44.5908385" lon="8.5483009"><ele>385.0</ele><time>2026-03-24T11:57:25.813Z</time></trkpt><trkpt lat="44.590897" lon="8.5483785"><ele>383.0</ele><time>2026-03-24T11:57:26.812Z</time></trkpt><trkpt lat="44.5909445" lon="8.5484546"><ele>381.0</ele><time>2026-03-24T11:57:27.813Z</time></trkpt><trkpt lat="44.5909865" lon="8.5485218"><ele>379.0</ele><time>2026-03-24T11:57:28.814Z</time></trkpt><trkpt lat="44.5910646" lon="8.5486275"><ele>379.0</ele><time>2026-03-24T11:57:30.812Z</time></trkpt><trkpt lat="44.5911194" lon="8.5486841"><ele>379.0</ele><time>2026-03-24T11:57:32.812Z</time></trkpt><trkpt lat="44.5911936" lon="8.548775"><ele>379.0</ele><time>2026-03-24T11:57:51.812Z</time></trkpt><trkpt lat="44.5912478" lon="8.5488249"><ele>379.0</ele><time>2026-03-24T11:57:54.813Z</time></trkpt><trkpt lat="44.5913187" lon="8.5488929"><ele>379.0</ele><time>2026-03-24T11:57:57.813Z</time></trkpt><trkpt lat="44.5913754" lon="8.5489405"><ele>379.0</ele><time>2026-03-24T11:57:59.812Z</time></trkpt><trkpt lat="44.59144" lon="8.548992"><ele>378.79999999999995</ele><time>2026-03-24T11:58:01.813Z</time></trkpt><trkpt lat="44.5915115" lon="8.5490501"><ele>378.59999999999997</ele><time>2026-03-24T11:58:03.812Z</time></trkpt><trkpt lat="44.5915916" lon="8.5491127"><ele>378.4</ele><time>2026-03-24T11:58:05.813Z</time></trkpt><trkpt lat="44.5916741" lon="8.5491799"><ele>378.2</ele><time>2026-03-24T11:58:07.813Z</time></trkpt><trkpt lat="44.5917662" lon="8.5492468"><ele>378.0</ele><time>2026-03-24T11:58:09.812Z</time></trkpt><trkpt lat="44.5918683" lon="8.5493146"><ele>378.0</ele><time>2026-03-24T11:58:11.812Z</time></trkpt><trkpt lat="44.5919783" lon="8.5493549"><ele>378.0</ele><time>2026-03-24T11:58:13.813Z</time></trkpt><trkpt lat="44.5920662" lon="8.5493967"><ele>378.0</ele><time>2026-03-24T11:58:15.813Z</time></trkpt><trkpt lat="44.5920217" lon="8.5494998"><ele>378.0</ele><time>2026-03-24T11:58:29.813Z</time></trkpt><trkpt lat="44.59197" lon="8.5495526"><ele>378.0</ele><time>2026-03-24T11:58:34.813Z</time></trkpt><trkpt lat="44.5919204" lon="8.549619"><ele>378.0</ele><time>2026-03-24T11:58:40.813Z</time></trkpt><trkpt lat="44.5918745" lon="8.5496946"><ele>378.1666666666667</ele><time>2026-03-24T11:58:58.812Z</time></trkpt><trkpt lat="44.5918192" lon="8.5497702"><ele>378.3333333333333</ele><time>2026-03-24T11:59:02.815Z</time></trkpt><trkpt lat="44.5917759" lon="8.5498516"><ele>378.5</ele><time>2026-03-24T11:59:05.814Z</time></trkpt><trkpt lat="44.5917402" lon="8.5499257"><ele>378.66666666666663</ele><time>2026-03-24T11:59:07.814Z</time></trkpt><trkpt lat="44.5916985" lon="8.5500195"><ele>378.8333333333333</ele><time>2026-03-24T11:59:09.812Z</time></trkpt><trkpt lat="44.5916594" lon="8.5501199"><ele>379.0</ele><time>2026-03-24T11:59:11.812Z</time></trkpt><trkpt lat="44.5916284" lon="8.5502195"><ele>379.0</ele><time>2026-03-24T11:59:13.812Z</time></trkpt><trkpt lat="44.5915994" lon="8.5503206"><ele>379.0</ele><time>2026-03-24T11:59:15.811Z</time></trkpt><trkpt lat="44.5915579" lon="8.5504332"><ele>379.0</ele><time>2026-03-24T11:59:17.811Z</time></trkpt><trkpt lat="44.5915152" lon="8.5505545"><ele>379.0</ele><time>2026-03-24T11:59:19.813Z</time></trkpt><trkpt lat="44.5914718" lon="8.5506746"><ele>379.0</ele><time>2026-03-24T11:59:21.812Z</time></trkpt><trkpt lat="44.5914368" lon="8.5508018"><ele>378.3333333333333</ele><time>2026-03-24T11:59:23.812Z</time></trkpt><trkpt lat="44.5914031" lon="8.5509222"><ele>377.66666666666663</ele><time>2026-03-24T11:59:25.812Z</time></trkpt><trkpt lat="44.5913698" lon="8.5510351"><ele>377.0</ele><time>2026-03-24T11:59:27.813Z</time></trkpt><trkpt lat="44.5913365" lon="8.5511461"><ele>376.3333333333333</ele><time>2026-03-24T11:59:29.814Z</time></trkpt><trkpt lat="44.5913025" lon="8.551256"><ele>375.6666666666667</ele><time>2026-03-24T11:59:31.812Z</time></trkpt><trkpt lat="44.5912682" lon="8.5513814"><ele>375.0</ele><time>2026-03-24T11:59:33.814Z</time></trkpt><trkpt lat="44.591225" lon="8.5515039"><ele>368.0</ele><time>2026-03-24T11:59:35.813Z</time></trkpt><trkpt lat="44.5911741" lon="8.5515683"><ele>368.0</ele><time>2026-03-24T11:59:37.812Z</time></trkpt><trkpt lat="44.5911171" lon="8.5516158"><ele>374.0</ele><time>2026-03-24T11:59:40.812Z</time></trkpt></trkseg></trk></gpx>